     2              OBSERVATION DATA    GPS                 RINEX VERSION / TYPE
teqc 1999Jul19 19991123 02:39:21UTC                         PGM / RUN BY / DATE
                                                            COMMENT
Original Marker Name: 0108                                  COMMENT
Campaign Name: HPGN 1991                                    COMMENT
4-Character Station Name: 0108                              COMMENT
6-Character Antenna Code: TRMSST                            COMMENT
Vertical Measurement Point: BPA                             COMMENT
Vertical Offset to Rinex Ref. Point: 0.0000                 COMMENT
Radial Measurement Point: RRP                               COMMENT
Radial Offset to Rinex Ref. Point: 0.0000                   COMMENT
Antenna Height from Field Measurement: 2.2200 m             COMMENT
                                                            COMMENT
Original XYZ: -2667852.3479 -4031681.3966 4147300.3034      COMMENT
New XYZ position is based on association with SCEC monument COMMENT
E1O6Q3F3+0011. Position of that monument is believed to be  COMMENT
valid to within 1 m horizontally; vertical accuracy         COMMENT
should be no worse than 3-times this value.                 COMMENT
                                                            COMMENT
Revised Rinex header created by UCSD GPS archive for        COMMENT
GSAC on 10-Mar-2000 (2000:070) 04:20:07 GMT                 COMMENT
For assistance contact dagnew@ucsd.edu or hjohnson@ucsd.edu COMMENT
                                                            COMMENT
HPGN CA 01 08                                               MARKER NAME
0108                                                        MARKER NUMBER
-Unknown- CALIF DEPT TRANSPORTATION                         OBSERVER / AGENCY
423 TRIMBLE 4000 SST NP 4.30 / SP 4.20                      REC # / TYPE / VERS
106 TR 4000SST L1/L2 GEO                                    ANT # / TYPE
 -2667856.3662 -4031686.3504  4147300.2900                  APPROX POSITION XYZ
        2.2200        0.0000        0.0000                  ANTENNA: DELTA H/E/N
     1     1     0                                          WAVELENGTH FACT L1/2
     5    C1    L1    L2    S1    S2                        # / TYPES OF OBSERV
     0                                                      INTERVAL
  1991     7    27     0    32   15.000000                  TIME OF FIRST OBS
  1991     7    27     6    32   30.000000                  TIME OF LAST OBS
                                                            END OF HEADER
 91  7 27  0 32 15.0000000  0  5G 3G16G17G20G23
  20558700.602     -271443.786 7        -0.24233        24.500           2.688
  22218189.570          -0.09017        -0.15532        22.500           1.906
  20899986.352          -0.49617        -0.36233        23.500           3.375
  22934818.984          -0.22616        -0.21331        14.750           0.938
  24225200.352          -0.13013        -0.35131         6.000           0.406
 91  7 27  0 32 30.0000000  0  5G 3G16G17G20G23
  20549140.438     -321689.116 7    -39152.43023        24.750           2.563
  22217168.109       -5364.326 7     -4180.09322        22.500           1.719
  20888484.977      -60435.741 7    -47092.73423        23.000           3.344
  22937579.039       14502.902 6     11300.85321        14.750           0.875
  24207458.789      -93220.260 3    -72639.15821         5.500           0.406
 91  7 27  0 32 45.0000000  0  5G 3G16G17G20G23
  20539586.422     -371893.013 7    -78272.34423        25.000           2.688
  22216161.117      -10653.538 7     -8301.57122        22.000           1.750
  20876996.406     -120821.477 7    -94146.53123        24.000           3.219
  22940341.953       29023.315 6     22615.39221        15.000           0.938
  24189729.586     -186449.447 4   -145285.02221         6.500           0.375
 91  7 27  0 33  0.0000000  0  5G 3G16G17G20G23
  20530043.031     -422039.667 7   -117347.64423        24.750           2.656
  22215171.992      -15852.409 7    -12352.64622        21.500           1.719
  20865515.727     -181142.403 7   -141149.82823        23.750           3.281
  22943114.594       43575.871 6     33954.98021        15.250           0.969
  24171990.141     -279671.979 4   -217925.70221         7.250           0.594
 91  7 27  0 33 15.0000000  0  5G 3G16G17G20G23
  20520512.164     -472121.698 7   -156372.59823        24.750           2.563
  22214202.664      -20954.034 7    -16327.95422        22.250           1.844
  20854051.805     -241391.029 7   -188096.78523        23.250           3.281
  22945892.555       58167.662 6     45325.14121        14.750           1.031
  24154254.664     -372880.099 5   -290555.16121         7.500           0.375
 91  7 27  0 33 30.0000000  0  5G 3G16G17G20G23
  20510996.172     -522137.295 7   -195345.77523        25.500           2.656
  22213249.328      -25956.879 7    -20226.28822        22.000           1.906
  20842597.469     -301565.914 7   -234986.27923        22.500           3.406
  22948674.031       72799.823 6     56726.74921        14.750           0.938
  24136521.961     -466071.846 5   -363171.87921         8.250           0.406
 91  7 27  0 33 45.0000000  0  5G 3G16G17G20G23
  20501493.086     -572078.788 7   -234261.21823        25.500           2.844
  22212319.500      -30853.698 7    -24042.00122        22.750           1.750
  20831164.992     -361659.349 7   -281812.30223        22.750           3.250
  22951466.367       87479.793 6     68165.63421        14.000           0.875
  24118788.438     -559239.487 5   -435769.80121         8.250           0.375
 91  7 27  0 34  0.0000000  0  5G 3G16G17G20G23
  20492002.875     -621949.001 7   -273121.11323        25.000           2.625
  22211405.430      -35648.230 7    -27778.01122        22.250           1.844
  20819743.734     -421674.683 7   -328577.47123        22.750           3.438
  22954269.516      102203.774 6     79638.78321        14.500           0.844
  24101058.125     -652386.093 5   -508351.34621         8.500           0.313
 91  7 27  0 34 15.0000000  0  5G 3G16G17G20G23
  20482526.523     -671750.785 7   -311927.68323        25.750           2.500
  22210511.461      -40343.864 7    -31436.95822        22.250           1.813
  20808335.578     -481614.853 7   -375284.07123        22.250           3.406
  22957078.234      116968.507 6     91143.70221        13.250           0.875
  24083337.445     -745514.191 5   -580918.46921         8.750           0.281
 91  7 27  0 34 30.0000000  0  5G 3G16G17G20G23
  20473060.234     -721480.969 7   -350678.47223        25.000           2.781
  22209639.961      -44937.825 7    -35016.67722        22.000           1.906
  20796945.594     -541476.763 7   -421929.68823        22.250           3.219
  22959895.422      131776.626 6    102682.41821        13.750           0.781
  24065619.383     -838620.529 5   -653468.63321         9.000           0.344
 91  7 27  0 34 44.9990000  0  5G 3G16G17G20G23
  20463613.323     -771138.373 7   -389372.54023        25.250           2.781
  22208780.581      -49432.234 7    -38518.83322        21.750           1.813
  20785570.784     -601258.902 7   -468513.15223        22.750           3.188
  22962718.901      146624.488 6    114252.11521        12.750           0.781
  24047911.237     -931700.906 5   -725998.60021         9.000           0.281
 91  7 27  0 34 59.9990000  0  5G 3G16G17G20G23
  20454174.401     -820736.167 7   -428020.15523        25.500           2.688
  22207946.448      -53834.816 7    -41949.43222        21.750           1.813
  20774206.081     -660975.960 7   -515045.89523        22.250           3.219
  22965556.019      161506.906 6    125848.72021        13.500           0.719
  24030194.534    -1024774.319 5   -798523.11821         9.000           0.250
 91  7 27  0 35 14.9990000  0  5G 3G16G17G20G23
  20444749.276     -870268.816 7   -466617.02523        25.750           2.688
  22207124.019      -58143.153 7    -45306.58122        21.000           1.875
  20762857.909     -720621.634 7   -561523.02423        22.750           3.250
  22968394.831      176424.890 6    137473.06221        13.500           0.750
  24012489.089    -1117831.970 5   -871035.34221         9.250           0.281
 91  7 27  0 35 29.9990000  0  5G 3G16G17G20G23
  20435336.284     -919734.217 7   -505161.48123        25.000           2.656
  22206323.034      -62356.248 7    -48589.53322        21.500           1.906
  20751518.714     -780194.483 7   -607943.40023        22.250           3.375
  22971239.503      191379.449 6    149125.88721        13.750           0.750
  23994787.558    -1210872.145 5   -943533.96521         9.500           0.250
 91  7 27  0 35 44.9990000  0  5G 3G16G17G20G23
  20425935.690     -969136.425 7   -543656.69423        26.250           2.625
  22205540.081      -66478.226 7    -51801.47222        21.500           1.750
  20740195.089     -839698.269 7   -654309.95923        22.250           3.250
  22974090.308      206366.350 6    160803.91621        13.250           0.750
  23977087.331    -1303898.254 5  -1016021.63321         9.250           0.375
 91  7 27  0 35 59.9990000  0  5G 3G16G17G20G23
  20416547.698    -1018473.508 7   -582101.17623        25.250           2.625
  22204774.206      -70507.680 7    -54941.33422        22.000           1.844
  20728886.565     -899131.609 7   -700621.63423        22.500           3.219
  22976953.331      221386.918 6    172508.17121        14.000           0.656
  23959381.620    -1396908.506 5  -1088496.91921         8.500           0.219
 91  7 27  0 36 14.9990000  0  5G 3G16G17G20G23
  20407169.987    -1067749.716 7   -620498.20923        25.250           2.688
  22204022.925      -74449.416 7    -58012.82522        22.000           1.906
  20717590.730     -958498.838 7   -746881.78723        22.750           3.250
  22979813.456      236436.233 6    184234.83321        14.500           0.750
  23941688.073    -1489907.123 5  -1160963.18521         8.250           0.250
 91  7 27  0 36 29.9990000  0  5G 3G16G17G20G23
  20397803.706    -1116964.418 7   -658847.31523        25.250           2.656
  22203291.058      -78303.151 7    -61015.74422        21.750           1.813
  20706305.456    -1017799.423 7   -793090.01223        23.250           3.219
  22982683.901      251514.371 6    195983.95321        14.000           0.594
  23923989.808    -1582893.355 5  -1233419.77621         8.000           0.281
 91  7 27  0 36 44.9990000  0  5G 3G16G17G20G23
  20388449.769    -1166114.208 7   -697145.85423        24.750           2.563
  22202574.347      -82066.147 7    -63947.96622        21.750           1.844
  20695033.386    -1077030.119 7   -839243.77423        23.500           3.156
  22985562.487      266624.344 6    207757.89321        14.250           0.594
  23906296.550    -1675863.631 5  -1305863.93221         8.750           0.313
 91  7 27  0 36 59.9990000  0  5G 3G16G17G20G23
  20379109.237    -1215202.346 7   -735396.34023        26.000           2.656
  22201872.261      -85742.284 7    -66812.50222        20.500           1.906
  20683774.761    -1136194.681 7   -885346.01023        23.250           3.219
  22988435.065      281762.147 6    219553.49621        13.750           0.625
  23888610.026    -1768821.261 5  -1378298.22121         8.250           0.375
 91  7 27  0 37 14.9990000  0  5G 3G16G17G20G23
  20369781.331    -1264230.204 7   -773599.85223        26.500           2.719
  22201190.105      -89333.389 7    -69610.78022        20.750           1.625
  20672527.722    -1195294.440 7   -931397.74323        23.000           3.313
  22991323.292      296925.997 6    231369.41521        13.250           0.688
  23870926.940    -1861767.471 5  -1450723.64421         8.750           0.250
 91  7 27  0 37 29.9990000  0  5G 3G16G17G20G23
  20360464.800    -1313186.496 7   -811747.60623        25.750           2.750
  22200526.589      -92828.472 7    -72334.22622        20.500           1.688
  20661297.440    -1254318.255 7   -977390.29823        23.000           3.250
  22994217.448      312126.656 6    243214.00821        14.000           0.688
  23853241.745    -1954690.945 5  -1523131.33921         8.750           0.375
 91  7 27  0 37 44.9990000  0  5G 3G16G17G20G23
  20351162.370    -1362071.246 7   -849839.61123        25.750           2.781
  22199879.440      -96228.101 7    -74983.30722        21.000           1.656
  20650077.534    -1313266.404 7  -1023323.89323        22.500           3.344
  22997118.605      327363.439 6    255086.75021        13.750           0.656
  23835564.769    -2047591.659 5  -1595521.28521         8.500           0.281
 91  7 27  0 37 59.9990000  0  5G 3G16G17G20G23
  20341876.042    -1410876.042 7   -887869.30923        26.000           2.875
  22199250.995      -99524.314 7    -77551.80322        20.000           1.750
  20638877.792    -1372130.888 7  -1069192.29423        23.250           3.219
  23000031.136      342644.131 6    266993.70521        14.000           0.594
  23817889.714    -2140461.177 5  -1667886.95521         9.000           0.469
 91  7 27  0 38 14.9990000  0  5G 3G16G17G20G23
  20332602.909    -1459602.240 7   -925837.76623        25.500           2.844
  22198643.808     -102718.742 7    -80040.98322        20.750           1.719
  20627690.245    -1430912.892 7  -1114996.43123        23.500           3.156
  23002944.448      357967.107 6    278933.59921        13.500           0.656
  23800228.651    -2233300.277 5  -1740228.87121         9.500           0.531
 91  7 27  0 38 29.9990000  0  5G 3G16G17G20G23
  20323345.136    -1508249.098 7   -963744.39823        25.250           2.656
  22198052.776     -105811.592 7    -82451.01522        20.000           1.781
  20616522.276    -1489612.156 7  -1160736.09823        24.250           3.219
  23005866.042      373332.203 6    290906.32321        13.250           0.688
  23782555.808    -2326108.447 5  -1812546.72921         9.000           0.344
 91  7 27  0 38 44.9990000  0  5G 3G16G17G20G23
  20314102.573    -1556820.598 7  -1001592.32423        25.500           2.531
  22197485.550     -108807.049 7    -84785.15122        20.750           1.688
  20605366.440    -1548232.707 7  -1206414.43223        24.000           3.219
  23008794.175      388734.969 6    302908.39321        13.750           0.688
  23764907.081    -2418889.751 5  -1884843.67421         8.750           0.375
 91  7 27  0 38 59.9990000  0  5G 3G16G17G20G23
  20304873.730    -1605317.125 7  -1039381.81523        26.250           2.594
  22196930.167     -111706.009 6    -87044.08422        19.500           1.719
  20594226.948    -1606775.148 7  -1252031.89623        23.750           3.250
  23011735.089      404174.482 6    314939.09021        13.750           0.688
  23747252.925    -2511644.467 5  -1957119.84921         8.750           0.438
 91  7 27  0 39 14.9990000  0  5G 3G16G17G20G23
  20295660.956    -1653744.273 7  -1077117.25423        26.250           2.531
  22196397.901     -114514.586 6    -89232.60522        19.500           1.781
  20583101.972    -1665245.334 7  -1297593.05123        24.000           3.281
  23014680.565      419644.768 6    326993.79121        13.500           0.844
  23729607.690    -2604377.812 5  -2029379.40321        10.000           0.344
 91  7 27  0 39 29.9990000  0  5G 3G16G17G20G23
  20286455.105    -1702100.023 7  -1114797.06023        25.500           2.531
  22195882.815     -117231.405 7    -91349.62622        20.000           1.750
  20571990.487    -1723641.304 7  -1343096.38523        24.250           3.281
  23017632.980      435147.183 6    339073.49721        13.000           0.656
  23711961.315    -2697088.010 5  -2101620.93921         9.750           0.313
 91  7 27  0 39 44.9990000  0  5G 3G16G17G20G23
  20277268.933    -1750383.829 7  -1152420.80623        25.500           2.750
  22195381.683     -119856.403 7    -93395.09922        20.500           1.688
  20560892.433    -1781962.942 7  -1388541.80023        24.000           3.250
  23020581.534      450681.568 6    351178.13721        12.000           0.719
  23694330.136    -2789774.196 5  -2173843.75121        11.000           0.469
 91  7 27  0 39 59.9990000  0  5G 3G16G17G20G23
  20268091.667    -1798597.292 7  -1189989.73123        24.750           2.781
  22194897.862     -122391.511 7    -95370.51622        20.000           1.656
  20549805.917    -1840212.031 7  -1433930.67823        24.250           3.313
  23023542.870      466246.025 5    363306.21021        11.250           0.781
  23676699.089    -2882437.734 5  -2246048.91321        11.250           0.438
 91  7 27  0 40 14.9990000  0  5G 3G16G17G20G23
  20258933.308    -1846741.851 7  -1227504.95823        25.500           2.781
  22194435.237     -124838.683 7    -97277.42722        20.250           1.688
  20538733.792    -1898390.101 7  -1479264.22323        24.250           3.313
  23026514.105      481838.496 5    375456.08221        11.750           0.688
  23659066.769    -2975080.270 5  -2318237.73921        10.250           0.469
 91  7 27  0 40 29.9990000  0  5G 3G16G17G20G23
  20249784.940    -1894813.467 7  -1264963.35623        25.750           2.813
  22193984.886     -127194.330 7    -99113.00922        20.250           1.656
  20527676.276    -1956493.197 7  -1524539.33823        23.500           3.438
  23029485.995      497462.467 6    387630.51921        12.000           0.688
  23641440.019    -3067697.652 5  -2390406.94021         9.750           0.375
 91  7 27  0 40 44.9990000  0  5G 3G16G17G20G23
  20240651.612    -1942815.796 7  -1302367.76723        26.500           2.781
  22193552.206     -129462.983 7   -100880.80422        20.000           1.656
  20516633.612    -2014525.394 7  -1569759.21123        23.500           3.344
  23032465.909      513113.500 5    399826.02121        11.750           0.719
  23623824.620    -3160293.528 5  -2462559.37921         9.500           0.344
 91  7 27  0 40 59.9990000  0  5G 3G16G17G20G23
  20231528.034    -1990751.105 7  -1339719.95123        27.000           2.656
  22193140.401     -131646.870 7   -102582.55022        20.750           1.625
  20505607.206    -2072489.027 7  -1614925.65823        24.000           3.406
  23035449.847      528788.893 5    412040.53521        11.750           0.688
  23606200.753    -3252869.977 5  -2534696.71021         8.500           0.406
 91  7 27  0 41 14.9990000  0  5G 3G16G17G20G23
  20222419.058    -2038619.505 7  -1377020.00923        26.250           2.594
  22192739.253     -133746.915 6   -104218.96222        19.750           1.625
  20494587.550    -2130384.659 7  -1660039.11523        24.000           3.313
  23038433.909      544488.092 6    424273.58421        12.250           0.656
  23588586.214    -3345427.066 5  -2606818.93221         8.500           0.344
 91  7 27  0 41 29.9990000  0  5G 3G16G17G20G23
  20213322.011    -2086421.416 7  -1414268.25423        25.500           2.563
  22192356.097     -135764.095 7   -105790.81622        20.000           1.594
  20483582.878    -2188212.688 7  -1705099.89723        24.250           3.313
  23041428.190      560209.956 6    436524.29321        12.250           0.688
  23570980.519    -3437964.944 5  -2678926.22321         9.250           0.438
 91  7 27  0 41 44.9990000  0  5G 3G16G17G20G23
  20204240.253    -2134155.436 7  -1451463.58223        25.250           2.656
  22191987.026     -137697.251 6   -107297.18622        19.500           1.625
  20472594.378    -2245971.748 7  -1750106.93723        24.750           3.250
  23044422.417      575955.500 6    448793.46321        12.250           0.688
  23553372.503    -3530482.250 5  -2751017.44721         9.500           0.281
 91  7 27  0 41 59.9990000  0  5G 3G16G17G20G23
  20195167.776    -2181819.763 7  -1488604.61423        25.500           2.625
  22191635.706     -139545.301 6   -108737.24322        19.500           1.594
  20461614.901    -2303660.396 7  -1795059.11423        24.500           3.188
  23047422.628      591725.916 6    461082.00321        12.250           0.594
  23535776.573    -3622977.095 5  -2823091.20021         9.500           0.313
 91  7 27  0 42 14.9990000  0  5G 3G16G17G20G23
  20186111.925    -2229417.468 7  -1525693.73223        26.000           2.594
  22191299.925     -141311.550 7   -110113.56422        20.000           1.563
  20450647.058    -2361281.725 7  -1839958.83123        23.500           3.219
  23050430.245      607517.606 6    473387.12821        12.500           0.688
  23518170.581    -3715452.479 5  -2895149.75621         9.750           0.469
 91  7 27  0 42 29.9990000  0  5G 3G16G17G20G23
  20177068.300    -2276949.626 7  -1562731.77723        26.500           2.625
  22190978.878     -142997.850 6   -111427.58722        19.500           1.625
  20439697.659    -2418837.123 7  -1884807.16623        23.750           3.250
  23053436.511      623328.876 6    485707.48921        12.750           0.500
  23500577.245    -3807909.438 5  -2967194.00921         9.000           0.250
 91  7 27  0 42 44.9990000  0  5G 3G16G17G20G23
  20168036.394    -2324409.800 7  -1599713.72623        26.000           2.750
  22190677.128     -144597.985 7   -112674.46622        20.000           1.594
  20428754.839    -2476320.604 7  -1929599.47523        23.250           3.375
  23056454.058      639165.655 6    498047.75121        13.500           0.594
  23482996.753    -3900341.254 5  -3039218.63921        10.000           0.250
 91  7 27  0 42 59.9990000  0  5G 3G16G17G20G23
  20159015.050    -2371801.511 7  -1636642.33123        25.750           2.688
  22190383.519     -146116.077 6   -113857.40722        19.750           1.719
  20417832.487    -2533735.621 7  -1974338.42923        23.250           3.344
  23059471.464      655023.910 6    510404.75621        13.500           0.594
  23465409.831    -3992751.512 5  -3111226.48521        10.000           0.438
 91  7 27  0 43 14.9990000  0  5G 3G16G17G20G23
  20150012.565    -2419129.077 7  -1673520.95023        26.750           2.906
  22190110.815     -147556.949 6   -114980.18622        19.500           1.625
  20406918.565    -2591086.702 7  -2019027.56123        23.250           3.219
  23062492.651      670898.625 6    522774.57921        12.000           0.500
  23447828.925    -4085144.490 5  -3183220.86521        10.250           0.344
 91  7 27  0 43 29.9990000  0  5G 3G16G17G20G23
  20141016.448    -2466389.317 7  -1710347.11123        25.750           2.813
  22189851.909     -148918.162 7   -116040.88021        20.250           1.406
  20396016.839    -2648371.180 7  -2063664.80223        23.000           3.313
  23065513.745      686792.450 6    535159.27121        12.500           0.438
  23430250.862    -4177516.970 5  -3255199.26921        10.500           0.375
 91  7 27  0 43 44.9990000  0  5G 3G16G17G20G23
  20132037.542    -2513579.960 7  -1747119.02723        25.500           2.813
  22189608.308     -150197.503 6   -117037.78721        19.750           1.438
  20385130.464    -2705586.670 7  -2108248.28523        23.250           3.250
  23068544.550      702707.424 6    547560.46821        12.250           0.563
  23412676.847    -4269866.383 5  -3327159.69421        10.250           0.438
 91  7 27  0 43 59.9990000  0  5G 3G16G17G20G23
  20123071.253    -2560696.784 7  -1783833.43223        25.750           2.656
  22189381.362     -151391.355 7   -117968.08322        20.250           1.531
  20374257.933    -2762729.306 7  -2152774.98823        23.500           3.406
  23071581.636      718646.969 5    559980.79621        11.000           0.563
  23395106.597    -4362188.474 5  -3399098.82421         9.750           0.406
 91  7 27  0 44 14.9990000  0  5G 3G16G17G20G23
  20114117.628    -2607741.962 7  -1820492.00223        25.500           2.563
  22189169.956     -152502.637 7   -118834.03321        20.000           1.438
  20363394.230    -2819801.393 7  -2197246.72323        23.250           3.438
  23074616.315      734608.231 6    572418.03221        12.250           0.594
  23377543.901    -4454485.631 5  -3471018.51821         9.250           0.438
 91  7 27  0 44 29.9990000  0  5G 3G16G17G20G23
  20105179.792    -2654712.380 7  -1857092.32823        25.750           2.563
  22188978.894     -153528.691 7   -119633.58421        20.000           1.469
  20352548.589    -2876799.903 7  -2241661.12424        23.250           3.500
  23077656.042      750593.983 6    584874.36221        12.250           0.500
  23359976.605    -4546754.408 5  -3542916.12521         9.000           0.531
 91  7 27  0 44 44.9990000  0  5G 3G16G17G20G23
  20096256.558    -2701606.087 7  -1893632.87823        25.750           2.594
  22188798.659     -154468.089 6   -120365.60122        19.500           1.563
  20341716.206    -2933723.115 7  -2286016.86023        23.250           3.469
  23080703.667      766605.416 6    597350.70621        12.250           0.469
  23342434.003    -4638992.679 5  -3614789.93521        10.500           0.438
 91  7 27  0 44 59.9980000  0  5G 3G16G17G20G23
  20087347.186    -2748423.749 7  -1930114.16123        25.750           2.813
  22188630.287     -155324.620 6   -121033.04722        19.750           1.625
  20330898.443    -2990571.202 7  -2330314.04723        22.750           3.406
  23083751.623      782637.287 5    609842.98521        11.750           0.563
  23324886.600    -4731197.918 5  -3686638.03821        11.250           0.500
 91  7 27  0 45 14.9980000  0  5G 3G16G17G20G23
  20078452.287    -2795172.810 7  -1966541.99423        26.250           2.594
  22188484.693     -156100.363 6   -121637.53721        19.500           1.438
  20320095.342    -3047353.576 7  -2374560.03323        23.250           3.406
  23086807.467      798689.807 5    622351.34021        11.500           0.500
  23307344.178    -4823383.941 6  -3758471.14821        12.000           0.531
 91  7 27  0 45 29.9980000  0  5G 3G16G17G20G23
  20069570.115    -2841851.024 7  -2002914.62423        25.750           2.719
  22188355.232     -156796.755 6   -122180.20022        19.250           1.531
  20309301.248    -3104067.471 7  -2418752.65624        23.250           3.531
  23089865.748      814760.634 5    634873.95021        11.750           0.688
  23289807.490    -4915545.214 6  -3830284.97121        12.250           0.625
 91  7 27  0 45 44.9980000  0  5G 3G16G17G20G23
  20060700.412    -2888457.711 7  -2039231.52123        26.000           2.688
  22188232.951     -157413.553 6   -122660.84522        18.750           1.500
  20298523.607    -3160711.742 7  -2462891.03424        24.000           3.531
  23092933.709      830850.057 6    647411.05721        12.000           0.625
  23272266.936    -5007680.668 5  -3902078.68121        11.000           0.531
 91  7 27  0 45 59.9980000  0  5G 3G16G17G20G23
  20051845.045    -2934989.065 7  -2075489.71123        25.500           2.594
  22188136.693     -157947.685 6   -123077.07122        19.250           1.500
  20287754.482    -3217283.126 7  -2506972.61224        23.500           3.531
  23095993.147      846961.043 5    659964.96021        11.250           0.563
  23254742.654    -5099786.667 6  -3973849.44121        12.250           0.563
 91  7 27  0 46 14.9980000  0  5G 3G16G17G20G23
  20043004.357    -2981448.358 7  -2111691.75023        25.500           2.625
  22188045.232     -158402.765 6   -123431.70121        19.000           1.313
  20277006.240    -3273785.358 7  -2551000.31024        24.500           3.500
  23099059.287      863089.857 5    672532.75921        11.000           0.469
  23237218.373    -5191866.677 5  -4045599.95921        11.250           0.531
 91  7 27  0 46 29.9980000  0  5G 3G16G17G20G23
  20034178.475    -3027837.064 7  -2147838.79423        25.750           2.688
  22187974.787     -158780.634 6   -123726.16421        19.500           1.375
  20266265.920    -3330220.240 7  -2594975.52424        23.750           3.531
  23102138.514      879234.437 6    685112.84221        12.000           0.438
  23219704.857    -5283921.998 5  -4117331.23821        11.250           0.688
 91  7 27  0 46 44.9980000  0  5G 3G16G17G20G23
  20025363.764    -3074152.623 7  -2183928.83123        26.000           2.563
  22187920.631     -159079.158 6   -123958.79221        19.250           1.406
  20255540.990    -3386585.013 7  -2638896.10823        23.250           3.250
  23105219.287      895396.926 6    697706.90221        12.250           0.469
  23202190.787    -5375949.719 5  -4189040.98521        11.250           0.594
 91  7 27  0 46 59.9980000  0  5G 3G16G17G20G23
  20016566.607    -3120389.464 7  -2219957.53223        26.000           2.563
  22187880.147     -159293.412 6   -124125.77121        19.000           1.469
  20244827.436    -3442874.312 7  -2682757.88523        23.250           3.469
  23108291.779      911582.197 6    710318.68421        12.250           0.563
  23184683.912    -5467944.195 5  -4260724.84621        11.250           0.719
 91  7 27  0 47 14.9980000  0  5G 3G16G17G20G23
  20007780.920    -3166547.517 7  -2255924.84823        25.500           2.625
  22187855.662     -159423.881 6                        19.500
  20234132.451    -3499088.373 7  -2726561.03623        23.750           3.375
  23111373.045      927789.654 5    722947.76421        11.500           0.500
  23167182.029    -5559905.455 5  -4332382.81421        10.750           0.656
 91  7 27  0 47 29.9980000  0  5G 3G16G17G20G23
  19999012.318    -3212628.463 7  -2291832.07723        25.250           2.656
  22187842.584     -159472.503 6                        18.500
  20223447.389    -3555228.830 7  -2770306.82324        24.250           3.594
  23114465.334      944017.474 6    735592.71021        12.000           0.531
  23149691.912    -5651834.686 5  -4404015.83721        11.000           0.531
 91  7 27  0 47 44.9980000  0  5G 3G16G17G20G23
  19990257.568    -3258631.596 7  -2327678.66823        25.500           2.531
  22187852.092     -159439.458 6                        19.250
  20212779.397    -3611295.680 7  -2813995.26523        23.750           3.406
  23117557.912      960265.353 6    748253.27421        12.500           0.656
  23132204.600    -5743731.675 5  -4475623.75021        10.250           0.656
 91  7 27  0 47 59.9980000  0  5G 3G16G17G20G23
  19981520.857    -3304559.921 7  -2363466.97423        26.500           2.500
  22187872.225     -159328.006 6                        19.250
  20202123.076    -3667291.762 7  -2857628.56323        24.250           3.438
  23120650.631      976530.148 5    760927.02721        11.000           0.469
  23114726.975    -5835599.021 5  -4547208.54721        10.750           0.469
 91  7 27  0 48 14.9980000  0  5G 3G16G17G20G23
  19972792.193    -3350409.435 7  -2399193.87123        25.750           2.531
  22187907.795     -159134.940 6                        18.500
  20191480.787    -3723213.593 7  -2901204.00023        24.250           3.344
  23123751.170      992815.002 5    773616.41921        11.500           0.531
  23097247.498    -5927432.878 5  -4618767.23921        10.250           0.594
 91  7 27  0 48 29.9980000  0  5G 3G16G17G20G23
  19964086.123    -3396180.659 7  -2434859.75823        25.750           2.656
  22187960.607     -158860.897 6                        18.250
  20180853.053    -3779061.729 7  -2944722.01923        24.750           3.438
  23126851.193     1009119.034 5    786320.74321        11.000           0.500
  23079779.420    -6019233.484 5  -4690300.02121        11.250           0.469
 91  7 27  0 48 44.9980000  0  5G 3G16G17G20G23
  19955386.443    -3441876.694 7  -2470467.05423        25.000           2.688
  22188025.959     -158509.704 6   -123515.24321        18.250           1.281
  20170241.686    -3834839.281 7  -2988185.03123        24.750           3.438
  23129957.459     1025438.638 5    799037.20621        10.750           0.438
  23062313.928    -6111003.741 5  -4761809.16921        11.500           0.563
 91  7 27  0 48 59.9980000  0  5G 3G16G17G20G23
  19946707.498    -3487495.537 7  -2506014.19523        25.500           2.719
  22188110.170     -158079.941 6   -123180.37721        18.000           1.219
  20159640.217    -3890544.753 7  -3031591.87323        25.250           3.469
  23133068.772     1041774.827 5    811766.56221        10.500           0.469
  23044856.490    -6202741.970 5  -4833293.37521        11.750           0.563
 91  7 27  0 49 14.9980000  0  5G 3G16G17G20G23
  19938040.193    -3533034.786 7  -2541499.31623        25.000           2.750
  22188207.467     -157569.019 6   -122782.26521        19.000           1.313
  20149055.381    -3946175.430 7  -3074940.44124        25.250           3.563
  23136184.459     1058130.307 5    824510.97721        11.000           0.406
  23027411.654    -6294444.842 6  -4904750.02221        12.750           0.500
 91  7 27  0 49 29.9980000  0  5G 3G16G17G20G23
  19929390.678    -3578493.266 7  -2576921.51223        24.750           2.594
  22188320.686     -156977.417 6   -122321.30621        19.250           1.250
  20138480.803    -4001731.204 7  -3118230.63924        24.750           3.500
  23139295.381     1074504.721 5    837270.14821        10.500           0.406
  23009969.381    -6386112.105 6  -4976178.92321        12.500           0.500
 91  7 27  0 49 44.9980000  0  5G 3G16G17G20G23
  19920754.131    -3623877.631 7  -2612285.94523        25.500           2.531
  22188444.959     -156311.536 6   -121802.47121        18.500           1.281
  20127922.576    -4057218.352 7  -3161467.36524        24.750           3.563
  23142415.154     1090891.382 5    850038.84121        11.250           0.438
  22992523.381    -6477749.838 6  -5047584.80421        12.000           0.531
 91  7 27  0 49 59.9980000  0  5G 3G16G17G20G23
  19912134.178    -3669184.863 7  -2647590.27423        26.000           2.563
  22188586.654     -155569.064 6   -121223.92821        18.750           1.250
  20117376.232    -4112634.117 7  -3204648.46824        24.000           3.625
  23145532.662     1107292.773 5    862819.03321        11.000           0.313
  22975094.506    -6569355.007 6  -5118965.32021        12.000           0.563
 91  7 27  0 50 14.9980000  0  5G 3G16G17G20G23
  19903524.779    -3714417.008 7  -2682836.09923        25.000           2.625
  22188741.240     -154752.490 6   -120587.65921        18.500           1.313
  20106844.397    -4167980.931 7  -3247775.83724        25.250           3.625
  23148660.420     1123706.334 5    875608.71121        10.750           0.313
  22957666.318    -6660929.592 6  -5190322.00921        12.000           0.531
 91  7 27  0 50 29.9980000  0  5G 3G16G17G20G23
  19894933.373    -3759573.270 7  -2718022.80023        25.000           2.531
  22188913.787     -153861.495 6   -119893.40121        18.750           1.344
  20096328.693    -4223258.083 7  -3290848.92824        25.750           3.500
  23151788.615     1140132.145 5    888407.91121        11.000           0.406
  22940247.295    -6752472.877 5  -5261654.31321        11.500           0.469
 91  7 27  0 50 44.9980000  0  5G 3G16G17G20G23
  19886357.561    -3804642.932 7  -2753142.00923        24.750           2.563
  22189098.045     -152885.893 6   -119133.21221        18.500           1.344
  20085824.303    -4278454.973 7  -3333859.48023        25.750           3.406
  23154913.311     1156580.412 5    901224.62721        11.000           0.469
  22922831.967    -6843973.953 5  -5332953.69321        11.500           0.531
 91  7 27  0 50 59.9980000  0  5G 3G16G17G20G23
  19877796.732    -3849626.623 7  -2788194.23623        25.250           2.750
  22189298.826     -151826.825 6   -118307.98721        18.250           1.281
  20075335.592    -4333572.565 7  -3376808.24523        26.000           3.344
  23158050.748     1173049.947 5    914057.90821        10.250           0.375
  22905427.803    -6935433.133 5  -5404220.47021        11.250           0.500
 91  7 27  0 51 14.9980000  0  5G 3G16G17G20G23
  19869251.732    -3894526.843 7  -2823181.41723        24.500           2.688
  22189515.100     -150687.359 6   -117420.11321        18.250           1.313
  20064861.287    -4388613.529 7  -3419697.28623        26.250           3.375
  23161193.654     1189537.905 6    926905.52021        12.000           0.500
  22888032.725    -7026852.952 5  -5475456.56321        11.000           0.469
 91  7 27  0 51 29.9980000  0  5G 3G16G17G20G23
  19860723.545    -3939342.007 7  -2858102.32123        25.000           2.719
  22189749.029     -149466.278 6   -116468.64421        18.000           1.188
  20054402.881    -4443576.730 7  -3462525.74523        26.250           3.281
  23164331.311     1206045.066 5    939768.12221        11.000           0.281
  22870642.670    -7118231.792 5  -5546660.71521        11.250           0.563
 91  7 27  0 51 44.9980000  0  5G 3G16G17G20G23
  19852210.084    -3984070.882 7  -2892955.98523        24.750           2.594
  22189995.803     -148162.932 6   -115453.07421        18.000           1.219
  20043957.404    -4498460.819 7  -3505292.56123        25.750           3.281
  23167471.959     1222572.146 5    952646.24721        10.000           0.438
  22853265.850    -7209568.495 6  -5617832.04621        12.000           0.563
 91  7 27  0 51 59.9980000  0  5G 3G16G17G20G23
  19843719.092    -4028714.306 7  -2927743.05823        25.500           2.625
  22190259.420     -146778.606 6   -114374.39821        17.750           1.094
  20033526.709    -4553266.857 7  -3547998.55423        25.000           3.313
  23170620.576     1239117.997 5    965538.96921        10.500           0.344
  22835892.772    -7300863.595 6  -5688970.94421        12.250           0.469
 91  7 27  0 52 14.9980000  0  5G 3G16G17G20G23
  19835237.982    -4073271.450 7  -2962462.92023        24.750           2.563
  22190538.998     -145313.090 6   -113232.45721        18.250           1.250
  20023113.459    -4607994.400 7  -3590643.37823        25.000           3.375
  23173776.818     1255682.722 5    978446.43521        10.750           0.438
  22818522.967    -7392116.433 6  -5760076.94721        12.250           0.594
 91  7 27  0 52 29.9980000  0  5G 3G16G17G20G23
  19826773.045    -4117750.140 7  -2997121.63323        24.250           2.500
  22190829.826     -143774.518 6   -112033.59821        18.000           1.344
  20012714.193    -4662651.250 7  -3633233.12223        25.500           3.313
  23176929.139     1272257.975 5    991362.08221        11.500           0.500
  22801160.756    -7483334.729 5  -5831155.99821        11.250           0.625
 91  7 27  0 52 44.9980000  0  5G 3G16G17G20G23
  19818323.740    -4162151.253 7  -3031719.89723        25.000           2.531
  22191140.006     -142164.094 6   -110778.75721        18.500           1.156
  20002323.420    -4717238.412 7  -3675768.56523        24.750           3.469
  23180090.170     1288842.424 5   1004284.89621        11.250           0.469
  22783816.022    -7574518.786 6  -5902208.36621        12.000           0.688
 91  7 27  0 52 59.9980000  0  5G 3G16G17G20G23
  19809890.881    -4206468.057 7  -3066252.47522        25.500           2.469
  22191459.225     -140476.502 6   -109463.75821        18.000           1.250
  19991951.397    -4771750.098 7  -3718245.18823        24.500           3.438
  23183242.045     1305441.858 5   1017219.38021        10.500           0.438
  22766469.709    -7665662.498 6  -5973229.30621        13.000           0.625
 91  7 27  0 53 14.9980000  0  5G 3G16G17G20G23
  19801472.959    -4250706.816 7  -3100724.23323        25.250           2.563
  22191794.076     -138717.569 6   -108093.17621        18.500           1.344
  19981592.232    -4826192.073 7  -3760667.49723        25.000           3.313
  23186401.732     1322050.036 5   1030160.66721        11.250           0.469
  22749135.006    -7756771.313 6  -6044223.08521        12.750           0.594
 91  7 27  0 53 29.9980000  0  5G 3G16G17G20G23
  19793067.443    -4294866.830 7  -3135134.63423        25.000           2.656
  22192141.998     -136887.647 6   -106667.29321        17.750           1.219
  19971245.350    -4880564.148 7  -3803035.33624        25.250           3.500
  23189566.022     1338666.761 5   1043108.64021        11.250           0.344
  22731802.053    -7847845.077 6  -6115189.53021        12.500           0.531
 91  7 27  0 53 44.9980000  0  5G 3G16G17G20G23
  19784682.334    -4338945.392 7  -3169481.56123        25.250           2.656
  22192506.834     -134983.940 6   -105183.91221        18.500           1.219
  19960912.412    -4934863.546 7  -3845346.53723        25.250           3.469
  23192735.201     1355294.400 5   1056065.12121        10.750           0.469
  22714478.475    -7938880.628 5  -6186126.22121        11.500           0.594
 91  7 27  0 53 59.9980000  0  5G 3G16G17G20G23
  19776307.834    -4382944.052 7  -3203766.21823        24.000           2.563
  22192879.928     -133008.752 6   -103644.83121        18.250           1.313
  19950593.068    -4989092.032 7  -3887602.49423        26.250           3.313
  23195895.881     1371930.669 5   1069028.28021        10.250           0.594
  22697162.842    -8029879.516 5  -6257034.31721        11.500           0.719
 91  7 27  0 54 14.9980000  0  5G 3G16G17G20G23
  19767949.318    -4426865.337 7  -3237990.59623        24.500           2.594
  22193267.311     -130965.185 6   -102052.46921        18.250           1.156
  19940286.639    -5043252.474 7  -3929805.42623        26.500           3.344
  23199062.607     1388572.604 5   1081995.87821         9.750           0.500
  22679854.373    -8120844.152 5  -6327915.71221        11.500           0.688
 91  7 27  0 54 29.9980000  0  5G 3G16G17G20G23
  19759608.443    -4470701.068 7  -3272148.31223        24.500           2.625
  22193669.209     -128845.558 6   -100400.83021        18.000           1.219
  19929994.232    -5097337.033 7  -3971949.23023        26.000           3.344
  23202235.693     1405227.725 5   1094973.76121         9.250           0.500
  22662548.107    -8211766.345 6  -6398764.05621        12.250           0.531
 91  7 27  0 54 44.9980000  0  5G 3G16G17G20G23
  19751285.436    -4514453.048 7  -3306240.75923        25.500           2.531
  22194090.803     -126652.002 6    -98691.59221        17.750           1.344
  19919717.623    -5151347.646 7  -4014035.41023        26.250           3.375
  23205397.342     1421893.844 5   1107960.18721         8.250           0.500
  22645258.740    -8302647.994 6  -6469580.82021        12.500           0.594
 91  7 27  0 54 59.9970000  0  5G 3G16G17G20G23
  19742974.259    -4558121.754 7  -3340268.32422        25.250           2.469
  22194522.681     -124389.116 6    -96928.33221        17.750           1.313
  19909453.899    -5205284.151 7  -4056063.84623        25.750           3.438
  23208574.610     1438565.904 5   1120951.23121         9.500           0.469
  22627970.024    -8393486.081 6  -6540363.62321        12.750           0.719
 91  7 27  0 55 14.9970000  0  5G 3G16G17G20G23
  19734678.563    -4601706.902 7  -3374230.77623        25.000           2.500
  22194966.962     -122050.937 6    -95106.40921        17.750           1.313
  19899203.720    -5259148.423 7  -4098035.99523        26.250           3.406
  23211753.149     1455251.322 5   1133952.73121         9.000           0.500
  22610691.290    -8484286.860 6  -6611117.38521        12.250           0.625
 91  7 27  0 55 29.9970000  0  5G 3G16G17G20G23
  19726404.134    -4645208.518 7  -3408128.13523        24.750           2.563
  22195424.837     -119640.679 6    -93228.30921        17.250           1.250
  19888969.907    -5312939.556 7  -4139951.15923        27.500           3.406
  23214932.931     1471945.937 5   1146961.36321         8.750           0.438
  22593422.774    -8575047.080 6  -6681839.51621        12.250           0.625
 91  7 27  0 55 44.9970000  0  5G 3G16G17G20G23
  19718140.462    -4688629.945 7  -3441963.01523        24.500           2.563
  22195898.071     -117162.202 6    -91297.05521        18.000           1.125
  19878743.556    -5366661.114 7  -4181812.10123        26.000           3.375
  23218106.204     1488645.764 5   1159974.05721        10.000           0.344
  22576150.384    -8665769.778 6  -6752532.40621        12.000           0.688
 91  7 27  0 55 59.9970000  0  5G 3G16G17G20G23
  19709890.462    -4731968.405 7  -3475733.23123        24.500           2.563
  22196382.407     -114613.079 6    -89310.74121        17.250           1.156
  19868535.806    -5420310.287 7  -4223616.64123        26.500           3.438
  23221283.415     1505353.073 5   1172992.62321         9.250           0.250
  22558895.392    -8756451.983 6  -6823193.76421        12.500           0.688
 91  7 27  0 56 14.9970000  0  5G 3G16G17G20G23
  19701660.892    -4775223.132 7  -3509438.21323        25.500           2.594
  22196877.407     -111993.192 6    -87269.30721        16.250           1.156
  19858340.165    -5473886.849 7  -4265364.59823        26.750           3.469
  23224464.751     1522068.130 5   1186017.19321         9.250           0.344
  22541645.462    -8847093.012 6  -6893823.01621        12.250           0.594
 91  7 27  0 56 29.9970000  0  5G 3G16G17G20G23
  19693444.923    -4818392.441 7  -3543076.62923        25.000           2.594
  22197389.837     -109301.871 6    -85172.19621        16.250           1.125
  19848158.782    -5527389.345 7  -4307054.85123        26.500           3.438
  23227653.063     1538791.911 5   1199048.54721        10.000           0.313
  22524406.782    -8937691.229 6  -6964418.92721        13.000           0.750
 91  7 27  0 56 44.9970000  0  5G 3G16G17G20G23
  19685246.767    -4861476.490 7  -3576648.61023        25.500           2.500
  22197920.587     -106539.243 6    -83019.53321        16.750           1.094
  19837992.938    -5580817.888 7  -4348687.47224        26.250           3.531
  23230836.923     1555524.048 5   1212086.41221         9.000           0.313
  22507175.720    -9028246.370 6  -7034981.26721        13.250           0.813
 91  7 27  0 56 59.9970000  0  5G 3G16G17G20G23
  19677064.118    -4904477.936 7  -3610156.23022        25.500           2.438
  22198454.790     -103708.485 6    -80813.76721        16.250           1.094
  19827837.063    -5634175.286 7  -4390264.65324        25.750           3.563
  23234019.884     1572261.230 5   1225128.23021         8.500           0.344
  22489957.532    -9118761.207 6  -7105512.21921        14.250           0.750
 91  7 27  0 57 14.9970000  0  5G 3G16G17G20G23
  19668899.313    -4947390.810 7  -3643594.83623        25.250           2.531
  22199005.259     -100804.542 6    -78550.99321        16.250           1.094
  19817697.860    -5687456.133 7  -4431782.19124        25.500           3.531
  23237212.876     1589008.339 5   1238177.78221        10.500           0.375
  22472741.188    -9209230.118 6  -7176007.36321        13.750           0.688
 91  7 27  0 57 29.9970000  0  5G 3G16G17G20G23
  19660746.438    -4990221.980 7  -3676969.76823        25.000           2.500
  22199573.165      -97834.261 6    -76236.49821        16.750           1.000
  19807571.634    -5740667.220 7  -4473245.36224        25.500           3.531
  23240399.610     1605758.596 5   1251229.77821        10.750           0.344
  22455527.688    -9299659.330 6  -7246471.59421        12.500           0.750
 91  7 27  0 57 44.9970000  0  5G 3G16G17G20G23
  19652612.915    -5032968.783 7  -3710278.96023        24.500           2.594
  22200154.298      -94795.637 6    -73868.75321        17.500           1.094
  19797459.188    -5793806.114 7  -4514652.28124        25.250           3.719
  23243591.431     1622514.188 5   1264285.96121        11.250           0.344
  22438328.267    -9390046.075 6  -7316902.72121        12.750           0.625
 91  7 27  0 57 59.9970000  0  5G 3G16G17G20G23
  19644493.892    -5075632.581 7  -3743523.46523        24.500           2.625
  22200745.063      -91690.531 6    -71449.22121        16.750           1.188
  19787364.110    -5846874.559 7  -4556004.30524        26.250           3.625
  23246778.345     1639272.889 5   1277344.50521        10.750           0.250
  22421133.478    -9480391.851 6  -7387301.93521        13.000           0.750
 91  7 27  0 58 14.9970000  0  5G 3G16G17G20G23
  19636394.165    -5118213.408 7  -3776703.32823        25.500           2.531
  22201348.181      -88519.600 6    -68978.39721        16.500           1.125
  19777276.509    -5899873.336 7  -4597302.04124        25.750           3.688
  23249962.181     1656033.826 5   1290404.80721        10.500           0.313
  22403953.110    -9570696.986 6  -7457669.48121        14.000           0.719
 91  7 27  0 58 29.9970000  0  5G 3G16G17G20G23
  19628306.462    -5160709.254 7  -3809816.97023        25.500           2.594
  22201963.376      -85280.993 6    -66454.83621        16.750           1.156
  19767206.532    -5952799.933 7  -4638543.53124        26.000           3.500
  23253151.313     1672799.051 5   1303468.49321         9.500           0.344
  22386777.048    -9660958.842 6  -7528003.28821        14.250           0.656
 91  7 27  0 58 44.9970000  0  5G 3G16G17G20G23
  19620235.907    -5203113.779 7  -3842859.45123        25.500           2.656
  22202592.095      -81969.142 6    -63874.19321        16.000           1.156
  19757151.173    -6005647.958 7  -4679723.80124        26.500           3.656
  23256343.478     1689574.451 5   1316540.04421         9.250           0.375
  22369617.290    -9751170.910 6  -7598298.31721        15.000           0.719
 91  7 27  0 58 59.9970000  0  5G 3G16G17G20G23
  19612183.173    -5245430.964 7  -3875833.88323        24.750           2.531
  22203238.306      -78588.608 6    -61240.04821        17.250           1.188
  19747106.696    -6058422.102 7  -4720846.50324        26.000           3.625
  23259538.579     1706355.187 5   1329615.77421         9.750           0.469
  22352453.649    -9841337.335 6  -7668557.78321        14.500           0.719
 91  7 27  0 59 14.9970000  0  5G 3G16G17G20G23
  19604148.517    -5287656.520 7  -3908736.91723        24.750           2.688
  22203893.337      -75135.614 6    -58549.42921        16.500           1.094
  19737078.860    -6111118.363 7  -4761908.51923        26.750           3.469
  23262736.704     1723144.918 5   1342698.53421         9.000           0.438
  22335306.454    -9931453.832 6  -7738778.34021        14.000           0.781
 91  7 27  0 59 29.9970000  0  5G 3G16G17G20G23
  19596128.806    -5329793.548 7  -3941570.96223        24.500           2.563
  22204565.993      -71613.654 6    -55805.07621        16.750           1.094
  19727065.470    -6163739.898 7  -4802912.30323        26.750           3.438
  23265928.259     1739939.942 5   1355785.37721         8.000           0.438
  22318162.173   -10021523.497 6  -7808962.39921        13.250           0.750
 91  7 27  0 59 44.9970000  0  5G 3G16G17G20G23
  19588127.751    -5371845.101 7  -3974338.39823        24.500           2.656
  22205247.618      -68026.008 6    -53009.52821        16.250           1.156
  19717065.267    -6216289.630 7  -4843860.13723        26.250           3.469
  23269127.720     1756737.148 5   1368873.92821         8.500           0.500
  22301029.298   -10111548.837 6  -7879111.92521        13.500           0.813
 91  7 27  0 59 59.9970000  0  5G 3G16G17G20G23
  19580140.876    -5413813.743 7  -4007041.22823        25.250           2.656
  22205939.595      -64376.321 6    -50165.66321        16.500           1.125
  19707077.993    -6268770.704 7  -4884754.47123        25.500           3.375
  23272326.212     1773533.028 5   1381961.45921         8.500           0.375
  22283907.860   -10201532.847 6  -7949229.25421        14.000           0.594
 91  7 27  1  0 14.9970000  0  5G 3G16G17G20G23
  19572170.837    -5455693.028 7  -4039674.43823        25.500           2.531
  22206651.454      -60658.248 6    -47268.49121        17.500           1.031
  19697105.853    -6321176.543 7  -4925590.17924        25.750           3.594
  23275521.353     1790333.816 5   1395052.81521         8.000           0.500
  22266795.704   -10291468.527 6  -8019308.91521        13.250           0.813
 91  7 27  1  0 29.9970000  0  5G 3G16G17G20G23
  19564220.001    -5497486.831 7  -4072241.04023        26.250           2.688
  22207371.892      -56876.354 6    -44321.57621        16.750           0.969
  19687146.485    -6373511.481 7  -4966370.63624        26.000           3.656
  23278719.657     1807135.068 5   1408144.49621         8.000           0.500
  22249691.235   -10381360.152 6  -8089354.25521        13.750           0.750
 91  7 27  1  0 44.9970000  0  5G 3G16G17G20G23
  19556280.837    -5539194.622 7  -4104740.62623        24.750           2.719
  22208101.149      -53030.333 6    -41324.70121        16.250           1.125
  19677203.821    -6425775.142 7  -5007095.55524        27.250           3.625
  23281915.259     1823936.752 5   1421236.55221         7.750           0.469
  22232588.485   -10471206.746 6  -8159364.51021        13.500           0.844
 91  7 27  1  0 59.9970000  0  5G 3G16G17G20G23
  19548361.688    -5580813.804 7  -4137171.15523        24.500           2.656
  22208846.079      -49118.135 6    -38276.27621        16.250           1.188
  19667270.095    -6477964.962 7  -5047762.93624        26.750           3.563
  23285111.243     1840740.885 5   1434330.49021         7.500           0.500
  22215506.798   -10561005.623 6  -8229337.58821        15.000           0.844
 91  7 27  1  1 14.9970000  0  5G 3G16G17G20G23
  19540460.392    -5622344.075 7  -4169532.40323        25.250           2.656
  22209598.892      -45140.336 6    -35176.71821        15.500           1.031
  19657352.962    -6530081.271 7  -5088373.03624        26.750           3.500
  23288308.837     1857546.897 5   1447425.90521         8.000           0.375
  22198424.618   -10650756.920 6  -8299273.58721        14.500           0.875
 91  7 27  1  1 29.9970000  0  5G 3G16G17G20G23
  19532574.962    -5663782.641 7  -4201822.19223        25.750           2.500
  22210369.634      -41094.224 6    -32023.92621        15.750           1.031
  19647450.462    -6582121.375 7  -5128923.75623        26.750           3.313
  23291507.712     1874357.303 5   1460524.74921         8.500           0.313
  22181351.688   -10740457.312 6  -8369169.92321        13.500           0.938
 91  7 27  1  1 44.9970000  0  5G 3G16G17G20G23
  19524705.985    -5705133.986 7  -4234044.02423        25.500           2.500
  22211155.001      -36984.924 6    -28821.89321        15.750           1.156
  19637562.462    -6634089.872 7  -5169418.68223        27.250           3.344
  23294713.243     1891167.346 5   1473623.30521         8.000           0.313
  22164293.188   -10830111.219 6  -8439030.02321        13.750           0.813
 91  7 27  1  1 59.9970000  0  5G 3G16G17G20G23
  19516850.751    -5746398.839 7  -4266198.45223        25.500           2.500
  22211946.173      -32813.599 6    -25571.55821        16.000           1.063
  19627684.774    -6685987.681 7  -5209858.52323        26.750           3.344
  23297906.860     1907975.712 5   1486720.55321         9.250           0.344
  22147236.931   -10919719.314 6  -8508854.44821        12.750           0.906
 91  7 27  1  2 14.9970000  0  5G 3G16G17G20G23
  19509017.790    -5787569.781 7  -4298279.71423        26.000           2.563
  22212755.423      -28573.543 6    -22267.63821        16.000           1.000
  19617823.353    -6737807.710 7  -5250237.75923        26.000           3.406
  23301103.509     1924789.108 5   1499821.71021         9.250           0.313
  22130202.438   -11009274.243 6  -8578637.40821        14.250           0.938
 91  7 27  1  2 29.9970000  0  5G 3G16G17G20G23
  19501201.431    -5828648.753 7  -4330289.30623        26.000           2.656
  22213573.415      -24267.286 6    -18912.14221        15.250           1.094
  19607976.673    -6789552.128 7  -5290558.07323        26.000           3.406
  23304306.517     1941604.897 5   1512924.76421         9.000           0.188
  22113168.134   -11098778.159 6  -8648380.65421        14.000           0.938
 91  7 27  1  2 44.9970000  0  5G 3G16G17G20G23
  19493399.681    -5869638.586 7  -4362229.42923        25.000           2.563
  22214405.954      -19897.609 6    -15507.24221        16.250           1.031
  19598143.665    -6841223.349 7  -5330821.35223        26.000           3.406
  23307499.446     1958420.426 5   1526027.57721         8.500           0.250
  22096143.571   -11188232.984 6  -8718085.63721        14.750           0.969
 91  7 27  1  2 59.9970000  0  5G 3G16G17G20G23
  19485617.509    -5910536.940 7  -4394098.27923        24.500           2.594
  22215250.595      -15463.092 6    -12051.79321        16.750           1.125
  19588325.274    -6892819.687 7  -5371026.28623        26.000           3.313
  23310707.681     1975236.934 5   1539131.16921         9.500           0.250
  22079134.212   -11277636.896 6  -8787750.94521        14.750           0.813
 91  7 27  1  3 14.9970000  0  5G 3G16G17G20G23
  19477851.017    -5951347.387 7  -4425898.63123        25.000           2.563
  22216105.899      -10967.668 6     -8548.90821        15.500           0.969
  19578518.884    -6944345.249 7  -5411176.06623        26.250           3.219
  23313908.993     1992050.443 5   1552232.43221         9.500           0.250
  22062131.618   -11366993.388 6  -8857379.31921        14.000           1.094
 91  7 27  1  3 29.9970000  0  5G 3G16G17G20G23
  19470102.165    -5992070.954 7  -4457631.27823        25.000           2.563
  22216972.204       -6412.634 6     -4999.57221        16.500           0.938
  19568728.712    -6995800.702 7  -5451271.21423        26.250           3.281
  23317105.915     2008859.451 5   1565330.13721         9.500           0.219
  22045137.407   -11456302.926 6  -8926971.08021        14.500           1.125
 91  7 27  1  3 44.9970000  0  5G 3G16G17G20G23
  19462370.478    -6032706.453 7  -4489295.29923        25.250           2.500
  22217849.907       -1797.614 6     -1403.46221        15.500           1.000
  19558952.501    -7047185.461 7  -5491311.27723        26.750           3.281
  23320304.470     2025664.254 5   1578424.61521         9.500           0.219
  22028148.978   -11545564.653 6  -8996525.60321        14.250           1.000
 91  7 27  1  3 59.9970000  0  5G 3G16G17G20G23
  19454654.454    -6073247.832 7  -4520885.98823        25.000           2.531
  22218741.056        2882.706 6      2243.50121        15.500           1.063
  19549187.790    -7098493.876 7  -5531291.84923        27.000           3.375
  23323499.431     2042470.455 5   1591520.17321         8.500           0.250
  22011167.970   -11634772.626 6  -9066038.23121        14.000           0.875
 91  7 27  1  4 14.9970000  0  5G 3G16G17G20G23
  19446957.313    -6113698.593 7  -4552406.07223        25.750           2.531
  22219641.696        7625.211 6      5938.92021        15.500           0.938
  19539437.853    -7149728.874 7  -5571215.21923        26.500           3.219
  23326699.978     2059274.657 5   1604614.16621         8.250           0.188
  21994210.228   -11723929.623 6  -9135511.14821        14.750           0.938
 91  7 27  1  4 29.9970000  0  5G 3G16G17G20G23
  19439278.454    -6154053.842 7  -4583851.72623        25.500           2.594
  22220557.696       12433.724 6      9685.78921        15.250           0.969
  19529702.087    -7200886.217 7  -5611078.07723        27.000           3.250
  23329897.173     2076080.797 5   1617709.67221         8.000           0.219
  21977247.345   -11813031.199 6  -9204940.87021        14.500           0.844
 91  7 27  1  4 44.9970000  0  5G 3G16G17G20G23
  19431616.868    -6194317.532 7  -4615226.02223        25.500           2.594
  22221483.142       17303.677 6     13480.51721        15.750           1.094
  19519980.079    -7251970.176 7  -5650883.75823        26.750           3.344
  23333099.962     2092884.438 5   1630803.21621         8.000           0.250
  21960301.228   -11902081.074 6  -9274330.32321        14.750           0.906
 91  7 27  1  4 59.9960000  0  5G 3G16G17G20G23
  19423973.691    -6234486.078 7  -4646526.18723        25.500           2.594
  22222423.426       22235.189 6     17323.23021        16.250           1.000
  19510275.285    -7302976.568 7  -5690628.98923        26.000           3.250
  23336300.316     2109684.807 4   1643894.20321         6.500           0.219
  21943370.535   -11991072.338 6  -9343674.08921        15.000           1.031
 91  7 27  1  5 14.9960000  0  5G 3G16G17G20G23
  19416345.910    -6274566.015 7  -4677757.30123        25.000           2.500
  22223373.566       27227.352 6     21213.19421        15.500           1.063
  19500582.504    -7353913.585 7  -5730320.16323        26.500           3.313
  23339489.973     2126482.593 4   1656983.18921         6.500           0.219
  21926446.481   -12080017.945 6  -9412982.27321        15.000           1.000
 91  7 27  1  5 29.9960000  0  5G 3G16G17G20G23
  19408736.543    -6314555.867 7  -4708918.22623        26.250           2.563
  22224337.410       32278.352 6     25148.99221        15.500           0.969
  19490902.731    -7404779.158 7  -5769955.66923        25.750           3.375
  23342687.902     2143275.070 3   1670068.03821         6.000           0.281
  21909528.676   -12168912.973 6  -9482251.05921        15.000           0.969
 91  7 27  1  5 44.9960000  0  4G 3G16G17G23
  19401145.949    -6354452.418 7  -4740006.46223        26.500           2.531
  22225307.645       37390.680 6     29132.60221        15.750           0.844
  19481238.535    -7455570.243 7  -5809533.13024        26.750           3.531
  21892623.316   -12257754.318 6  -9551478.02021        15.000           0.844
 91  7 27  1  5 59.9960000  0  4G 3G16G17G23
  19393570.316    -6394254.155 7  -4771020.80423        26.000           2.594
  22226294.457       42565.203 6     33164.66321        15.250           0.938
  19471584.754    -7506285.718 7  -5849051.67324        26.250           3.594
  21875728.231   -12346540.481 6  -9620661.95921        15.500           0.938
 91  7 27  1  6 14.9960000  0  4G 3G16G17G23
  19386012.543    -6433964.167 7  -4801963.67123        25.000           2.531
  22227287.910       47798.704 6     37242.67921        15.500           0.938
  19461949.168    -7556928.624 7  -5888513.67123        27.250           3.344
  21858840.902   -12435274.194 6  -9689805.03621        15.750           0.969
 91  7 27  1  6 29.9960000  0  4G 3G16G17G23
  19378472.559    -6473584.968 7  -4832837.02123        24.750           2.531
  22228293.996       53088.040 6     41364.20921        15.000           0.969
  19452327.684    -7607501.812 7  -5927921.35224        27.500           3.563
  21841966.215   -12523957.961 6  -9758909.21321        15.250           1.031
 91  7 27  1  6 44.9960000  0  4G 3G16G17G23
  19370954.723    -6513111.917 7  -4863637.23823        26.000           2.719
  22229314.309       58437.408 6     45532.50421        15.500           0.875
  19442716.168    -7658001.141 7  -5967271.46924        26.750           3.563
  21825099.051   -12612587.069 6  -9827970.77821        15.000           0.938
 91  7 27  1  6 59.9960000  0  4G 3G16G17G23
  19363448.770    -6552543.725 7  -4894363.32023        25.250           2.656
  22230345.520       63847.277 6     49747.96921        15.750           0.875
  19433120.637    -7708425.165 7  -6006562.90924        27.000           3.625
  21808242.504   -12701160.289 6  -9896988.80321        14.750           1.063
 91  7 27  1  7 14.9960000  0  4G 3G16G17G23
  19355963.254    -6591881.258 7  -4925015.94323        25.750           2.750
  22231381.754       69317.058 6     54010.11121        15.000           0.906
  19423539.606    -7758774.737 7  -6045796.33324        26.500           3.656
  21791399.106   -12789678.020 6  -9965963.57821        15.500           0.906
 91  7 27  1  7 29.9960000  0  4G 3G16G17G23
  19348495.441    -6631129.112 7  -4955598.69022        25.750           2.438
  22232435.621       74841.129 6     58314.53521        15.250           0.844
  19413969.645    -7809054.926 7  -6084975.69524        26.250           3.688
  21774566.457   -12878145.243 6 -10034899.01721        15.750           0.938
 91  7 27  1  7 44.9960000  0  4G 3G16G17G23
  19341040.566    -6670281.003 7  -4986106.65523        24.250           2.563
  22233498.199       80425.132 6     62665.67121        15.250           0.719
  19404418.965    -7859259.844 7  -6124096.41124        27.500           3.594
  21757742.699   -12966555.584 6 -10103790.12821        15.500           0.938
 91  7 27  1  7 59.9960000  0  4G 3G16G17G23
  19333610.652    -6709339.602 7  -5016541.93222        25.000           2.438
  22234573.606       86066.233 6     67061.30221        15.750           0.719
  19394880.168    -7909392.058 7  -6163160.46624        27.500           3.531
  21740930.668   -13054911.179 6 -10172638.57121        15.750           0.969
 91  7 27  1  8 14.9960000  0  4G 3G16G17G23
  19326197.215    -6748300.763 7  -5046901.28023        24.000           2.563
  22235659.488       91767.327 6     71503.69021        16.500           0.906
  19385352.441    -7959448.325 7  -6202165.34324        27.500           3.594
  21724124.512   -13143208.714 6 -10241441.77021        15.500           0.969
 91  7 27  1  8 29.9960000  0  4G 3G16G17G23
  19318798.840    -6787171.328 7  -5077190.03723        24.000           2.594
  22236748.824       97522.241 6     75987.99521        15.250           0.844
  19375839.941    -8009434.596 7  -6241115.68223        27.500           3.469
  21707335.270   -13231453.726 6 -10310204.05721        15.250           1.125
 91  7 27  1  8 44.9960000  0  4G 3G16G17G23
  19311419.762    -6825952.518 7  -5107409.13723        24.750           2.688
  22237855.332      103328.499 6     80512.32221        14.500           0.750
  19366342.965    -8059352.772 7  -6280012.95423        27.500           3.469
  21690550.777   -13319648.096 6 -10378926.86921        15.250           1.000
 91  7 27  1  8 59.9960000  0  4G 3G16G17G23
  19304056.481    -6864638.266 7  -5137553.87423        25.000           2.656
  22238971.551      109192.177 6     85081.38421        14.750           0.844
  19356855.387    -8109197.034 7  -6318852.63623        27.000           3.469
  21673776.652   -13407785.217 6 -10447605.06921        15.750           0.969
 91  7 27  1  9 14.9960000  0  4G 3G16G17G23
  19296715.785    -6903226.709 7  -5167622.79223        24.750           2.563
  22240099.738      115114.514 6     89696.14921        14.750           0.875
  19347384.527    -8158965.579 7  -6357633.30923        27.000           3.438
  21657017.027   -13495863.429 6 -10516237.36821        15.750           1.094
 91  7 27  1  9 29.9960000  0  4G 3G16G17G23
  19289391.613    -6941720.966 7  -5197618.31422        24.750           2.375
  22241231.231      121091.957 6     94353.86021        14.000           0.938
  19337928.145    -8208661.892 7  -6396357.70123        27.000           3.469
  21640267.152   -13583885.795 6 -10584826.16021        16.250           1.031
 91  7 27  1  9 44.9960000  0  4G 3G16G17G23
  19282082.848    -6980119.099 7  -5227538.93423        25.000           2.563
  22242385.465      127125.617 6     99055.38221        13.750           0.688
  19328486.941    -8258284.379 7  -6435024.57323        27.500           3.406
  21623530.559   -13671850.652 6 -10653370.14121        16.500           1.031
 91  7 27  1  9 59.9960000  0  4G 3G16G17G23
  19274796.176    -7018418.887 7  -5257382.92822        25.250           2.438
  22243541.801      133217.685 6    103802.41921        13.750           0.750
  19319056.246    -8307830.687 7  -6473632.07423        27.500           3.406
  21606800.246   -13759755.101 6 -10721867.05021        16.000           1.063
 91  7 27  1 10 14.9960000  0  4G 3G16G17G23
  19267527.590    -7056622.923 7  -5287152.31723        25.250           2.563
  22244714.926      139364.855 6    108592.37821        13.750           0.844
  19309643.520    -8357303.594 7  -6512182.39223        27.500           3.438
  21590083.613   -13847601.853 6 -10790318.99321        15.500           1.094
 91  7 27  1 10 29.9960000  0  4G 3G16G17G23
  19260273.731    -7094728.998 7  -5316845.35523        25.250           2.594
  22245894.770      145568.426 6    113426.27221        13.750           0.719
  19300243.473    -8406701.631 7  -6550674.36623        27.250           3.406
  21573378.941   -13935388.809 6 -10858724.34221        15.500           0.906
 91  7 27  1 10 44.9960000  0  4G 3G16G17G23
  19253040.199    -7132743.314 7  -5346466.90323        25.500           2.688
  22247087.191      151822.395 6    118299.46721        13.750           0.781
  19290855.559    -8456030.364 7  -6589112.33923        27.500           3.438
  21556682.309   -14023121.682 6 -10927087.56021        15.500           1.031
 91  7 27  1 10 59.9960000  0  4G 3G16G17G23
  19245826.285    -7170659.749 7  -5376012.18023        25.500           2.656
  22248286.598      158132.033 6    123216.03421        13.500           0.719
  19281483.145    -8505284.493 7  -6627492.16523        27.500           3.469
  21540000.309   -14110794.661 6 -10995404.09421        16.000           1.188
 91  7 27  1 11 14.9960000  0  4G 3G16G17G23
  19238626.645    -7208481.668 7  -5405483.80023        24.250           2.500
  22249493.871      164493.717 6    128173.13521        12.500           0.688
  19272124.926    -8554467.408 8  -6665816.51323        28.000           3.406
  21523325.731   -14198410.896 6 -11063676.42321        16.250           1.031
 91  7 27  1 11 29.9960000  0  4G 3G16G17G23
  19231449.887    -7246206.292 7  -5434879.60723        24.500           2.563
  22250714.809      170909.669 6    133172.54321        13.500           0.781
  19262778.684    -8603576.559 8  -6704083.38223        28.000           3.438
  21506666.973   -14285967.358 6 -11131902.16921        16.250           1.188
 91  7 27  1 11 44.9960000  0  4G 3G16G17G23
  19224287.699    -7283835.062 7  -5464200.73622        24.750           2.438
  22251944.965      177378.085 6    138212.84121        13.750           0.844
  19253448.051    -8652613.569 8  -6742294.03523        28.250           3.344
  21490013.785   -14373465.610 6 -11200082.57021        16.000           1.156
 91  7 27  1 11 59.9960000  0  4G 3G16G17G23
  19217145.606    -7321367.614 7  -5493446.89022        25.000           2.469
  22253190.676      183898.578 6    143293.71221        13.250           0.844
  19244132.020    -8701578.235 8  -6780448.32023        28.000           3.406
  21473375.027   -14460905.269 6 -11268217.30521        16.000           1.188
 91  7 27  1 12 14.9960000  0  4G 3G16G17G23
  19210022.090    -7358800.716 7  -5522615.55123        25.000           2.500
  22254437.465      190474.460 6    148417.72421        13.250           0.781
  19234827.082    -8750467.531 8  -6818543.86723        28.000           3.344
  21456745.871   -14548282.854 6 -11336303.67721        15.750           1.094
 91  7 27  1 12 29.9960000  0  4G 3G16G17G23
  19202917.387    -7396131.410 7  -5551704.39723        24.750           2.594
  22255701.973      197107.882 6    153586.58621        13.250           0.813
  19225540.004    -8799278.557 8  -6856578.43323        28.250           3.375
  21440133.543   -14635595.295 6 -11404339.27921        15.750           1.125
 91  7 27  1 12 44.9960000  0  4G 3G16G17G23
  19195834.137    -7433360.014 7  -5580713.70023        24.500           2.531
  22256976.332      203797.854 6    158799.51921        14.250           0.750
  19216263.684    -8848012.033 7  -6894552.56423        27.250           3.344
  21423531.379   -14722842.917 6 -11472324.37521        16.500           1.250
 91  7 27  1 12 59.9960000  0  4G 3G16G17G23
  19188770.199    -7470487.533 7  -5609644.23323        24.500           2.688
  22258259.301      210542.840 6    164055.32221        14.000           0.813
  19207005.715    -8896668.953 7  -6932467.04124        27.500           3.500
  21406939.965   -14810026.767 6 -11540259.78221        16.750           1.219
 91  7 27  1 13 14.9960000  0  4G 3G16G17G23
  19181724.231    -7507510.657 7  -5638493.42923        24.750           2.594
  22259554.801      217345.816 6    169356.28521        14.250           0.813
  19197759.145    -8945246.431 7  -6970319.61323        26.750           3.469
  21390363.746   -14897143.439 6 -11608142.84721        17.000           1.250
 91  7 27  1 13 29.9960000  0  4G 3G16G17G23
  19174698.496    -7544437.986 7  -5667267.97322        26.000           2.438
  22260854.629      224197.919 6    174695.54921        13.500           0.750
  19188530.426    -8993753.041 7  -7008116.96524        26.750           3.531
  21373797.543   -14984201.081 6 -11675979.91021        16.250           1.188
 91  7 27  1 13 44.9960000  0  4G 3G16G17G23
  19167690.777    -7581260.525 7  -5695960.86422        25.000           2.406
  22262171.957      231107.278 6    180079.42621        14.750           0.844
  19179314.473    -9042180.387 7  -7045852.55324        27.250           3.531
  21357235.863   -15071191.158 6 -11743764.33321        15.000           1.344
 91  7 27  1 13 59.9960000  0  4G 3G16G17G23
  19160699.871    -7617980.366 7  -5724573.73922        24.250           2.469
  22263498.598      238071.593 6    185506.14721        13.750           0.906
  19170116.293    -9090530.528 8  -7083527.97624        28.000           3.656
  21340702.207   -15158115.325 6 -11811497.38521        16.500           1.344
 91  7 27  1 14 14.9960000  0  4G 3G16G17G23
  19153734.785    -7654597.741 7  -5753106.76123        24.750           2.500
  22264829.527      245090.411 6    190975.30021        13.250           0.938
  19160929.246    -9138803.616 7  -7121143.35924        27.500           3.656
  21324173.590   -15244973.619 6 -11879179.11121        16.750           1.219
 91  7 27  1 14 29.9960000  0  4G 3G16G17G23
  19146784.840    -7691113.544 7  -5781560.64023        24.250           2.500
  22266176.184      252162.320 6    196485.83321        13.000           0.844
  19151757.988    -9187001.028 8  -7158699.77724        28.000           3.531
  21307656.059   -15331767.054 6 -11946810.30121        16.750           1.188
 91  7 27  1 14 44.9950000  0  4G 3G16G17G23
  19139857.640    -7727520.757 7  -5809929.89523        24.750           2.531
  22267537.124      259290.695 6    202040.36421        14.250           0.813
  19142601.655    -9235115.051 7  -7196191.22924        27.250           3.594
  21291155.476   -15418485.329 6 -12014382.92121        16.750           1.313
 91  7 27  1 14 59.9950000  0  4G 3G16G17G23
  19132949.421    -7763828.823 7  -5838221.90223        25.750           2.594
  22268904.327      266471.606 6    207635.85421        13.500           0.844
  19133459.874    -9283156.617 7  -7233626.20724        27.500           3.688
  21274662.304   -15505144.103 6 -12081909.17421        16.750           1.281
 91  7 27  1 15 14.9950000  0  4G 3G16G17G23
  19126059.452    -7800038.913 7  -5866437.56323        25.750           2.500
  22270277.085      273700.369 6    213268.59821        13.500           0.719
  19124331.788    -9331126.653 7  -7271005.45524        27.250           3.656
  21258183.319   -15591741.315 6 -12149387.46321        16.500           1.375
 91  7 27  1 15 29.9950000  0  4G 3G16G17G23
  19119186.663    -7836147.763 7  -5894574.33023        24.750           2.531
  22271659.835      280979.562 6    218940.67821        13.250           0.781
  19115217.155    -9379022.539 7  -7308326.91324        27.750           3.688
  21241719.843   -15678273.982 6 -12216815.45421        17.000           1.313
 91  7 27  1 15 44.9950000  0  4G 3G16G17G23
  19112334.007    -7872157.313 7  -5922633.72423        24.500           2.563
  22273051.726      288306.876 6    224650.23121        13.250           0.906
  19106114.788    -9426845.772 7  -7345591.76424        27.250           3.781
  21225265.319   -15764743.702 6 -12284194.39421        17.000           1.344
 91  7 27  1 15 59.9950000  0  4G 3G16G17G23
  19105502.413    -7908065.882 7  -5950614.43322        24.750           2.375
  22274458.312      295684.104 6    230398.67121        13.000           0.813
  19097030.749    -9474594.637 7  -7382798.66324        27.750           3.813
  21208817.937   -15851148.290 6 -12351522.59021        16.250           1.375
 91  7 27  1 16 14.9950000  0  4G 3G16G17G23
  19098685.890    -7943869.564 7  -5978513.41122        24.250           2.406
  22275874.405      303114.063 6    236188.21021        13.250           0.813
  19087957.983    -9522265.935 7  -7419945.12324        27.500           3.781
  21192396.023   -15937484.155 6 -12418797.23521        17.250           1.281
 91  7 27  1 16 29.9950000  0  4G 3G16G17G23
  19091892.194    -7979575.299 7  -6006336.06723        25.000           2.500
  22277298.741      310589.490 6    242013.17921        13.500           0.813
  19078899.468    -9569866.835 7  -7457036.72224        27.500           3.844
  21175974.023   -16023758.124 6 -12486023.63021        16.750           1.313
 91  7 27  1 16 44.9950000  0  4G 3G16G17G23
  19085119.062    -8015176.017 7  -6034076.89522        25.750           2.438
  22278729.304      318117.618 6    247879.19921        12.000           0.781
  19069857.444    -9617389.818 7  -7494067.61224        27.500           3.781
  21159571.155   -16109962.879 6 -12553196.11821        17.000           1.313
 91  7 27  1 16 59.9950000  0  4G 3G16G17G23
  19078362.983    -8050673.800 7  -6061737.50622        25.000           2.438
  22280173.468      325695.296 6    253783.81821        12.250           0.688
  19060828.382    -9664837.657 8  -7531039.94724        28.000           3.563
  21143180.312   -16196100.612 6 -12620316.37221        16.500           1.406
 91  7 27  1 17 14.9950000  0  4G 3G16G17G23
  19071628.101    -8086066.632 7  -6089316.34422        24.750           2.469
  22281626.179      333324.180 6    259728.36021        12.500           0.594
  19051815.468    -9712208.454 8  -7567952.25324        28.500           3.625
  21126800.851   -16282169.157 6 -12687382.70421        16.500           1.344
 91  7 27  1 17 29.9950000  0  4G 3G16G17G23
  19064916.038    -8121352.309 7  -6116811.67923        25.000           2.531
  22283084.405      341005.752 6    265713.98021        12.250           0.750
  19042813.788    -9759500.293 7  -7604803.02924        27.750           3.656
  21110436.132   -16368166.433 6 -12754393.51621        17.250           1.469
 91  7 27  1 17 44.9950000  0  4G 3G16G17G23
  19058219.952    -8156533.111 7  -6144225.28523        24.750           2.531
  22284553.351      348737.225 5    271738.44021        11.750           0.813
  19033829.812    -9806715.581 7  -7641594.16124        27.750           3.750
  21094083.265   -16454094.395 6 -12821350.30521        17.750           1.375
 91  7 27  1 17 59.9950000  0  4G 3G16G17G23
  19051543.124    -8191608.420 7  -6171556.70822        24.250           2.344
  22286034.687      356519.373 6    277802.40921        12.250           0.656
  19024859.030    -9853853.792 8  -7678325.22724        28.000           3.938
  21077747.116   -16539952.318 6 -12888252.52621        17.500           1.406
 91  7 27  1 18 14.9950000  0  4G 3G16G17G23
  19044890.444    -8226576.228 7  -6198804.35122        25.500           2.469
  22287528.288      364353.284 6    283906.71421        12.000           0.625
  19015903.921    -9900913.134 7  -7714994.84124        27.750           3.906
  21061418.452   -16625738.328 6 -12955098.71422        17.250           1.500
 91  7 27  1 18 29.9950000  0  4G 3G16G17G23
  19038256.601    -8261438.165 7  -6225969.50523        25.500           2.531
  22289028.983      372236.829 6    290049.68221        12.250           0.656
  19006963.812    -9947895.489 7  -7751604.46524        27.500           3.656
  21045108.530   -16711453.899 6 -13021890.01621        17.250           1.375
 91  7 27  1 18 44.9950000  0  4G 3G16G17G23
  19031641.608    -8296201.241 7  -6253057.62422        25.250           2.469
  22290538.257      380163.001 6    296225.87721        12.250           0.563
  18998036.546    -9994807.517 7  -7788159.28924        27.250           3.719
  21028807.866   -16797105.503 6 -13088631.47821        17.500           1.344
 91  7 27  1 18 59.9950000  0  4G 3G16G17G23
  19025045.140    -8330859.482 7  -6280064.04923        24.500           2.531
  22292053.687      388136.751 6    302439.14121        12.750           0.594
  18989123.655   -10041644.201 7  -7824655.40124        27.250           3.656
  21012524.265   -16882687.608 6 -13155318.77421        17.750           1.375
 91  7 27  1 19 14.9950000  0  4G 3G16G17G23
  19018469.913    -8365415.859 7  -6306991.09423        24.500           2.563
  22293577.796      396154.785 5    308686.91921        11.500           0.688
  18980224.773   -10088408.757 7  -7861095.30724        27.500           3.719
  20996252.069   -16968203.086 6 -13221954.15521        18.250           1.438
 91  7 27  1 19 29.9950000  0  4G 3G16G17G23
  19011917.444    -8399867.542 7  -6333836.56222        25.500           2.469
  22295111.413      404219.728 6    314971.21921        12.250           0.750
  18971338.241   -10135097.594 7  -7897476.21524        26.250           3.594
  20979989.843   -17053648.748 6 -13288535.13021        18.250           1.469
 91  7 27  1 19 44.9950000  0  4G 3G16G17G23
  19005375.343    -8434217.980 7  -6360603.14523        24.250           2.531
  22296657.632      412327.765 6    321289.13221        12.750           0.781
  18962467.023   -10181714.956 7  -7933801.42724        26.250           3.531
  20963748.757   -17139028.175 6 -13355064.50021        19.500           1.469
 91  7 27  1 19 59.9950000  0  4G 3G16G17G23
  18998860.937    -8468468.091 7  -6387291.54922        25.000           2.375
  22298206.530      420477.300 5    327639.38521        11.750           0.563
  18953610.444   -10228262.119 7  -7970071.94224        26.250           3.625
  20947509.593   -17224342.130 6 -13421542.85821        19.000           1.375
 91  7 27  1 20 14.9950000  0  4G 3G16G17G23
  18992361.038    -8502617.732 7  -6413901.66422        24.500           2.406
  22299769.773      428668.185 6    334021.83721        12.250           0.625
  18944766.499   -10274739.022 7  -8006287.70824        26.500           3.625
  20931290.358   -17309590.418 6 -13487970.04821        18.750           1.406
 91  7 27  1 20 29.9950000  0  4G 3G16G17G23
  18985883.007    -8536666.237 7  -6440432.97122        25.000           2.344
  22301335.765      436900.732 6    340436.76921        12.750           0.656
  18935936.905   -10321145.106 7  -8042448.28524        26.750           3.625
  20915075.632   -17394772.196 6 -13554345.40322        17.750           1.531
 91  7 27  1 20 44.9950000  0  4G 3G16G17G23
  18979421.851    -8570614.264 7  -6466885.98923        25.250           2.563
  22302909.194      445173.703 6    346883.19921        12.500           0.813
  18927118.999   -10367481.226 7  -8078554.34624        26.500           3.531
  20898878.929   -17479888.169 6 -13620669.48221        18.000           1.469
 91  7 27  1 20 59.9950000  0  4G 3G16G17G23
  18972981.968    -8604458.058 7  -6493257.78023        25.000           2.500
  22304489.577      453490.386 6    353363.67421        12.250           0.969
  18918317.280   -10413743.576 7  -8114602.92724        26.750           3.500
  20882698.069   -17564934.474 6 -13686939.27822        18.500           1.563
 91  7 27  1 21 14.9950000  0  4G 3G16G17G23
  18966562.202    -8638196.558 7  -6519547.52323        25.000           2.531
  22306080.179      461851.142 6    359878.47621        12.750           0.969
  18909526.569   -10459931.517 7  -8150593.53224        27.000           3.531
  20866525.148   -17649909.821 6 -13753153.78022        18.250           1.563
 91  7 27  1 21 29.9950000  0  4G 3G16G17G23
  18960159.140    -8671833.780 7  -6545758.35023        24.250           2.563
  22307676.398      470251.694 6    366424.31121        13.250           0.750
  18900749.288   -10506049.142 7  -8186529.33824        26.750           3.594
  20850369.679   -17734818.232 6 -13819316.12822        18.750           1.531
 91  7 27  1 21 44.9950000  0  4G 3G16G17G23
  18953778.632    -8705364.913 7  -6571886.50723        24.000           2.500
  22309287.991      478696.376 6    373004.54721        12.750           0.781
  18891988.257   -10552091.857 7  -8222406.77824        27.500           3.688
  20834223.827   -17819654.905 6 -13885422.56622        18.250           1.656
 91  7 27  1 21 59.9950000  0  4G 3G16G17G23
  18947420.991    -8738787.727 7  -6597930.26422        25.250           2.438
  22310902.421      487187.031 6    379620.60821        12.250           0.781
  18883242.398   -10598057.638 7  -8258224.26324        26.750           3.719
  20818096.999   -17904417.468 6 -13951471.26222        19.000           1.531
 91  7 27  1 22 14.9950000  0  4G 3G16G17G23
  18941079.218    -8772104.854 7  -6623891.67822        25.250           2.438
  22312526.124      495720.711 5    386270.18321        11.750           0.844
  18874509.140   -10643949.077 7  -8293983.82724        26.750           3.656
  20801977.929   -17989108.324 6 -14017464.08922        18.250           1.563
 91  7 27  1 22 29.9950000  0  4G 3G16G17G23
  18934758.390    -8805319.631 7  -6649773.33122        25.250           2.406
  22314157.937      504293.642 5    392950.32521        10.500           0.813
  18865789.788   -10689769.860 7  -8329688.32824        26.750           3.781
  20785875.655   -18073730.694 6 -14083403.54822        18.500           1.563
 91  7 27  1 22 44.9950000  0  4G 3G16G17G23
  18928459.046    -8838428.939 7  -6675572.79123        25.000           2.531
  22315800.999      512908.169 6    399662.88221        12.000           0.719
  18857084.312   -10735517.047 7  -8365335.47524        26.750           3.813
  20769786.241   -18158281.604 6 -14149287.32622        18.500           1.656
 91  7 27  1 22 59.9950000  0  4G 3G16G17G23
  18922177.265    -8871435.380 7  -6701292.10322        24.750           2.469
  22317443.858      521561.699 6    406405.84021        12.000           0.813
  18848391.546   -10781193.267 7  -8400927.32824        26.750           3.781
  20753707.429   -18242763.368 6 -14215117.21322        18.750           1.563
 91  7 27  1 23 14.9950000  0  4G 3G16G17G23
  18915918.632    -8904335.165 7  -6726928.30823        25.500           2.563
  22319100.616      530257.409 6    413181.66321        12.000           0.625
  18839713.616   -10826795.183 7  -8436461.28524        26.750           3.813
  20737647.273   -18327172.081 6 -14280890.18722        18.750           1.688
 91  7 27  1 23 29.9950000  0  4G 3G16G17G23
  18909675.694    -8937128.634 7  -6752481.66822        24.750           2.469
  22320762.085      538994.335 5    419989.63921        10.250           0.594
  18831050.983   -10872323.343 7  -8471937.76524        27.000           3.844
  20721599.608   -18411508.230 6 -14346606.61822        19.250           1.594
 91  7 27  1 23 44.9950000  0  4G 3G16G17G23
  18903456.749    -8969817.097 7  -6777953.20322        25.500           2.438
  22322429.898      547771.134 5    426828.63721         9.750           0.625
  18822401.382   -10917778.835 7  -8507357.62224        27.000           3.688
  20705561.905   -18495772.795 6 -14412267.26322        19.250           1.656
 91  7 27  1 23 59.9950000  0  4G 3G16G17G23
  18897257.343    -9002401.281 7  -6803343.48222        25.500           2.406
  22324113.023      556586.018 5    433697.30921        10.250           0.688
  18813763.874   -10963162.966 7  -8542721.88024        26.750           3.750
  20689542.405   -18579966.826 6 -14477872.94622        19.750           1.688
 91  7 27  1 24 14.9950000  0  4G 3G16G17G23
  18891075.554    -9034873.655 7  -6828646.64522        24.500           2.375
  22325798.796      565446.480 5    440601.49121        10.750           0.594
  18805144.538   -11008468.160 7  -8578024.62724        27.500           3.688
  20673534.788   -18664082.438 6 -14543417.52922        19.500           1.719
 91  7 27  1 24 29.9940000  0  4G 3G16G17G23
  18884919.869    -9067233.428 7  -6853862.06522        25.000           2.406
  22327488.221      574350.246 5    447539.43521        10.500           0.469
  18796537.596   -11053693.073 7  -8613264.81724        27.250           3.656
  20657547.361   -18748115.376 6 -14608897.69422        19.750           1.531
 91  7 27  1 24 44.9940000  0  4G 3G16G17G23
  18878780.541    -9099485.084 7  -6878993.23223        24.500           2.500
  22329196.830      583297.729 5    454511.45321        10.500           0.469
  18787946.697   -11098843.782 7  -8648447.18524        27.250           3.625
  20641568.166   -18832076.648 7 -14674322.01122        20.000           1.500
 91  7 27  1 24 59.9940000  0  4G 3G16G17G23
  18872666.080    -9131626.757 7  -6904038.69323        25.000           2.500
  22330907.510      592287.922 5    461516.74221        10.250           0.344
  18779369.080   -11143917.661 7  -8683569.69724        27.250           3.656
  20625605.080   -18915960.803 7 -14739686.24522        20.000           1.531
 91  7 27  1 25 14.9940000  0  4G 3G16G17G23
  18866569.057    -9163660.426 7  -6929000.00123        24.750           2.500
  22332624.471      601318.168 5    468553.27321        11.250           0.344
  18770805.275   -11188917.110 7  -8718634.19524        26.750           3.625
  20609656.510   -18999770.172 7 -14804992.19321        20.000           1.469
 91  7 27  1 25 29.9940000  0  4G 3G16G17G23
  18860496.315    -9195582.541 7  -6953874.38222        25.250           2.469
  22334350.869      610391.699 6    475623.51121        12.250           0.500
  18762254.588   -11233838.684 7  -8753638.01724        25.750           3.750
  20593721.104   -19083500.905 7 -14870236.87122        20.000           1.531
 91  7 27  1 25 44.9940000  0  4G 3G16G17G23
  18854442.018    -9227392.889 7  -6978661.67222        25.000           2.406
  22336090.783      619507.960 6    482727.03321        12.250           0.438
  18753721.736   -11278682.629 7  -8788581.34624        25.500           3.750
  20577801.440   -19167152.742 7 -14935420.07922        20.250           1.594
 91  7 27  1 25 59.9940000  0  4G 3G16G17G23
  18848410.658    -9259096.900 7  -7003366.10522        25.750           2.406
  22337825.182      628661.284 5    489859.43221        11.500           0.344
  18745203.393   -11323454.363 7  -8823468.40624        25.250           3.781
  20561901.049   -19250731.047 7 -15000545.97522        20.750           1.563
 91  7 27  1 26 14.9940000  0  4G 3G16G17G23
  18842397.940    -9290689.592 7  -7027983.79822        25.500           2.406
  22339577.494      637856.064 6    497024.15521        12.000           0.344
  18736698.361   -11368149.030 7  -8858295.41524        26.000           3.719
  20546007.643   -19334230.643 6 -15065610.55422        19.500           1.531
 91  7 27  1 26 29.9940000  0  4G 3G16G17G23
  18836404.252    -9322176.605 7  -7052519.14523        24.750           2.500
  22341335.104      647086.467 6    504216.63321        12.750           0.375
  18728207.104   -11412772.155 7  -8893066.68324        26.000           3.750
  20530135.440   -19417657.108 7 -15130618.13522        20.250           1.531
 91  7 27  1 26 44.9940000  0  4G 3G16G17G23
  18830434.893    -9353550.757 7  -7076966.54222        24.750           2.438
  22343100.494      656359.227 6    511442.12821        13.500           0.438
  18719730.229   -11457316.882 7  -8927776.85324        25.750           3.719
  20514273.369   -19501003.255 6 -15195563.14622        19.000           1.594
 91  7 27  1 26 59.9940000  0  4G 3G16G17G23
  18824486.080    -9384815.767 7  -7101328.89323        25.250           2.563
  22344869.033      665670.298 6    518697.48521        13.500           0.500
  18711268.799   -11501787.155 7  -8962429.01524        25.750           3.563
  20498426.768   -19584272.661 6 -15260448.35022        19.000           1.594
 91  7 27  1 27 14.9940000  0  4G 3G16G17G23
  18818556.947    -9415964.863 7  -7125600.92823        25.250           2.500
  22346647.330      675026.025 6    525987.61821        12.750           0.500
  18702819.986   -11546176.519 7  -8997018.12624        26.000           3.656
  20482598.385   -19667458.621 6 -15325268.52122        19.750           1.688
 91  7 27  1 27 29.9940000  0  4G 3G16G17G23
  18812650.494    -9447001.867 7  -7149785.61223        24.750           2.500
  22348435.643      684421.913 6    533309.02621        13.000           0.406
  18694387.486   -11590488.617 7  -9031547.03624        26.000           3.781
  20466785.588   -19750564.629 7 -15390026.40322        20.000           1.750
 91  7 27  1 27 44.9940000  0  4G 3G16G17G23
  18806766.916    -9477924.352 7  -7173881.06722        25.250           2.469
  22350230.447      693860.160 6    540663.46121        12.250           0.500
  18685969.463   -11634721.424 7  -9066014.15124        25.750           3.781
  20450985.299   -19833588.089 7 -15454719.96122        20.000           1.656
 91  7 27  1 27 59.9940000  0  4G 3G16G17G23
  18800903.494    -9508738.133 7  -7197891.81123        25.250           2.563
  22352034.666      703334.385 6    548045.93521        12.000           0.438
  18677568.338   -11678880.888 7  -9100424.12324        26.500           3.781
  20435201.268   -19916534.958 6 -15519353.83722        19.500           1.656
 91  7 27  1 28 14.9940000  0  4G 3G16G17G23
  18795062.119    -9539438.426 7  -7221814.13523        25.000           2.500
  22353844.674      712849.162 5    555460.00421        11.000           0.375
  18669179.955   -11722962.312 7  -9134773.28124        27.000           3.813
  20419431.854   -19999400.362 6 -15583924.23722        19.250           1.750
 91  7 27  1 28 29.9940000  0  4G 3G16G17G23
  18789243.182    -9570027.226 7  -7245649.56122        25.500           2.375
  22355660.150      722401.729 5    562903.50121        10.250           0.438
  18660804.861   -11766968.350 7  -9169063.70124        26.500           3.656
  20403677.315   -20082186.339 6 -15648432.74222        19.500           1.688
 91  7 27  1 28 44.9940000  0  4G 3G16G17G23
  18783439.088    -9600509.341 7  -7269401.87722        24.500           2.344
  22357484.861      731987.456 5    570372.83821        11.250           0.531
  18652445.932   -11810903.394 7  -9203298.79724        27.000           3.625
  20387940.088   -20164897.322 6 -15712882.81422        19.500           1.813
 91  7 27  1 28 59.9940000  0  4G 3G16G17G23
  18777660.924    -9630880.089 7  -7293067.39822        25.250           2.438
  22359320.088      741610.301 5    577871.11321        11.500           0.563
  18644096.111   -11854763.114 7  -9237475.20524        25.750           3.688
  20372216.369   -20247528.805 7 -15777270.92722        20.000           1.813
 91  7 27  1 29 14.9940000  0  4G 3G16G17G23
  18771902.416    -9661134.869 7  -7316642.56123        25.250           2.500
  22361159.205      751274.703 5    585401.77721        10.750           0.531
  18635768.799   -11898542.896 7  -9271589.31524        26.750           3.625
  20356507.611   -20330075.828 6 -15841593.23722        19.500           1.906
 91  7 27  1 29 29.9940000  0  4G 3G16G17G23
  18766169.541    -9691277.865 7  -7340130.62322        26.500           2.406
  22363004.330      760975.889 5    592961.07021        10.000           0.750
  18627450.572   -11942247.161 7  -9305644.58724        26.000           3.625
  20340814.697   -20412542.455 6 -15905852.89522        19.250           1.875
 91  7 27  1 29 44.9940000  0  4G 3G16G17G23
  18760452.291    -9721305.612 7  -7363528.87423        25.000           2.500
  22364856.447      770716.740 5    600551.28021         9.250           0.656
  18619150.463   -11985872.730 7  -9339638.53424        27.000           3.500
  20325135.705   -20494925.185 6 -15970047.18222        18.750           1.906
 91  7 27  1 29 59.9940000  0  4G 3G16G17G23
  18754760.244    -9751217.412 7  -7386836.78222        25.000           2.438
  22366720.432      780497.541 5    608172.60021         9.000           0.719
  18610863.916   -12029418.912 7  -9373570.62024        27.000           3.500
  20309476.791   -20577223.234 6 -16034175.48222        19.750           1.844
 91  7 27  1 30 14.9940000  0  4G 3G16G17G23
  18749090.682    -9781012.926 7  -7410054.07123        25.000           2.500
  22368586.830      790317.989 5    615824.82721         9.000           0.594
  18602591.033   -12072885.698 7  -9407440.85323        26.750           3.375
  20293832.088   -20659436.420 6 -16098237.65322        19.750           1.938
 91  7 27  1 30 29.9940000  0  4G 3G16G17G23
  18743443.252    -9810699.501 7  -7433186.48222        25.500           2.438
  22370466.916      800170.876 5    623502.34121        10.500           0.531
  18594335.338   -12116280.409 7  -9441254.91324        27.000           3.500
  20278202.057   -20741571.725 6 -16162239.13722        19.000           2.031
 91  7 27  1 30 44.9940000  0  4G 3G16G17G23
  18737816.361    -9840269.891 7  -7456228.35423        25.750           2.500
  22372344.182      810063.014 5    631210.47621        10.000           0.469
  18586090.869   -12159595.795 7  -9475007.16524        26.000           3.500
  20262586.768   -20823621.720 7 -16226174.15822        20.250           1.969
 91  7 27  1 30 59.9940000  0  4G 3G16G17G23
  18732208.260    -9869731.150 7  -7479185.18522        24.750           2.438
  22374229.854      819986.642 5    638943.14821         8.750           0.563
  18577862.119   -12202839.583 7  -9508703.62124        26.250           3.563
  20246989.752   -20905593.653 7 -16290048.35022        20.500           2.000
 91  7 27  1 31 14.9940000  0  4G 3G16G17G23
  18726623.135    -9899078.121 7  -7502052.96522        24.750           2.344
  22376125.315      829946.717 5    646704.16321         8.500           0.563
  18569647.846   -12246006.424 7  -9542340.11924        26.500           3.563
  20231409.463   -20987482.078 7 -16353857.45622        21.000           2.188
 91  7 27  1 31 29.9940000  0  4G 3G16G17G23
  18721062.158    -9928315.894 7  -7524835.65523        25.250           2.531
  22378028.744      839937.590 5    654489.17721         9.250           0.563
  18561444.744   -12289101.597 7  -9575920.77224        25.750           3.656
  20215841.963   -21069292.056 7 -16417605.44222        20.750           2.031
 91  7 27  1 31 44.9940000  0  4G 3G16G17G23
  18715517.369    -9957443.782 7  -7547532.72022        25.000           2.438
  22379937.119      849959.778 5    662298.61421        10.250           0.625
  18553258.635   -12332124.160 7  -9609444.84524        25.750           3.688
  20200285.354   -21151022.591 7 -16481291.53022        20.000           2.031
 91  7 27  1 31 59.9940000  0  4G 3G16G17G23
  18709997.611    -9986457.090 7  -7570140.50122        25.000           2.313
  22381854.111      860017.243 5    670135.54421        10.500           0.531
  18545086.080   -12375070.289 7  -9642909.35324        25.750           3.656
  20184748.580   -21232669.424 7 -16544912.39522        20.750           2.000
 91  7 27  1 32 14.9940000  0  4G 3G16G17G23
  18704496.549   -10015360.555 7  -7592662.69622        25.000           2.313
  22383771.494      870105.318 5    677996.32521        10.250           0.563
  18536930.830   -12417944.330 7  -9676317.69224        26.500           3.625
  20169229.682   -21314236.824 7 -16608471.36522        20.500           2.000
 91  7 27  1 32 29.9940000  0  4G 3G16G17G23
  18699019.822   -10044150.367 7  -7615096.33422        25.750           2.313
  22385701.729      880227.099 5    685883.37221         9.750           0.344
  18528786.471   -12460742.799 7  -9709667.15024        26.750           3.531
  20153720.346   -21395721.003 7 -16671965.48022        20.250           2.031
 91  7 27  1 32 44.9940000  0  4G 3G16G17G23
  18693562.346   -10072826.210 7  -7637441.15722        25.250           2.375
  22387635.424      890382.229 5    693796.42421         9.250           0.406
  18520655.385   -12503465.530 7  -9742957.59224        26.750           3.594
  20138231.385   -21477121.582 6 -16735394.45722        19.750           2.031
 91  7 27  1 32 59.9940000  0  4G 3G16G17G23
  18688125.143   -10101387.896 7  -7659697.02722        23.750           2.438
  22389568.768      900571.056 5    701735.73721        10.000           0.375
  18512539.315   -12546112.523 7  -9776189.00324        27.250           3.625
  20122761.260   -21558438.212 7 -16798758.02322        20.500           2.031
 91  7 27  1 33 14.9940000  0  3G 3G17G23
  18682710.963   -10129836.018 7  -7681864.40322        23.750           2.469
  18504438.752   -12588684.689 7  -9809362.11624        27.250           3.625
  20107296.924   -21639671.358 6 -16862056.54122        19.750           2.031
 91  7 27  1 33 29.9940000  0  3G 3G17G23
  18677320.885   -10158170.028 7  -7703942.86122        24.000           2.469
  18496351.416   -12631181.651 7  -9842476.63524        26.750           3.563
  20091854.994   -21720820.404 7 -16925289.51722        20.750           1.969
 91  7 27  1 33 44.9940000  0  3G 3G17G23
  18671951.143   -10186391.355 7  -7725933.51122        25.000           2.469
  18488277.291   -12673604.401 7  -9875533.31824        26.000           3.625
  20076426.361   -21801886.594 7 -16988457.93322        20.500           1.938
 91  7 27  1 33 59.9940000  0  3G 3G17G23
  18666601.041   -10214497.880 7  -7747834.71022        25.000           2.375
  18480219.838   -12715951.273 7  -9908530.87924        26.250           3.594
  20061021.494   -21882867.958 7 -17051560.25622        21.500           1.969
 91  7 27  1 34 14.9930000  0  3G 3G17G23
  18661275.653   -10242488.315 7  -7769645.45822        25.000           2.469
  18472177.146   -12758220.325 7  -9941467.79824        26.750           3.625
  20045624.911   -21963759.303 7 -17114592.43122        20.750           1.906
 91  7 27  1 34 29.9930000  0  3G 3G17G23
  18655971.294   -10270363.895 7  -7791366.70222        24.500           2.344
  18464149.263   -12800414.736 7  -9974346.55524        27.500           3.656
  20030248.638   -22044569.047 7 -17177561.01922        20.500           2.156
 91  7 27  1 34 44.9930000  0  3G 3G17G23
  18650687.474   -10298130.434 7  -7813002.97722        24.500           2.219
  18456129.474   -12842539.790 7 -10007171.27124        26.750           3.500
  20014886.427   -22125299.311 7 -17240467.67822        21.000           2.094
 91  7 27  1 34 59.9930000  0  3G 3G17G23
  18645423.747   -10325784.467 7  -7834551.58722        23.250           2.375
  18448128.060   -12884591.700 7 -10039938.99424        27.250           3.500
  19999541.192   -22205946.438 7 -17303309.56422        21.250           2.125
 91  7 27  1 35 14.9930000  0  3G 3G17G23
  18640184.474   -10353323.087 7  -7856010.26322        23.750           2.313
  18440141.013   -12926567.803 7 -10072647.64424        27.000           3.563
  19984211.521   -22286507.546 7 -17366084.41122        21.250           2.063
 91  7 27  1 35 29.9930000  0  3G 3G17G23
  18634966.341   -10380744.221 7  -7877377.38622        24.500           2.281
  18432168.521   -12968466.003 7 -10105295.58824        26.250           3.594
  19968895.310   -22366980.252 7 -17428790.38122        20.250           2.031
 91  7 27  1 35 44.9930000  0  3G 3G17G23
  18629772.599   -10408049.125 7  -7898653.94722        25.250           2.344
  18424210.192   -13010288.078 7 -10137884.20824        26.500           3.719
  19953600.982   -22447365.890 7 -17491428.49622        20.500           2.156
 91  7 27  1 35 59.9930000  0  3G 3G17G23
  18624596.755   -10435233.428 7  -7919836.53022        24.250           2.406
  18416266.403   -13052029.306 7 -10170409.83424        26.750           3.563
  19938320.669   -22527660.022 7 -17553995.32522        20.750           2.125
 91  7 27  1 36 14.9930000  0  3G 3G17G23
  18619447.271   -10462294.341 7  -7940922.96622        24.500           2.313
  18408339.778   -13093687.336 7 -10202870.63424        27.250           3.656
  19923059.739   -22607859.633 7 -17616488.48322        20.500           2.281
 91  7 27  1 36 29.9930000  0  3G 3G17G23
  18614322.052   -10489234.310 7  -7961915.15722        24.500           2.250
  18400427.857   -13135264.850 7 -10235268.69924        26.750           3.656
  19907815.333   -22687967.229 7 -17678909.94822        20.750           2.313
 91  7 27  1 36 44.9930000  0  3G 3G17G23
  18609217.653   -10516050.485 7  -7982810.89322        25.000           2.219
  18392531.544   -13176759.050 7 -10267601.83524        26.000           3.656
  19892589.474   -22767979.761 7 -17741257.33722        20.750           2.344
 91  7 27  1 36 59.9930000  0  3G 3G17G23
  18604139.317   -10542745.542 7  -8003612.25022        24.500           2.281
  18384650.880   -13218172.833 7 -10299872.31124        26.500           3.531
  19877377.528   -22847899.870 7 -17803532.71422        20.500           2.344
 91  7 27  1 37 14.9930000  0  3G 3G17G23
  18599081.458   -10569317.625 7  -8024317.78422        23.750           2.250
  18376785.021   -13259504.334 7 -10332078.67124        26.500           3.500
  19862189.739   -22927725.617 7 -17865734.56022        21.000           2.375
 91  7 27  1 37 29.9930000  0  3G 3G17G23
  18594049.521   -10595772.822 7  -8044932.22922        24.000           2.313
  18368935.630   -13300759.550 7 -10364225.59024        27.250           3.531
  19847015.817   -23007462.659 7 -17927867.28622        20.750           2.219
 91  7 27  1 37 44.9930000  0  3G 3G17G23
  18589035.614   -10622111.092 7  -8065455.57222        23.500           2.375
  18361098.685   -13341938.850 7 -10396313.35324        27.750           3.500
  19831857.427   -23087111.335 7 -17989931.14622        20.750           2.250
 91  7 27  1 37 59.9930000  0  3G 3G17G23
  18584043.458   -10648332.507 7  -8085887.85122        22.750           2.375
  18353276.638   -13383042.433 7 -10428342.11624        26.750           3.625
  19816722.278   -23166671.367 7 -18051925.94322        22.500           2.375
 91  7 27  1 38 14.9930000  0  3G 3G17G23
  18579077.880   -10674435.960 7  -8106228.21622        23.500           2.375
  18345469.833   -13424069.297 7 -10460311.09624        26.750           3.594
  19801597.450   -23246141.579 7 -18113850.74722        22.000           2.406
 91  7 27  1 38 29.9930000  0  3G 3G17G23
  18574134.302   -10700420.349 7  -8126475.80422        23.250           2.375
  18337676.825   -13465018.442 7 -10492219.51824        26.750           3.531
  19786493.232   -23325520.923 7 -18175704.73923        22.000           2.563
 91  7 27  1 38 44.9930000  0  3G 3G17G23
  18569210.255   -10726288.782 7  -8146633.04022        23.750           2.250
  18329899.317   -13505893.114 7 -10524069.91024        27.000           3.500
  19771399.442   -23404812.258 7 -18237490.15623        21.000           2.688
 91  7 27  1 38 59.9930000  0  3G 3G17G23
  18564313.849   -10752033.556 7  -8166693.91422        23.750           2.313
  18322137.614   -13546685.647 7 -10555856.30324        27.250           3.563
  19756332.380   -23484007.749 7 -18299200.89523        21.250           2.594
 91  7 27  1 39 14.9930000  0  3G 3G17G23
  18559435.857   -10777657.052 7  -8186660.28422        23.250           2.250
  18314390.466   -13587398.722 7 -10587580.77324        27.500           3.563
  19741278.888   -23563109.722 7 -18360838.76623        21.000           2.625
 91  7 27  1 39 29.9930000  0  3G 3G17G23
  18554582.810   -10803162.220 7  -8206534.45322        23.000           2.156
  18306657.583   -13628035.383 7 -10619245.70324        27.000           3.656
  19726243.255   -23642121.043 7 -18422405.98623        21.750           2.594
 91  7 27  1 39 44.9930000  0  3G 3G17G23
  18549754.560   -10828546.348 7  -8226314.31322        23.750           2.188
  18298939.153   -13668592.928 7 -10650848.97924        26.000           3.875
  19711226.911   -23721038.801 7 -18483900.31722        21.500           2.438
 91  7 27  1 39 59.9930000  0  3G 3G17G23
  18544944.708   -10853811.159 7  -8246001.18522        23.750           2.094
  18291232.817   -13709073.237 7 -10682392.07524        25.750           3.813
  19696227.669   -23799864.875 7 -18545323.19723        22.250           2.563
 91  7 27  1 40 14.9930000  0  3G 3G17G23
  18540162.458   -10878947.830 7  -8265588.21722        23.500           2.219
  18283546.989   -13749467.610 7 -10713868.20424        26.000           3.813
  19681247.044   -23878590.351 7 -18606667.69023        22.500           2.594
 91  7 27  1 40 29.9930000  0  3G 3G17G23
  18535401.255   -10903964.579 7  -8285081.80222        23.750           2.313
  18275874.357   -13789784.534 7 -10745283.98524        26.000           3.625
  19666281.091   -23957223.260 7 -18667940.04123        21.750           2.688
 91  7 27  1 40 44.9930000  0  3G 3G17G23
  18530662.489   -10928863.493 7  -8304483.56322        23.500           2.313
  18268218.169   -13830026.174 7 -10776641.11124        26.250           3.813
  19651337.528   -24035765.460 7 -18729141.71723        22.250           2.594
 91  7 27  1 40 59.9930000  0  3G 3G17G23
  18525949.005   -10953640.029 7  -8323789.96722        23.250           2.219
  18260575.247   -13870187.894 7 -10807935.95224        25.750           3.781
  19636409.692   -24114212.321 7 -18790269.10523        22.750           2.500
 91  7 27  1 41 14.9930000  0  3G 3G17G23
  18521257.482   -10978291.643 7  -8342999.02722        23.000           2.250
  18252948.732   -13910266.964 7 -10839166.39824        26.000           3.688
  19621501.544   -24192560.977 7 -18851319.97422        22.500           2.438
 91  7 27  1 41 29.9930000  0  3G 3G17G23
  18516588.028   -11002823.623 7  -8362114.86722        23.250           2.250
  18245337.427   -13950269.457 7 -10870337.16324        26.250           3.750
  19606611.286   -24270817.033 7 -18912298.67822        22.750           2.375
 91  7 27  1 41 44.9930000  0  3G 3G17G23
  18511943.411   -11027238.137 7  -8381139.18022        24.000           2.188
  18237737.341   -13990197.200 7 -10901449.69024        26.250           3.750
  19591729.255   -24348982.364 7 -18973206.70222        21.000           2.438
 91  7 27  1 41 59.9930000  0  3G 3G17G23
  18507320.435   -11051528.564 7  -8400066.79422        24.000           2.219
  18230158.067   -14030043.838 7 -10932499.01724        27.000           3.625
  19576875.427   -24427050.422 7 -19034038.91522        21.250           2.438
 91  7 27  1 42 14.9930000  0  3G 3G17G23
  18502724.192   -11075698.867 7  -8418900.81522        24.250           2.188
  18222588.458   -14069813.358 7 -10963488.25524        26.500           3.500
  19562039.450   -24505024.726 7 -19094798.08123        21.750           2.500
 91  7 27  1 42 29.9930000  0  3G 3G17G23
  18498143.653   -11099751.931 7  -8437643.47822        23.750           2.188
  18215034.357   -14109508.820 7 -10994419.78124        26.750           3.500
  19547218.138   -24582908.268 7 -19155486.51822        21.500           2.438
 91  7 27  1 42 44.9930000  0  3G 3G17G23
  18493590.380   -11123681.767 7  -8456290.11422        24.000           2.375
  18207496.130   -14149124.452 7 -11025289.11324        26.250           3.531
  19532418.419   -24660694.829 7 -19216099.39623        21.750           2.594
 91  7 27  1 42 59.9930000  0  3G 3G17G23
  18489058.021   -11147491.513 7  -8474843.17322        23.250           2.313
  18199972.153   -14188663.251 7 -11056098.56823        26.750           3.438
  19517628.841   -24738387.581 7 -19276639.16422        21.250           2.344
 91  7 27  1 43 14.9930000  0  3G 3G17G23
  18484551.357   -11171181.902 7  -8493303.23522        23.000           2.250
  18192462.614   -14228126.270 7 -11086848.97124        26.750           3.531
  19502866.130   -24815987.045 7 -19337106.25622        22.000           2.438
 91  7 27  1 43 29.9930000  0  3G 3G17G23
  18480064.505   -11194749.548 7  -8511667.65022        23.000           2.188
  18184967.802   -14267510.244 7 -11117537.78424        27.000           3.594
  19488111.146   -24893489.906 7 -19397498.06022        21.000           2.469
 91  7 27  1 43 44.9930000  0  3G 3G17G23
  18475604.974   -11218197.042 7  -8529938.42822        23.250           2.188
  18177488.239   -14306817.881 7 -11148167.11424        27.000           3.719
  19473388.849   -24970898.500 7 -19457816.41922        22.500           2.469
 91  7 27  1 43 59.9920000  0  3G 3G17G23
  18471165.680   -11241522.886 7  -8548114.43422        23.750           2.125
  18170023.227   -14346046.685 7 -11178735.00924        26.750           3.688
  19458675.375   -25048207.742 7 -19518057.35722        22.250           2.469
 91  7 27  1 44 14.9920000  0  3G 3G17G23
  18466746.727   -11264731.492 7  -8566199.07722        23.250           2.094
  18162573.047   -14385203.236 7 -11209246.60624        27.000           3.719
  19443982.250   -25125429.139 7 -19578229.84822        22.250           2.469
 91  7 27  1 44 29.9920000  0  3G 3G17G23
  18462354.953   -11287818.047 7  -8584188.62122        24.000           2.250
  18155134.516   -14424281.941 7 -11239697.55324        26.750           3.594
  19429305.508   -25202553.996 7 -19638327.11323        22.750           2.531
 91  7 27  1 44 44.9920000  0  3G 3G17G23
  18457987.219   -11310783.549 7  -8602083.82522        24.750           2.375
  18147714.211   -14463283.649 7 -11270088.49424        27.000           3.656
  19414647.016   -25279583.194 7 -19698349.83022        22.250           2.406
 91  7 27  1 44 59.9920000  0  3G 3G17G23
  18453636.383   -11333629.393 7  -8619885.79222        23.500           2.313
  18140307.266   -14502209.948 7 -11300420.67324        27.000           3.813
  19400005.875   -25356518.316 7 -19758299.24122        22.250           2.469
 91  7 27  1 45 14.9920000  0  3G 3G17G23
  18449315.188   -11356349.308 7  -8637589.62922        24.000           2.219
  18132915.524   -14541054.689 7 -11330689.30024        26.750           3.875
  19385381.430   -25433352.775 7 -19818170.22423        21.750           2.500
 91  7 27  1 45 29.9920000  0  3G 3G17G23
  18445014.766   -11378948.272 7  -8655199.22522        24.500           2.188
  18125536.609   -14579823.038 7 -11360898.40324        26.250           3.906
  19370781.906   -25510091.651 7 -19877966.73223        21.750           2.594
 91  7 27  1 45 44.9920000  0  3G 3G17G23
  18440737.453   -11401423.185 7  -8672712.16022        24.500           2.063
  18118174.727   -14618511.842 7 -11391045.52324        26.000           3.875
  19356196.945   -25586731.522 7 -19937686.08423        22.250           2.563
 91  7 27  1 45 59.9920000  0  3G 3G17G23
  18436486.469   -11423770.769 7  -8690125.88122        25.250           2.219
  18110827.250   -14657118.034 7 -11421128.26724        25.500           3.813
  19341632.719   -25663269.122 7 -19997325.74223        22.250           2.531
 91  7 27  1 46 14.9920000  0  3G 3G17G23
  18432258.500   -11445990.901 7  -8707440.29022        25.000           2.219
  18103496.867   -14695641.553 7 -11451146.59524        25.750           3.750
  19327089.625   -25739704.103 7 -20056885.44623        23.000           2.656
 91  7 27  1 46 29.9920000  0  3G 3G17G23
  18428051.641   -11468088.418 7  -8724659.15022        24.750           2.219
  18096180.688   -14734087.085 7 -11481104.15424        26.000           3.656
  19312561.008   -25816041.289 7 -20116368.93923        22.250           2.625
 91  7 27  1 46 44.9920000  0  3G 3G17G23
  18423870.352   -11490059.616 7  -8741779.57522        24.500           2.281
  18088881.524   -14772451.178 7 -11510998.25124        26.250           3.688
  19298052.594   -25892276.786 7 -20175773.19523        21.500           2.625
 91  7 27  1 46 59.9920000  0  3G 3G17G23
  18419714.195   -11511907.091 7  -8758803.59422        24.500           2.188
  18081593.930   -14810736.451 7 -11540830.93124        25.750           3.719
  19283565.406   -25968412.966 7 -20235100.06123        22.500           2.813
 91  7 27  1 47 14.9920000  0  3G 3G17G23
  18415579.656   -11533633.131 7  -8775732.99022        24.750           2.219
  18074323.586   -14848945.415 7 -11570604.15124        26.250           3.625
  19269095.555   -26044452.259 7 -20294351.42823        22.000           2.719
 91  7 27  1 47 29.9920000  0  3G 3G17G23
  18411468.344   -11555237.628 7  -8792567.67722        25.000           2.188
  18067069.867   -14887078.165 7 -11600317.98924        26.750           3.656
  19254645.024   -26120394.509 7 -20353527.17923        22.250           2.813
 91  7 27  1 47 44.9920000  0  3G 3G17G23
  18407381.477   -11576715.840 7  -8809303.95322        24.750           2.219
  18059827.609   -14925129.924 7 -11629968.70624        27.000           3.750
  19240211.695   -26196234.613 7 -20412623.34323        21.750           2.813
 91  7 27  1 47 59.9920000  0  3G 3G17G23
  18403316.367   -11598067.560 7  -8825941.67822        24.750           2.250
  18052599.688   -14963100.580 7 -11659556.23724        26.250           3.688
  19225795.555   -26271972.373 7 -20471639.75023        21.750           2.875
 91  7 27  1 48 14.9920000  0  3G 3G17G23
  18399279.594   -11619296.647 7  -8842483.83722        25.250           2.094
  18045391.016   -15000994.149 7 -11689083.70024        26.250           3.563
  19211404.344   -26347611.650 7 -20530579.42423        21.750           2.813
 91  7 27  1 48 29.9920000  0  3G 3G17G23
  18395259.406   -11640402.288 7  -8858929.81122        24.250           2.188
  18038195.070   -15038809.671 7 -11718550.34224        26.250           3.625
  19197031.188   -26423151.258 7 -20589441.42223        22.750           2.938
 91  7 27  1 48 44.9920000  0  3G 3G17G23
  18391267.867   -11661384.963 7  -8875279.96222        24.250           2.281
  18031012.399   -15076547.962 7 -11747956.80024        25.500           3.594
  19182675.274   -26498591.764 7 -20648226.20723        23.500           2.781
 91  7 27  1 48 59.9920000  0  3G 3G17G23
  18387300.469   -11682244.951 7  -8891534.51722        24.750           2.188
  18023847.484   -15114209.109 7 -11777303.15024        26.000           3.688
  19168337.867   -26573933.094 7 -20706933.71023        23.000           2.938
 91  7 27  1 49 14.9920000  0  3G 3G17G23
  18383352.383   -11702983.070 7  -8907694.10522        25.000           2.281
  18016694.399   -15151794.191 7 -11806590.23024        26.250           3.656
  19154018.219   -26649176.223 7 -20765564.69223        22.500           2.906
 91  7 27  1 49 29.9920000  0  3G 3G17G23
  18379429.391   -11723599.666 7  -8923758.99522        25.250           2.344
  18009557.313   -15189303.666 7 -11835818.39224        26.250           3.781
  19139720.406   -26724321.323 7 -20824119.28923        23.000           3.000
 91  7 27  1 49 44.9920000  0  3G 3G17G23
  18375529.383   -11744094.566 7  -8939729.05822        25.000           2.375
  18002432.766   -15226737.562 7 -11864987.66224        26.000           3.688
  19125439.570   -26799368.241 7 -20882597.37723        23.000           3.063
 91  7 27  1 49 59.9920000  0  3G 3G17G23
  18371653.899   -11764464.389 7  -8955601.66522        25.000           2.344
  17995326.344   -15264092.422 7 -11894095.35524        27.000           3.781
  19111177.297   -26874313.278 7 -20940996.08123        22.750           2.813
 91  7 27  1 50 14.9920000  0  3G 3G17G23
  18367800.492   -11784714.332 7  -8971380.85822        24.750           2.219
  17988231.586   -15301373.466 7 -11923145.51824        27.000           3.719
  19096934.656   -26949161.478 7 -20999319.32923        23.000           2.875
 91  7 27  1 50 29.9920000  0  3G 3G17G23
  18363971.524   -11804837.076 7  -8987060.93622        25.000           2.219
  17981152.570   -15338573.363 7 -11952132.45324        27.000           3.719
  19082714.305   -27023905.484 7 -21057561.38023        23.500           2.938
 91  7 27  1 50 44.9920000  0  3G 3G17G23
  18360165.813   -11824831.573 7  -9002641.07422        24.500           2.063
  17974089.274   -15375691.197 7 -11981055.44624        27.000           3.875
  19068510.516   -27098544.304 7 -21115721.46923        23.500           2.813
 91  7 27  1 50 59.9920000  0  3G 3G17G23
  18356385.055   -11844704.133 7  -9018126.20922        25.250           2.094
  17967039.758   -15412733.474 7 -12009919.55624        26.500           3.875
  19054326.344   -27173084.029 7 -21173804.34923        23.500           2.750
 91  7 27  1 51 14.9920000  0  3G 3G17G23
  18352628.602   -11864450.295 7  -9033512.85622        25.250           2.094
  17960006.375   -15449695.778 7 -12038721.35524        26.750           4.063
  19040161.102   -27247520.072 7 -21231806.43223        23.000           2.844
 91  7 27  1 51 29.9920000  0  3G 3G17G23
  18348895.617   -11884075.143 7  -9048804.95922        25.750           2.219
  17952986.813   -15486583.199 7 -12067464.79724        26.250           4.000
  19026012.992   -27321857.395 7 -21289731.58523        23.000           2.875
 91  7 27  1 51 44.9920000  0  3G 3G17G23
  18345181.024   -11903576.778 7  -9064001.05622        25.000           2.219
  17945981.945   -15523393.772 7 -12096148.35824        26.000           3.969
  19011886.930   -27396094.028 7 -21347578.28523        23.500           2.844
 91  7 27  1 51 59.9920000  0  3G 3G17G23
  18341490.781   -11922960.525 7  -9079105.29022        24.000           2.188
  17938988.625   -15560133.015 7 -12124776.33924        25.750           3.969
  18997778.547   -27470235.056 7 -21405350.49023        23.250           2.688
 91  7 27  1 52 14.9920000  0  3G 3G17G23
  18337829.172   -11942218.487 7  -9094111.50522        24.500           2.031
  17932014.391   -15596793.446 7 -12153342.91124        26.500           3.719
  18983688.820   -27544272.433 7 -21463041.91823        23.000           2.781
 91  7 27  1 52 29.9920000  0  3G 3G17G23
  18334186.570   -11961348.545 7  -9109018.06122        24.500           2.125
  17925052.461   -15633372.799 7 -12181846.30624        26.000           3.750
  18969622.695   -27618204.084 7 -21520650.97523        24.000           2.719
 91  7 27  1 52 44.9920000  0  3G 3G17G23
  18330570.313   -11980355.086 7  -9123828.36922        24.750           2.031
  17918107.602   -15669875.378 7 -12210289.87824        26.500           3.813
  18955572.625   -27692034.368 7 -21578181.04423        23.750           2.781
 91  7 27  1 52 59.9920000  0  3G 3G17G23
  18326978.422   -11999237.844 7  -9138542.23022        25.500           2.156
  17911174.070   -15706301.063 7 -12238673.53424        26.500           3.844
  18941540.406   -27765762.804 7 -21635631.74623        22.750           2.875
 91  7 27  1 53 14.9920000  0  3G 3G17G23
  18323408.836   -12017996.408 7  -9153159.31822        25.000           2.031
  17904259.875   -15742649.649 7 -12266997.11224        27.000           3.719
  18927529.266   -27839388.837 7 -21693002.64623        23.000           2.813
 91  7 27  1 53 29.9920000  0  3G 3G17G23
  18319862.883   -12036633.884 7  -9167682.04422        24.250           2.156
  17897356.211   -15778924.075 7 -12295262.90124        27.000           3.719
  18913536.563   -27912915.274 7 -21750295.94523        23.500           2.781
 91  7 27  1 53 44.9910000  0  3G 3G17G23
  18316337.792   -12055145.899 7  -9182107.00822        23.750           2.063
  17890469.644   -15815118.829 7 -12323466.61024        27.250           3.750
  18899568.472   -27986334.263 7 -21807505.52223        23.500           2.844
 91  7 27  1 53 59.9910000  0  3G 3G17G23
  18312841.237   -12073530.677 7  -9196432.82522        23.750           2.000
  17883595.550   -15851234.705 7 -12351608.85824        26.500           3.781
  18885618.269   -28059651.236 7 -21864635.60323        24.000           2.813
 91  7 27  1 54 14.9910000  0  3G 3G17G23
  18309364.448   -12091786.062 7  -9210657.81422        23.750           2.063
  17876739.448   -15887268.259 7 -12379686.94424        26.500           3.688
  18871684.534   -28132860.107 7 -21921681.44623        23.500           2.844
 91  7 27  1 54 29.9910000  0  3G 3G17G23
  18305916.401   -12109915.039 7  -9224784.31022        24.000           2.000
  17869894.722   -15923222.732 7 -12407703.43024        26.250           3.813
  18857772.769   -28205963.909 7 -21978645.41923        23.750           3.000
 91  7 27  1 54 44.9910000  0  3G 3G17G23
  18302489.714   -12127918.192 7  -9238812.76022        24.250           2.000
  17863070.136   -15959098.699 7 -12435658.72724        26.250           3.813
  18843881.284   -28278962.907 7 -22035527.71723        23.500           3.000
 91  7 27  1 54 59.9910000  0  3G 3G17G23
  18299089.620   -12145796.187 7  -9252743.68722        24.500           2.000
  17856256.542   -15994896.893 7 -12463553.42624        25.500           3.875
  18830010.222   -28351857.566 7 -22092328.73223        24.000           2.813
 91  7 27  1 55 14.9910000  0  3G 3G17G23
  18295709.651   -12163550.333 7  -9266578.10522        23.500           2.125
  17849458.151   -16030618.839 7 -12491388.71024        25.500           3.938
  18816159.394   -28424649.505 7 -22149049.68723        24.750           2.875
 91  7 27  1 55 29.9910000  0  3G 3G17G23
  18292355.597   -12181178.285 7  -9280314.19122        23.750           2.000
  17842678.011   -16066262.070 7 -12519162.66024        26.500           3.969
  18802324.573   -28497335.989 7 -22205688.47623        24.000           3.000
 91  7 27  1 55 44.9910000  0  3G 3G17G23
  18289024.987   -12198678.483 7  -9293950.71922        23.750           2.000
  17835910.261   -16101824.997 7 -12546874.02924        26.250           3.813
  18788515.667   -28569915.538 7 -22262243.94023        24.250           2.969
 91  7 27  1 55 59.9910000  0  3G 3G17G23
  18285719.441   -12216054.474 7  -9307490.46622        24.000           1.938
  17829158.800   -16137311.252 7 -12574525.66224        26.750           3.844
  18774724.472   -28642391.402 7 -22318718.61823        24.000           2.938
 91  7 27  1 56 14.9910000  0  3G 3G17G23
  18282436.487   -12233306.447 7  -9320933.58322        24.000           1.969
  17822418.339   -16172720.906 7 -12602117.60924        26.500           4.031
  18760953.237   -28714763.496 7 -22375112.43423        24.250           3.094
 91  7 27  1 56 29.9910000  0  3G 3G17G23
  18279179.191   -12250426.337 7  -9334273.78122        24.000           1.875
  17815697.136   -16208046.566 7 -12629644.10224        26.750           4.031
  18747199.776   -28787024.006 7 -22431419.28923        23.500           3.250
 91  7 27  1 56 44.9910000  0  3G 3G17G23
  18275945.941   -12267413.974 7  -9347510.91522        24.250           1.844
  17808990.550   -16243287.536 7 -12657104.59624        26.250           3.969
  18733469.948   -28859172.479 7 -22487638.85223        23.500           3.094
 91  7 27  1 56 59.9910000  0  3G 3G17G23
  18272739.550   -12284274.038 7  -9360648.64822        24.750           1.875
  17802299.589   -16278448.676 7 -12684502.89224        26.250           3.844
  18719762.831   -28931213.439 7 -22543774.64423        24.250           3.125
 91  7 27  1 57 14.9910000  0  3G 3G17G23
  18269555.112   -12301004.299 7  -9373685.23322        24.250           1.875
  17795625.355   -16313527.819 7 -12711837.29024        26.750           3.750
  18706075.605   -29003144.337 7 -22599824.66323        24.000           3.031
 91  7 27  1 57 29.9910000  0  3G 3G17G23
  18266395.347   -12317608.037 7  -9386623.23022        24.000           1.875
  17788964.581   -16348528.334 7 -12739110.42324        27.000           3.750
  18692407.651   -29074968.525 7 -22655791.53823        23.750           3.188
 91  7 27  1 57 44.9910000  0  3G 3G17G23
  18263259.644   -12334087.178 7  -9399464.13722        24.750           1.969
  17782317.808   -16383451.995 7 -12766323.67324        26.250           3.719
  18678757.097   -29146687.816 7 -22711676.67423        23.500           3.188
 91  7 27  1 57 59.9910000  0  3G 3G17G23
  18260147.105   -12350442.070 7  -9412208.23222        24.500           1.875
  17775688.566   -16418299.369 7 -12793477.48424        26.500           3.750
  18665130.105   -29218302.499 7 -22767480.29323        24.250           3.250
 91  7 27  1 58 14.9910000  0  3G 3G17G23
  18257058.386   -12366673.400 7  -9424856.04222        24.000           1.813
  17769069.987   -16453071.332 7 -12820572.51824        26.250           3.750
  18651525.284   -29289813.156 7 -22823202.85523        24.750           3.188
 91  7 27  1 58 29.9910000  0  3G 3G17G23
  18253992.120   -12382775.353 7  -9437403.03422        23.750           1.813
  17762469.331   -16487762.032 7 -12847604.22924        26.000           3.750
  18637936.472   -29361213.862 7 -22878839.74923        24.250           3.031
 91  7 27  1 58 44.9910000  0  3G 3G17G23
  18250952.573   -12398749.625 7  -9449850.53022        23.750           1.844
  17755882.495   -16522373.214 7 -12874573.99324        26.500           3.719
  18624371.651   -29432506.181 7 -22934392.18423        24.000           3.063
 91  7 27  1 58 59.9910000  0  3G 3G17G23
  18247938.464   -12414593.141 7  -9462196.14722        23.500           1.875
  17749312.730   -16556901.648 7 -12901479.27124        26.750           3.781
  18610825.886   -29503686.809 7 -22989857.57923        24.250           3.125
 91  7 27  1 59 14.9910000  0  3G 3G17G23
  18244948.112   -12430307.043 7  -9474440.76422        24.000           1.813
  17742755.112   -16591348.413 7 -12928320.90424        25.750           3.875
  18597301.589   -29574756.535 7 -23045236.56323        24.500           3.375
 91  7 27  1 59 29.9910000  0  3G 3G17G23
  18241980.706   -12445888.849 7  -9486582.45522        23.500           1.813
  17736216.566   -16625711.465 7 -12955097.30824        25.500           3.875
  18583796.987   -29645713.269 7 -23100527.50123        24.250           3.375
 91  7 27  1 59 44.9910000  0  3G 3G17G23
  18239043.675   -12461340.869 7  -9498623.01122        24.250           1.813
  17729693.605   -16659992.861 7 -12981810.08224        25.500           3.906
  18570317.151   -29716559.069 7 -23155731.99623        24.750           3.281
 91  7 27  1 59 59.9910000  0  3G 3G17G23
  18236126.839   -12476654.767 7  -9510555.94422        23.500           1.688
  17723189.292   -16694184.548 7 -13008452.94824        27.250           4.031
  18556857.136   -29787285.428 7 -23210843.41923        23.750           3.313
 91  7 27  2  0 14.9910000  0  3G 3G17G23
  18233240.745   -12491844.516 7  -9522392.13422        24.000           1.750
  17716695.480   -16728300.308 7 -13035036.66224        27.000           3.969
  18543417.472   -29857905.939 7 -23265872.36423        23.500           3.313
 91  7 27  2  0 29.9910000  0  3G 3G17G23
  18230371.870   -12506899.470 7  -9534123.28722        23.250           1.844
  17710221.706   -16762329.691 7 -13061553.06824        27.500           4.063
  18530002.050   -29928410.220 7 -23320810.74123        24.000           3.188
 91  7 27  2  0 44.9910000  0  3G 3G17G23
  18227533.081   -12521823.925 7  -9545752.75422        23.750           1.844
  17703759.542   -16796276.791 7 -13088005.35524        26.750           4.031
  18516607.589   -29998802.147 7 -23375661.57623        24.000           3.281
 91  7 27  2  0 59.9910000  0  3G 3G17G23
  18224718.089   -12536620.910 7  -9557282.89622        24.500           1.750
  17697314.870   -16830144.894 7 -13114396.08124        26.750           4.063
  18503231.987   -30069084.907 7 -23430427.33723        23.250           3.281
 91  7 27  2  1 14.9910000  0  3G 3G17G23
  18221926.948   -12551288.701 7  -9568712.37422        24.500           1.750
  17690886.456   -16863932.301 7 -13140723.93824        26.750           3.813
  18489879.050   -30139256.603 7 -23485106.55123        23.500           3.469
 91  7 27  2  1 29.9910000  0  3G 3G17G23
  18219158.394   -12565832.850 7  -9580045.48722        24.250           1.750
  17684469.066   -16897644.418 7 -13166993.11624        25.750           3.750
  18476546.261   -30209322.447 7 -23539703.29023        24.000           3.344
 91  7 27  2  1 44.9910000  0  3G 3G17G23
  18216417.128   -12580250.308 7  -9591279.89222        23.750           1.813
  17678069.948   -16931278.068 7 -13193201.16524        26.000           3.656
  18463234.206   -30279279.283 7 -23594215.08823        24.250           3.344
 91  7 27  2  1 59.9910000  0  3G 3G17G23
  18213697.183   -12594541.225 7  -9602415.69622        23.500           1.781
  17671685.019   -16964833.891 7 -13219348.56624        26.250           3.625
  18449942.401   -30349127.313 7 -23648642.10823        24.250           3.344
 91  7 27  2  2 14.9910000  0  3G 3G17G23
  18211001.323   -12608703.713 7  -9613451.42022        23.500           1.813
  17665314.839   -16998310.038 7 -13245433.86824        26.000           3.594
  18436670.706   -30418864.566 7 -23702982.79923        24.500           3.344
 91  7 27  2  2 29.9910000  0  3G 3G17G23
  18208330.948   -12622739.335 7  -9624388.29422        23.500           1.813
  17658959.019   -17031707.738 7 -13271458.05724        26.000           3.563
  18423422.253   -30488492.265 7 -23757238.12423        25.000           3.406
 91  7 27  2  2 44.9910000  0  3G 3G17G23
  18205679.745   -12636646.751 7  -9635225.26622        23.000           1.844
  17652619.362   -17065025.701 7 -13297420.10924        26.500           3.719
  18410193.347   -30558009.004 7 -23811406.99023        25.000           3.469
 91  7 27  2  2 59.9910000  0  3G 3G17G23
  18203063.792   -12650423.751 7  -9645960.61022        23.500           1.750
  17646294.269   -17098261.840 7 -13323318.40424        27.000           3.781
  18396987.901   -30627412.459 7 -23865487.58223        24.500           3.375
 91  7 27  2  3 14.9910000  0  3G 3G17G23
  18200464.417   -12664070.068 7  -9656594.12222        22.750           1.844
  17639985.753   -17131416.114 7 -13349152.90624        27.000           3.875
  18383802.605   -30696702.565 7 -23919479.84923        24.500           3.344
 91  7 27  2  3 29.9910000  0  3G 3G17G23
  18197889.698   -12677592.524 7  -9667131.12222        23.000           1.719
  17633689.831   -17164494.910 7 -13374928.59724        26.250           3.719
  18370634.034   -30765885.517 7 -23973388.62523        24.500           3.406
 91  7 27  2  3 44.9900000  0  3G 3G17G23
  18195343.662   -12690977.680 7  -9677561.13822        22.750           1.781
  17627413.490   -17197483.660 7 -13400634.11624        26.500           3.844
  18357495.076   -30834944.352 7 -24027200.68223        25.250           3.313
 91  7 27  2  3 59.9900000  0  3G 3G17G23
  18192821.037   -12704236.188 7  -9687892.46522        22.500           1.688
  17621149.943   -17230395.987 7 -13426280.08824        26.500           3.844
  18344374.279   -30903897.154 7 -24080930.11923        25.500           3.219
 91  7 27  2  4 14.9900000  0  3G 3G17G23
  18190323.311   -12717365.649 7  -9698123.24122        22.750           1.906
  17614901.170   -17263227.651 7 -13451863.20724        26.500           3.906
  18331272.537   -30972737.216 7 -24134571.70323        25.000           3.281
 91  7 27  2  4 29.9900000  0  3G 3G17G23
  18187849.522   -12730370.818 7  -9708257.16122        23.000           1.781
  17608669.420   -17295983.647 7 -13477387.37024        26.750           3.969
  18318193.014   -31041469.454 7 -24188129.27123        24.500           3.313
 91  7 27  2  4 44.9900000  0  3G 3G17G23
  18185397.318   -12743245.607 7  -9718289.49222        22.500           1.750
  17602451.873   -17328657.863 7 -13502847.79824        26.500           3.875
  18305136.959   -31110087.489 7 -24241597.84823        25.250           3.281
 91  7 27  2  4 59.9900000  0  3G 3G17G23
  18182974.147   -12755986.235 7  -9728217.27822        22.750           1.688
  17596250.256   -17361246.669 7 -13528241.67624        26.500           4.000
  18292102.139   -31178587.551 7 -24294974.50223        25.250           3.344
 91  7 27  2  5 14.9900000  0  3G 3G17G23
  18180574.295   -12768600.586 7  -9738046.65922        22.750           1.844
  17590062.607   -17393757.877 7 -13553575.09424        26.250           4.000
  18279086.850   -31246977.618 7 -24348265.44023        24.750           3.313
 91  7 27  2  5 29.9900000  0  3G 3G17G23
  18178199.334   -12781082.921 7  -9747773.17522        23.000           1.906
  17583892.107   -17426185.728 7 -13578843.55224        26.000           3.906
  18266095.811   -31315251.575 7 -24401465.90723        25.000           3.438
 91  7 27  2  5 44.9900000  0  3G 3G17G23
  18175850.451   -12793436.273 7  -9757399.19422        23.750           2.000
  17577735.725   -17458533.362 7 -13604049.50724        25.250           3.813
  18253123.936   -31383412.260 7 -24454578.10723        25.000           3.406
 91  7 27  2  5 59.9900000  0  3G 3G17G23
  18173524.076   -12805658.443 7  -9766922.99622        23.500           1.844
  17571596.990   -17490798.516 7 -13629191.18624        26.250           3.813
  18240175.522   -31451457.359 7 -24507600.24723        25.000           3.438
 91  7 27  2  6 14.9900000  0  3G 3G17G23
  18171219.201   -12817754.053 7  -9776348.16722        22.750           1.781
  17565474.623   -17522985.826 7 -13654272.21224        27.000           3.688
  18227250.061   -31519391.491 7 -24560535.91024        25.000           3.563
 91  7 27  2  6 29.9900000  0  3G 3G17G23
  18168941.647   -12829719.843 7  -9785672.17822        22.000           1.781
  17559361.717   -17555092.073 7 -13679290.07524        26.500           3.781
  18214343.389   -31587211.092 7 -24613382.33824        25.250           3.500
 91  7 27  2  6 44.9900000  0  3G 3G17G23
  18166689.397   -12841558.726 7  -9794897.30722        22.500           1.781
  17553269.178   -17587120.274 7 -13704247.12124        27.000           3.875
  18201457.850   -31654919.233 7 -24666141.90623        24.250           3.469
 91  7 27  2  6 59.9900000  0  3G 3G17G23
  18164464.006   -12853269.695 7  -9804022.77222        23.500           1.750
  17547188.904   -17619069.242 7 -13729142.42624        27.250           3.938
  18188594.764   -31722514.735 7 -24718813.70424        24.000           3.500
 91  7 27  2  7 14.9900000  0  3G 3G17G23
  18162258.514   -12864855.379 7  -9813050.59922        23.250           1.750
  17541124.170   -17650941.419 7 -13753977.89224        27.000           3.813
  18175750.381   -31789999.814 7 -24771399.45924        23.750           3.531
 91  7 27  2  7 29.9900000  0  3G 3G17G23
  18160076.709   -12876314.506 7  -9821979.81522        23.250           1.750
  17535071.248   -17682735.974 7 -13778752.87924        26.500           3.844
  18162930.381   -31857373.318 7 -24823898.27524        24.000           3.500
 91  7 27  2  7 44.9900000  0  3G 3G17G23
  18157921.725   -12887644.977 7  -9830808.77422        23.500           1.750
  17529036.631   -17714450.547 7 -13803465.54024        26.000           3.813
  18150133.693   -31924632.830 7 -24876308.26024        24.500           3.531
 91  7 27  2  7 59.9900000  0  3G 3G17G23
  18155787.147   -12898848.546 7  -9839538.85322        22.500           1.781
  17523019.537   -17746086.939 7 -13828117.28624        27.000           3.969
  18137354.654   -31991780.092 7 -24928630.78523        24.000           3.469
 91  7 27  2  8 14.9900000  0  3G 3G17G23
  18153682.303   -12909923.792 7  -9848168.93922        23.250           1.844
  17517012.264   -17777643.776 7 -13852707.03224        26.500           3.906
  18124598.912   -32058813.618 7 -24980864.68423        24.000           3.406
 91  7 27  2  8 29.9900000  0  3G 3G17G23
  18151600.529   -12920868.944 7  -9856697.65122        23.750           1.813
  17511021.826   -17809119.192 7 -13877233.33324        25.750           3.906
  18111866.248   -32125731.231 7 -25033008.26123        24.500           3.438
 91  7 27  2  8 44.9900000  0  3G 3G17G23
  18149537.975   -12931689.861 7  -9865129.55622        23.000           1.688
  17505046.404   -17840519.000 7 -13901700.72124        25.750           3.938
  18099150.834   -32192539.062 7 -25085066.28823        24.500           3.344
 91  7 27  2  8 59.9900000  0  3G 3G17G23
  18147503.764   -12942384.380 7  -9873462.96722        22.750           1.750
  17499087.693   -17871841.105 7 -13926107.55524        26.750           3.875
  18086460.193   -32259234.723 7 -25137036.91823        24.250           3.406
 91  7 27  2  9 14.9900000  0  3G 3G17G23
  18145492.397   -12952950.573 7  -9881696.38822        23.250           1.656
  17493142.920   -17903083.460 7 -13950452.25924        27.000           3.938
  18073790.326   -32325816.160 7 -25188918.53923        23.500           3.375
 91  7 27  2  9 29.9900000  0  3G 3G17G23
  18143507.459   -12963379.815 7  -9889823.10322        23.250           1.656
  17487215.842   -17934237.527 7 -13974728.16824        27.500           3.938
  18061142.209   -32392274.438 7 -25240704.19223        23.000           3.438
 91  7 27  2  9 44.9900000  0  3G 3G17G23
  18141549.693   -12973678.158 7  -9897847.81522        24.000           1.750
  17481301.990   -17965309.359 7 -13998939.99024        27.250           3.875
  18048520.037   -32458615.410 7 -25292398.43823        23.500           3.469
 91  7 27  2  9 59.9900000  0  3G 3G17G23
  18139613.201   -12983848.787 7  -9905773.00422        23.250           1.688
  17475402.498   -17996302.019 7 -14023090.11524        26.250           3.656
  18035917.795   -32524842.433 7 -25344003.89524        24.250           3.500
 91  7 27  2 10 14.9900000  0  3G 3G17G23
  18137703.131   -12993890.817 7  -9913597.98222        23.250           1.750
  17469521.943   -18027214.901 7 -14047178.08424        27.250           3.688
  18023333.193   -32590954.496 7 -25395519.76824        22.750           3.594
 91  7 27  2 10 29.9900000  0  3G 3G17G23
  18135818.795   -13003799.628 7  -9921319.14922        23.000           1.813
  17463653.561   -18058043.279 7 -14071200.20624        26.750           3.781
  18010777.811   -32656946.465 7 -25446942.06224        23.250           3.500
 91  7 27  2 10 44.9900000  0  3G 3G17G23
  18133958.732   -13013575.942 7  -9928937.07922        23.750           1.750
  17457802.990   -18088787.685 7 -14095156.89824        27.000           3.906
  17998241.686   -32722819.146 7 -25498271.40924        23.000           3.500
 91  7 27  2 10 59.9900000  0  3G 3G17G23
  18132122.748   -13023221.104 7  -9936452.80922        23.000           1.688
  17451970.170   -18119449.354 7 -14119049.11024        27.000           4.000
  17985730.561   -32788573.692 7 -25549508.69523        24.000           3.469
 91  7 27  2 11 14.9900000  0  3G 3G17G23
  18130311.123   -13032744.521 7  -9943873.66822        24.750           1.781
  17446147.193   -18150037.860 7 -14142884.31824        26.250           4.000
  17973238.592   -32854219.595 7 -25600661.33123        23.500           3.375
 91  7 27  2 11 29.9900000  0  3G 3G17G23
  18128525.342   -13042130.840 7  -9951187.70922        24.750           1.531
  17440345.897   -18180537.881 7 -14166650.57124        26.250           4.094
  17960768.709   -32919741.450 7 -25651717.30623        23.500           3.469
 91  7 27  2 11 44.9900000  0  3G 3G17G23
  18126758.811   -13051388.544 7  -9958401.53022        23.500           1.594
  17434554.693   -18210957.744 7 -14190354.36524        26.500           4.063
  17948322.717   -32985147.296 7 -25702682.88324        23.750           3.500
 91  7 27  2 11 59.9900000  0  3G 3G17G23
  18125027.475   -13060516.198 7  -9965514.01522        24.000           1.594
  17428781.936   -18241296.112 7 -14213994.66524        26.500           4.031
  17935898.100   -33050435.623 7 -25753556.88123        23.250           3.469
 91  7 27  2 12 14.9900000  0  3G 3G17G23
  18123312.897   -13069515.247 7  -9972526.28722        23.500           1.563
  17423025.123   -18271554.374 7 -14237572.53824        26.750           4.000
  17923497.037   -33115607.662 7 -25804340.27324        23.750           3.531
 91  7 27  2 12 29.9900000  0  3G 3G17G23
  18121622.982   -13078383.672 7  -9979436.77822        23.000           1.563
  17417281.092   -18301730.436 7 -14261086.35024        26.250           3.938
  17911119.350   -33180661.455 7 -25855031.52823        24.250           3.375
 91  7 27  2 12 44.9900000  0  3G 3G17G23
  18119964.717   -13087123.414 7  -9986246.99221        23.250           1.438
  17411555.670   -18331826.023 7 -14284537.45924        26.500           3.938
  17898761.459   -33245598.543 7 -25905631.83623        24.250           3.375
 91  7 27  2 12 59.9900000  0  3G 3G17G23
  18118324.061   -13095734.004 7  -9992956.56322        23.250           1.656
  17405843.154   -18361840.725 7 -14307925.54624        25.500           3.906
  17886427.772   -33310418.731 7 -25956141.05723        25.000           3.438
 91  7 27  2 13 14.9900000  0  3G 3G17G23
  18116709.756   -13104218.597 7  -9999567.95322        23.250           1.594
  17400147.201   -18391777.802 7 -14331253.14124        26.500           3.906
  17874113.857   -33375124.766 7 -26006561.33023        24.000           3.469
 91  7 27  2 13 29.9890000  0  3G 3G17G23
  18115119.517   -13112572.407 7 -10006077.44522        22.750           1.531
  17394466.774   -18421631.131 7 -14354515.47824        26.750           3.813
  17861821.079   -33439708.024 7 -26056885.92523        24.000           3.313
 91  7 27  2 13 44.9890000  0  3G 3G17G23
  18113550.157   -13120799.303 7 -10012488.04222        22.000           1.688
  17388798.079   -18451407.180 7 -14377717.59724        27.000           3.906
  17849553.423   -33504179.750 7 -26107123.61623        24.000           3.344
 91  7 27  2 13 59.9890000  0  3G 3G17G23
  18112008.899   -13128905.476 7 -10018804.56522        22.250           1.563
  17383148.149   -18481110.949 7 -14400863.39724        27.250           4.094
  17837303.665   -33568542.279 7 -26157276.21823        24.250           3.375
 91  7 27  2 14 14.9890000  0  3G 3G17G23
  18110494.915   -13136882.954 7 -10025020.80822        22.750           1.625
  17377511.946   -18510734.267 7 -14423946.51024        27.000           4.000
  17825081.157   -33632787.489 7 -26207337.40723        24.500           3.344
 91  7 27  2 14 29.9890000  0  3G 3G17G23
  18109000.384   -13144728.619 7 -10031134.34322        22.500           1.594
  17371887.774   -18540273.745 7 -14446964.29024        26.750           3.875
  17812878.126   -33696912.192 7 -26257304.69723        24.500           3.281
 91  7 27  2 14 44.9890000  0  3G 3G17G23
  18107532.376   -13152442.981 7 -10037145.56322        22.500           1.625
  17366283.415   -18569729.864 7 -14469917.10424        26.500           4.094
  17800700.110   -33760916.439 7 -26307178.11524        24.750           3.500
 91  7 27  2 14 59.9890000  0  3G 3G17G23
  18106086.806   -13160028.864 7 -10043056.67322        22.000           1.688
  17360693.728   -18599105.575 7 -14492807.27124        26.250           3.938
  17788542.548   -33824803.245 7 -26356960.02123        25.250           3.469
 91  7 27  2 15 14.9890000  0  4G 3G21G17G23
  18104671.134   -13167483.601 7 -10048865.58122        22.750           1.656
  21385027.103          -0.14914                         7.000
  17355118.024   -18628398.565 7 -14515632.98124        25.250           4.031
  17776408.923   -33888569.853 7 -26406648.26923        25.750           3.438
 91  7 27  2 15 29.9890000  0  4G 3G21G17G23
  18103275.720   -13174805.745 7 -10054571.17922        22.750           1.781
  21367590.298      -91585.675 4                         6.500
  17349562.439   -18657606.975 7 -14538392.77424        26.000           4.000
  17764298.962   -33952214.345 7 -26456241.36623        25.500           3.438
 91  7 27  2 15 44.9890000  0  4G 3G21G17G23
  18101910.790   -13181994.714 7 -10060173.00822        23.000           1.688
  21350171.259     -183125.544 4                         7.000
  17344019.509   -18686730.221 7 -14561086.21124        26.500           3.906
  17752210.087   -34015736.243 7 -26505738.93424        24.750           3.500
 91  7 27  2 15 59.9890000  0  4G 3G21G17G23
  18100564.626   -13189050.787 7 -10065671.27522        22.250           1.781
  21332753.134     -274619.652 4                         6.750
  17338494.462   -18715768.610 7 -14583713.53524        27.250           3.813
  17740143.024   -34079135.584 7 -26555140.99324        24.250           3.500
 91  7 27  2 16 14.9890000  0  4G 3G21G17G23
  18099245.110   -13195977.037 7 -10071068.38022        21.000           1.563
  21315360.290     -366071.087 4                         7.250
  17332984.774   -18744725.180 7 -14606277.10224        27.500           3.844
  17728100.798   -34142415.510 7 -26604450.00724        25.000           3.500
 91  7 27  2 16 29.9890000  0  4G 3G21G17G23
  18097956.681   -13202773.029 7 -10076363.98822        22.000           1.531
  21297962.181     -457479.011 4                         6.500
  17327490.087   -18773599.240 7 -14628776.37824        27.000           3.844
  17716084.985   -34205575.304 7 -26653665.42023        25.750           3.281
 91  7 27  2 16 44.9890000  0  4G 3G21G17G23
  18096684.603   -13209435.672 7 -10081555.68922        21.500           1.594
  21280584.329     -548840.206 5        -0.34131         7.500           0.375
  17322008.603   -18802387.846 7 -14651209.05524        26.500           3.938
  17704088.157   -34268612.038 7 -26702784.93723        25.750           3.344
 91  7 27  2 16 59.9890000  0  4G 3G21G17G23
  18095445.892   -13215965.758 7 -10086644.10722        22.000           1.563
  21263196.220     -640155.038 4    -71154.53921         7.000           0.250
  17316549.189   -18831091.540 7 -14673575.57124        27.500           3.875
  17692115.603   -34331525.959 7 -26751808.75923        24.750           3.438
 91  7 27  2 17 14.9890000  0  4G 3G21G17G23
  18094229.837   -13222360.346 7 -10091626.93322        22.750           1.531
  21245828.501     -731420.288 4   -142270.15521         6.500           0.250
  17311104.860   -18859707.532 7 -14695873.75124        27.500           3.969
  17680166.407   -34394313.941 7 -26800734.43723        24.500           3.469
 91  7 27  2 17 29.9890000  0  4G 3G21G17G23
  18093034.970   -13228624.509 7 -10096508.13322        22.250           1.625
  21228470.704     -822640.904 4   -213350.97521         7.000           0.344
  17305672.798   -18888240.850 7 -14718107.50724        26.500           4.094
  17668244.829   -34456981.085 7 -26849565.96023        25.750           3.344
 91  7 27  2 17 44.9890000  0  4G 3G21G17G23
  18091870.196   -13234756.393 7 -10101286.26122        22.000           1.563
  21211122.774     -913814.637 5   -284395.28321         7.750           0.188
  17300259.345   -18916689.248 7 -14740275.09224        26.500           4.094
  17656342.399   -34519525.585 7 -26898301.92623        25.750           3.375
 91  7 27  2 17 59.9890000  0  4G 3G21G17G23
  18090727.134   -13240754.973 7 -10105960.51021        21.500           1.469
  21193784.079    -1004940.242 5   -355402.08121         8.000           0.281
  17294862.868   -18945051.889 7 -14762375.85724        26.750           4.063
  17644462.634   -34581946.148 7 -26946941.31623        25.250           3.438
 91  7 27  2 18 14.9890000  0  4G 3G21G17G23
  18089607.837   -13246622.434 7 -10110532.58222        21.000           1.531
  21176453.587    -1096019.671 5   -426372.91021         8.750           0.250
  17289480.681   -18973330.863 7 -14784411.42324        26.750           3.875
  17632606.384   -34644244.706 7 -26995485.63223        25.000           3.406
 91  7 27  2 18 29.9890000  0  4G 3G21G17G23
  18088519.798   -13252360.512 7 -10115003.84621        21.000           1.469
  21159129.970    -1187054.296 5   -497308.77721         9.250           0.156
  17284115.384   -19001527.942 7 -14806383.17124        26.500           3.969
  17620777.314   -34706422.972 7 -27043936.20523        25.750           3.406
 91  7 27  2 18 44.9890000  0  4G 3G21G17G23
  18087452.001   -13257968.127 7 -10119373.44521        21.750           1.406
  21141813.204    -1278042.957 5   -568208.90721         8.750           0.125
  17278765.126   -19029642.089 7 -14828290.30724        25.750           4.063
  17608968.556   -34768479.629 7 -27092292.02823        26.250           3.313
 91  7 27  2 18 59.9890000  0  4G 3G21G17G23
  18086408.017   -13263445.299 7 -10123641.40122        21.500           1.531
  21124507.634    -1368985.253 5   -639072.85921         8.750           0.219
  17273431.728   -19057672.996 7 -14850132.57824        26.000           4.031
  17597180.532   -34830414.491 7 -27140552.94223        26.250           3.313
 91  7 27  2 19 14.9890000  0  4G 3G21G17G23
  18085394.290   -13268785.211 7 -10127802.40722        22.500           1.500
  21107210.423    -1459873.994 5   -709895.10121         8.500           0.250
  17268115.368   -19085614.007 7 -14871904.79424        27.000           3.906
  17585419.782   -34892220.541 7 -27188713.48723        25.250           3.313
 91  7 27  2 19 29.9890000  0  4G 3G21G17G23
  18084404.110   -13273994.066 7 -10131861.28521        22.250           1.375
  21089923.962    -1550715.316 5   -780680.40421         8.250           0.281
  17262813.978   -19113471.254 7 -14893611.74724        27.250           3.938
  17573682.782   -34953904.300 7 -27236778.74023        24.750           3.281
 91  7 27  2 19 44.9890000  0  4G 3G21G17G23
  18083434.087   -13279069.966 7 -10135816.57021        21.750           1.438
  21072644.970    -1641506.928 5   -851426.92221         8.750           0.156
  17257530.329   -19141242.787 7 -14915251.90824        27.250           3.969
  17561967.282   -35015463.735 7 -27284747.11423        25.000           3.281
 91  7 27  2 19 59.9890000  0  4G 3G21G17G23
  18082496.220   -13284016.130 7 -10139670.75921        21.750           1.438
  21055386.243    -1732251.709 5   -922136.97921         9.750           0.250
  17252258.696   -19168931.727 7 -14936827.70924        26.250           3.906
  17550275.571   -35076901.380 7 -27332620.58123        25.500           3.344
 91  7 27  2 20 14.9890000  0  4G 3G21G17G23
  18081578.110   -13288826.095 7 -10143418.81421        20.500           1.469
  21038121.821    -1822943.096 5   -992805.45921         8.250           0.250
  17247008.235   -19196531.587 7 -14958334.09824        27.000           3.969
  17538610.462   -35138211.008 7 -27380394.30423        26.000           3.313
 91  7 27  2 20 29.9890000  0  4G 3G21G17G23
  18080689.064   -13293502.596 7 -10147062.86922        20.500           1.500
  21020861.868    -1913583.487 4  -1063434.15621         6.750           0.281
  17241773.290   -19224044.975 7 -14979773.10624        27.000           4.000
  17526966.884   -35199394.911 7 -27428070.05923        25.750           3.344
 91  7 27  2 20 44.9890000  0  4G 3G21G17G23
  18079823.306   -13298047.487 7 -10150604.37322        21.000           1.500
  21003640.423    -2004174.693 5  -1134024.55821         8.500           0.438
  17236551.509   -19251473.681 7 -15001146.12624        26.500           3.969
  17515345.407   -35260455.034 7 -27475649.36023        25.000           3.313
 91  7 27  2 20 59.9890000  0  4G 3G21G17G23
  18078984.532   -13302462.111 7 -10154044.36822        21.000           1.500
  20986408.618    -2094717.592 5  -1204577.30721         8.000           0.281
  17231347.376   -19278818.912 7 -15022454.11024        26.500           3.844
  17503749.884   -35321392.638 7 -27523133.18723        25.250           3.250
 91  7 27  2 21 14.9890000  0  4G 3G21G17G23
  18078172.103   -13306741.711 7 -10157379.14821        21.500           1.375
  20969181.931    -2185207.003 4  -1275088.36721         7.250           0.313
  17226163.103   -19306075.714 7 -15043693.17524        27.250           3.938
  17492179.157   -35382202.568 7 -27570517.53423        25.500           3.344
 91  7 27  2 21 29.9890000  0  4G 3G21G17G23
  18077382.798   -13310888.811 7 -10160610.69021        22.000           1.344
  20951976.157    -2275645.407 5  -1345559.68421         8.750           0.438
  17220991.251   -19333246.962 7 -15064865.58524        26.500           4.000
  17480631.626   -35442887.380 7 -27617804.38423        25.750           3.375
 91  7 27  2 21 44.9890000  0  4G 3G21G17G23
  18076618.571   -13314901.803 7 -10163737.73121        21.750           1.313
  20934776.157    -2366030.720 5  -1415989.64621         9.000           0.344
  17215838.353   -19360330.744 7 -15085969.83524        26.750           3.969
  17469107.306   -35503445.418 7 -27664992.45223        25.000           3.375
 91  7 27  2 21 59.9890000  0  4G 3G21G17G23
  18075876.165   -13318784.068 7 -10166762.90721        21.500           1.313
  20917584.071    -2456366.199 5  -1486380.77921         8.250           0.375
  17210701.189   -19387330.319 7 -15107008.46924        27.500           3.906
  17457605.603   -35563879.729 7 -27712084.11023        24.750           3.344
 91  7 27  2 22 14.9890000  0  4G 3G21G17G23
  18075165.431   -13322538.426 7 -10169688.41421        21.500           1.281
  20900403.626    -2546654.385 5  -1556735.04321         8.250           0.375
  17205576.899   -19414248.428 7 -15127983.62624        27.250           3.938
  17446129.204   -35624193.002 7 -27759081.44623        25.000           3.438
 91  7 27  2 22 29.9890000  0  4G 3G21G17G23
  18074476.274   -13326157.082 7 -10172508.19021        21.250           1.219
  20883233.274    -2636887.119 5  -1627046.10121         7.750           0.344
  17200472.282   -19441077.339 7 -15148889.27924        27.000           3.906
  17434675.540   -35684377.441 7 -27805978.39723        25.000           3.438
 91  7 27  2 22 44.9890000  0  4G 3G21G17G23
  18073812.103   -13329644.836 7 -10175225.95621        21.500           1.344
  20866075.485    -2727068.990 5  -1697317.52621         8.250           0.438
  17195382.743   -19467821.647 7 -15169729.01924        27.250           3.969
  17423248.071   -35744437.698 7 -27852778.58323        25.000           3.281
 91  7 27  2 22 59.9890000  0  4G 3G21G17G23
  18073174.907   -13332998.068 7 -10177838.89621        21.500           1.313
  20848922.767    -2817196.337 5  -1767546.46221         8.750           0.344
  17190311.376   -19494477.883 7 -15190500.11624        27.000           4.000
  17411843.735   -35804370.107 7 -27899479.14823        25.000           3.281
 91  7 27  2 23 14.9890000  0  4G 3G21G17G23
  18072563.845   -13336221.018 7 -10180350.31721        22.000           1.344
  20831780.235    -2907272.625 5  -1837735.61321         8.000           0.438
  17185253.095   -19521049.698 7 -15211205.43424        26.250           4.094
  17400463.095   -35864178.330 7 -27946082.94723        25.750           3.219
 91  7 27  2 23 29.9880000  0  4G 3G21G17G23
  18071973.246   -13339310.863 7 -10182758.02321        21.500           1.344
  20814647.402    -2997289.179 5  -1907878.21121         8.000           0.469
  17180211.973   -19547532.920 7 -15231841.71824        26.250           4.125
  17389105.590   -35923855.921 7 -27992584.95023        26.000           3.281
 91  7 27  2 23 44.9880000  0  4G 3G21G17G23
  18071411.949   -13342268.935 7 -10185063.05621        22.750           1.344
  20797534.512    -3087258.764 5  -1977984.23221         8.750           0.344
  17175190.051   -19573932.030 7 -15252412.45624        26.000           3.969
  17377772.973   -35983411.568 7 -28038991.92823        25.250           3.219
 91  7 27  2 23 59.9880000  0  4G 3G21G17G23
  18070876.457   -13345089.630 7 -10187261.03221        23.000           1.344
  20780418.402    -3177169.553 5  -2048044.44521         8.750           0.313
  17170183.215   -19600239.690 7 -15272911.93924        25.500           4.063
  17366464.223   -36042835.766 7 -28085296.48723        25.750           3.344
 91  7 27  2 24 14.9880000  0  4G 3G21G17G23
  18070364.207   -13347783.213 7 -10189359.96021        22.500           1.313
  20763320.817    -3267031.570 5  -2118066.66221         8.250           0.406
  17165192.473   -19626466.111 7 -15293348.11524        26.000           4.000
  17355179.817   -36102138.741 7 -28131506.58323        25.500           3.281
 91  7 27  2 24 29.9880000  0  4G 3G21G17G23
  18069876.113   -13350341.738 7 -10191353.65621        21.500           1.313
  20746231.004    -3356836.653 5  -2188044.49521         9.500           0.313
  17160220.418   -19652603.364 7 -15313714.82024        26.500           3.938
  17343919.926   -36161312.344 7 -28177615.86423        26.000           3.281
 91  7 27  2 24 44.9880000  0  4G 3G21G17G23
  18069411.582   -13352765.158 7 -10193242.07221        21.000           1.188
  20729153.926    -3446584.419 5  -2257977.67221         8.750           0.344
  17155263.215   -19678651.241 7 -15334011.87524        26.500           3.938
  17332685.520   -36220356.309 7 -28223624.13723        26.500           3.344
 91  7 27  2 24 59.9880000  0  4G 3G21G17G23
  18068975.871   -13355056.886 7 -10195027.86921        21.000           1.281
  20712083.387    -3536278.095 5  -2327868.70121        10.000           0.406
  17150322.652   -19704612.961 7 -15354241.78824        26.250           4.031
  17321471.496   -36279273.885 7 -28269533.92223        26.000           3.313
 91  7 27  2 25 14.9880000  0  4G 3G21G17G23
  18068564.559   -13357216.760 7 -10196710.91921        20.750           1.219
  20695025.996    -3625917.170 5  -2397717.19021        10.000           0.438
  17145399.348   -19730488.475 7 -15374404.53724        26.250           3.938
  17310285.863   -36338064.934 7 -28315345.11323        26.750           3.313
 91  7 27  2 25 29.9880000  0  4G 3G21G17G23
  18068178.824   -13359244.336 7 -10198290.88221        20.500           1.281
  20677982.535    -3715500.725 5  -2467522.41021        10.000           0.438
  17140491.660   -19756277.001 7 -15394499.50124        27.000           4.000
  17299120.113   -36396728.713 7 -28361057.12523        26.500           3.313
 91  7 27  2 25 44.9880000  0  4G 3G21G17G23
  18067821.574   -13361138.179 7 -10199766.64221        21.250           1.219
  20660939.418    -3805027.349 5  -2537283.27821        10.000           0.406
  17135601.059   -19781977.302 7 -15414525.71624        26.000           3.781
  17287982.715   -36455263.947 7 -28406668.98323        26.500           3.188
 91  7 27  2 25 59.9880000  0  4G 3G21G17G23
  18067488.098   -13362894.693 7 -10201135.38121        21.750           1.344
  20643916.613    -3894492.956 5  -2606996.59021        10.000           0.375
  17130727.027   -19807585.582 7 -15434480.22424        25.750           3.844
  17276865.762   -36513666.743 7 -28452177.64423        25.750           3.156
 91  7 27  2 26 14.9880000  0  4G 3G21G17G23
  18067176.262   -13364517.479 7 -10202399.92821        21.000           1.375
  20626906.567    -3983900.736 5  -2676664.86521        10.000           0.281
  17125872.949   -19833105.215 7 -15454365.65924        27.000           3.969
  17265777.567   -36571940.326 7 -28497585.62623        25.750           3.313
 91  7 27  2 26 29.9880000  0  4G 3G21G17G23
  18066896.090   -13366004.940 7 -10203559.02621        21.000           1.250
  20609901.059    -4073248.950 5  -2746286.74221         9.250           0.438
  17121032.121   -19858534.694 7 -15474180.84124        26.500           3.906
  17254714.895   -36630083.129 7 -28542891.69223        26.250           3.250
 91  7 27  2 26 44.9880000  0  4G 3G21G17G23
  18066634.496   -13367360.182 7 -10204615.08921        21.250           1.344
  20592913.949    -4162540.554 5  -2815864.46821         9.500           0.250
  17116209.746   -19883877.008 7 -15493928.10824        26.000           3.875
  17243674.293   -36688098.189 7 -28588098.21823        26.750           3.281
 91  7 27  2 26 59.9880000  0  4G 3G21G17G23
  18066405.418   -13368580.382 7 -10205565.93021        21.750           1.313
  20575929.301    -4251772.316 5  -2885395.56921         9.500           0.219
  17111404.504   -19909129.133 7 -15513605.09524        26.500           3.969
  17232659.981   -36745982.381 7 -28633202.77123        26.000           3.188
 91  7 27  2 27 14.9880000  0  4G 3G21G17G23
  18066197.449   -13369663.933 7 -10206410.28921        21.750           1.188
  20558951.051    -4340942.208 5  -2954878.50321         8.250           0.375
  17106616.340   -19934289.328 7 -15533210.44724        26.750           4.031
  17221671.785   -36803733.872 7 -28678203.92023        26.250           3.156
 91  7 27  2 27 29.9880000  0  4G 3G21G17G23
  18066022.293   -13370610.507 7 -10207147.90421        21.500           1.250
  20542006.652    -4430049.753 5  -3024312.82621         9.000           0.406
  17101847.293   -19959357.404 7 -15552744.01824        26.750           4.000
  17210707.504   -36861352.266 7 -28723101.35623        26.250           3.125
 91  7 27  2 27 44.9880000  0  4G 3G21G17G23
  18065862.270   -13371422.810 7 -10207780.91121        21.000           1.188
  20525058.387    -4519097.459 5  -3093700.51621         9.250           0.281
  17097094.567   -19984335.835 7 -15572207.73324        26.750           4.031
  17199766.629   -36918840.383 7 -28767897.28223        26.250           3.219
 91  7 27  2 27 59.9880000  0  4G 3G21G17G23
  18065738.402   -13372101.688 7 -10208309.93621        22.000           1.219
  20508122.067    -4608085.597 5  -3163041.82621         8.750           0.219
  17092354.785   -20009225.499 7 -15591602.28124        25.750           4.000
  17188850.535   -36976198.569 7 -28812591.95823        26.000           3.250
 91  7 27  2 28 14.9880000  0  4G 3G21G17G23
  18065632.238   -13372645.666 7 -10208733.86021        21.250           1.250
  20491205.121    -4697012.591 5  -3232335.46021         9.000           0.281
  17087637.692   -20034024.570 7 -15610926.23324        26.500           3.813
  17177961.660   -37033425.404 7 -28857184.28423        26.500           3.313
 91  7 27  2 28 29.9880000  0  4G 3G21G17G23
  18065552.652   -13373050.910 7 -10209049.66521        20.250           1.250
  20474292.106    -4785874.281 5  -3301578.22121         9.500           0.313
  17082937.113   -20058729.441 7 -15630176.78524        26.750           3.844
  17167097.262   -37090516.777 7 -28901671.05523        26.500           3.188
 91  7 27  2 28 44.9880000  0  4G 3G21G17G23
  18065498.973   -13373325.245 7 -10209263.46121        20.000           1.219
  20457391.129    -4874677.972 5  -3370775.79021        10.000           0.313
  17078251.543   -20083347.502 7 -15649359.70624        26.250           3.875
  17156255.934   -37147480.359 7 -28946058.24923        26.500           3.094
 91  7 27  2 28 59.9880000  0  4G 3G21G17G23
  18065477.301   -13373466.023 7                        20.500
  20440499.098    -4963420.918 5  -3439926.01821         9.000           0.375
  17073583.262   -20107876.155 7 -15668472.94924        25.750           3.813
  17145441.074   -37204313.474 7 -28990343.78023        26.500           3.156
 91  7 27  2 29 14.9880000  0  4G 3G21G17G23
  18065477.676   -13373473.299 7                        20.250
  20423626.488    -5052102.985 5  -3509028.81121         9.500           0.406
  17068932.496   -20132315.223 7 -15687516.37624        25.750           3.906
  17134651.973   -37261016.048 7 -29034527.59723        26.750           3.281
 91  7 27  2 29 29.9880000  0  4G 3G21G17G23
  18065493.879   -13373349.158 6                        19.500
  20406767.082    -5140725.908 5  -3578085.50221         9.500           0.344
  17064300.270   -20156666.663 7 -15706491.53124        26.750           3.813
  17123887.082   -37317589.977 7 -29078611.15823        26.750           3.438
 91  7 27  2 29 44.9880000  0  4G 3G21G17G23
  18065545.223   -13373094.308 6                        19.250
  20389918.348    -5229289.984 5  -3647096.36321        10.750           0.344
  17059684.918   -20180931.181 7 -15725398.95924        27.250           3.969
  17113145.309   -37374035.779 7 -29122594.88923        26.250           3.469
 91  7 27  2 29 59.9880000  0  4G 3G21G17G23
  18065616.199   -13372712.456 6 -10208786.12621        19.250           1.156
  20373070.692    -5317798.628 5  -3716064.02521        11.250           0.375
  17055078.949   -20205112.329 7 -15744241.42024        26.500           3.938
  17102427.512   -37430356.979 7 -29166481.53023        26.500           3.281
 91  7 27  2 30 14.9880000  0  4G 3G21G17G23
  18065713.699   -13372195.466 6 -10208383.31621        19.000           1.094
  20356240.363    -5406243.589 5  -3784982.06821        10.250           0.438
  17050498.402   -20229202.259 7 -15763012.79424        27.250           4.000
  17091734.098   -37486545.496 7 -29210264.77523        26.000           3.125
 91  7 27  2 30 29.9880000  0  4G 3G21G17G23
  18065838.817   -13371546.450 7 -10207877.61521        20.250           1.063
  20339419.551    -5494627.307 5  -3853852.39421        10.250           0.469
  17045930.246   -20253203.536 7 -15781715.09824        26.750           4.031
  17081066.238   -37542604.031 7 -29253946.73323        26.000           3.219
 91  7 27  2 30 44.9880000  0  4G 3G21G17G23
  18065991.231   -13370763.846 7 -10207267.82921        20.500           1.063
  20322613.723    -5582948.059 5  -3922673.64321         9.750           0.500
  17041380.215   -20277114.740 7 -15800347.21024        27.000           4.094
  17070423.918   -37598530.972 7 -29297526.15723        26.000           3.156
 91  7 27  2 30 59.9880000  0  4G 3G21G17G23
  18066161.731   -13369850.753 7 -10206556.37121        20.250           1.250
  20305816.035    -5671208.763 5  -3991448.11521        10.250           0.500
  17036844.363   -20300938.753 7 -15818911.38424        26.000           4.094
  17059807.246   -37654329.415 7 -29341005.45223        26.750           3.156
 91  7 27  2 31 14.9880000  0  4G 3G21G17G23
  18066363.606   -13368806.570 7 -10205742.74821        20.750           1.094
  20289038.871    -5759408.559 5  -4060175.11421        11.000           0.594
  17032327.137   -20324674.730 7 -15837406.95724        25.750           4.000
  17049216.145   -37709998.426 7 -29384383.89223        27.000           3.219
 91  7 27  2 31 29.9880000  0  4G 3G21G17G23
  18066584.879   -13367630.740 7 -10204826.55021        20.250           1.156
  20272258.152    -5847546.653 5  -4128854.05021        10.500           0.594
  17027828.090   -20348322.163 7 -15855833.53324        26.000           3.813
  17038645.684   -37765537.438 7 -29427661.03523        27.000           3.156
 91  7 27  2 31 44.9880000  0  4G 3G21G17G23
  18066832.590   -13366321.950 7 -10203806.75321        20.250           1.188
  20255504.856    -5935621.260 5  -4197483.50521        10.000           0.563
  17023347.176   -20371879.662 7 -15874190.03524        26.500           3.844
  17028099.637   -37820944.945 7 -29470835.70323        26.500           3.188
 91  7 27  2 31 59.9880000  0  4G 3G21G17G23
  18067107.434   -13364876.962 7 -10202680.81721        20.250           1.156
  20238754.512    -6023628.771 5  -4266060.68121        10.500           0.469
  17018880.348   -20395343.761 7 -15892473.76224        26.000           3.844
  17017583.496   -37876217.605 7 -29513905.30423        26.750           3.188
 91  7 27  2 32 14.9880000  0  4G 3G21G17G23
  18067408.559   -13363302.794 7 -10201454.22621        20.500           1.094
  20222012.957    -6111576.069 5  -4334590.94721         9.500           0.500
  17014431.152   -20418721.360 7 -15910690.08324        26.250           4.000
  17007088.582   -37931362.288 7 -29556875.17423        26.250           3.156
 91  7 27  2 32 29.9880000  0  4G 3G21G17G23
  18067734.660   -13361594.776 7 -10200123.32521        20.250           1.219
  20205296.981    -6199458.055 5  -4403070.31321        10.250           0.500
  17010000.887   -20442007.459 7 -15928835.09824        26.750           3.969
  16996622.457   -37986373.959 7 -29599741.39023        26.500           3.250
 91  7 27  2 32 44.9880000  0  4G 3G21G17G23
  18068083.942   -13359762.834 7 -10198695.88321        20.250           1.094
  20188580.731    -6287284.429 5  -4471506.35221        10.250           0.500
  17005584.363   -20465212.125 7 -15946916.67224        26.250           3.969
  16986176.301   -38041262.566 7 -29642511.71623        26.500           3.156
 91  7 27  2 32 59.9880000  0  4G 3G21G17G23
  18068453.020   -13357803.560 6 -10197169.20321        19.750           1.094
  20171884.785    -6375051.440 5  -4539896.12121        10.250           0.469
  17001185.152   -20488331.889 7 -15964932.07524        26.250           4.063
  16975754.660   -38096024.640 7 -29685183.45623        26.250           3.219
 91  7 27  2 33 14.9880000  0  4G 3G21G17G23
  18068850.199   -13355717.282 7 -10195543.57621        20.250           1.094
  20155189.832    -6462759.059 5  -4608239.63421        10.500           0.500
  16996803.082   -20511366.855 7 -15982881.40924        26.500           4.000
  16965358.699   -38150660.274 7 -29727756.67223        26.250           3.219
 91  7 27  2 33 29.9880000  0  4G 3G21G17G23
  18069276.121   -13353498.894 7 -10193814.98421        20.250           0.969
  20138511.332    -6550401.750 5  -4676532.55121         9.750           0.469
  16992437.731   -20534311.656 7 -16000760.48224        26.750           4.156
  16954986.043   -38205164.048 7 -29770227.13623        26.000           3.188
 91  7 27  2 33 44.9870000  0  4G 3G21G17G23
  18069718.632   -13351155.604 7 -10191989.08821        20.250           1.125
  20121842.452    -6637980.592 5  -4744775.71221        10.000           0.531
  16988086.773   -20557171.902 7 -16018573.66324        26.500           4.125
  16944638.718   -38259539.405 7 -29812597.52723        26.000           3.125
 91  7 27  2 33 59.9870000  0  4G 3G21G17G23
  18070190.859   -13348683.667 7 -10190062.94021        20.500           1.125
  20105189.905    -6725503.449 5  -4812975.24321        10.250           0.406
  16983751.366   -20579946.998 7 -16036320.50424        26.000           3.938
  16934315.999   -38313789.885 7 -29854870.61823        26.000           3.188
 91  7 27  2 34 14.9870000  0  4G 3G21G17G23
  18070686.437   -13346077.395 7 -10188032.11921        20.750           1.094
  20088548.116    -6812958.248 5  -4881121.74221         9.750           0.531
  16979436.476   -20602629.203 7 -16053994.95724        27.000           3.875
  16924015.374   -38367905.849 7 -29897038.89423        25.250           3.219
 91  7 27  2 34 29.9870000  0  4G 3G21G17G23
  18071209.546   -13343343.993 7 -10185902.23121        21.000           1.156
  20071922.452    -6900352.020 5  -4949220.69521         9.750           0.438
  16975135.734   -20625225.863 7 -16071602.76324        27.000           3.938
  16913744.374   -38421894.426 7 -29939107.90223        25.500           3.219
 91  7 27  2 34 44.9870000  0  4G 3G21G17G23
  18071753.327   -13340483.216 7 -10183673.09621        20.750           1.156
  20055297.937    -6987684.324 5  -5017271.77121         9.250           0.500
  16970850.804   -20647736.919 7 -16089143.85424        25.750           3.969
  16903495.405   -38475755.541 7 -29981077.58723        26.250           3.219
 91  7 27  2 34 59.9870000  0  4G 3G21G17G23
  18072322.210   -13337491.082 7 -10181341.59921        20.750           1.063
  20038693.030    -7074950.600 5  -5085271.37421         9.500           0.563
  16966581.609   -20670157.810 7 -16106614.68824        25.500           3.938
  16893268.929   -38529484.725 7 -30022944.47023        26.000           3.313
 91  7 27  2 35 14.9870000  0  4G 3G21G17G23
  18072916.929   -13334374.077 7 -10178912.79921        20.250           1.063
  20022097.241    -7162157.188 5  -5153224.44421         9.000           0.500
  16962335.452   -20692495.237 7 -16124020.48224        26.500           3.938
  16883070.155   -38583088.600 7 -30064713.72023        26.250           3.250
 91  7 27  2 35 29.9870000  0  4G 3G21G17G23
  18073531.577   -13331130.553 7 -10176385.42621        20.000           1.125
  20005516.749    -7249301.946 5  -5221129.36321         9.750           0.500
  16958099.632   -20714747.259 7 -16141359.73624        26.500           3.969
  16872893.991   -38636565.035 7 -30106383.65723        26.250           3.281
 91  7 27  2 35 44.9870000  0  4G 3G21G17G23
  18074172.030   -13327761.606 7 -10173760.31121        20.000           1.156
  19988938.835    -7336385.697 5  -5288986.73521         9.500           0.594
  16953881.085   -20736914.747 7 -16158633.11324        26.500           3.906
  16862740.929   -38689914.886 7 -30147954.96123        26.000           3.094
 91  7 27  2 35 59.9870000  0  4G 3G21G17G23
  18074835.655   -13324262.773 6 -10171033.98521        19.500           1.125
  19972381.616    -7423403.860 5  -5356792.98421        10.250           0.500
  16949680.109   -20758993.071 7 -16175837.01124        26.500           3.969
  16852611.796   -38743133.857 7 -30189424.27223        25.750           3.188
 91  7 27  2 36 14.9870000  0  4G 3G21G17G23
  18075528.507   -13320634.663 6 -10168206.92321        19.500           1.125
  19955840.999    -7510356.653 5  -5424548.33421        10.750           0.438
  16945496.554   -20780982.643 7 -16192971.75024        26.750           4.000
  16842511.319   -38796222.410 7 -30230791.96623        26.000           3.219
 91  7 27  2 36 29.9870000  0  4G 3G21G17G23
  18076243.218   -13316882.020 6 -10165282.83721        19.000           1.156
  19939302.952    -7597248.454 5  -5492256.12921        11.000           0.438
  16941328.273   -20802888.190 7 -16210041.01324        26.750           4.000
  16832433.312   -38849184.960 7 -30272061.47523        26.250           3.125
 91  7 27  2 36 44.9870000  0  4G 3G21G17G23
  18076979.484   -13312998.465 6 -10162256.72421        19.500           1.063
  19922783.734    -7684072.535 6  -5559911.15521        12.000           0.500
  16937173.819   -20824703.302 7 -16227039.81924        25.750           3.875
  16822380.601   -38902015.000 7 -30313227.73023        26.500           3.250
 91  7 27  2 36 59.9870000  0  4G 3G21G17G23
  18077742.780   -13308987.750 6 -10159131.53421        19.000           1.031
  19906272.351    -7770832.349 5  -5627516.10521        11.250           0.406
  16933041.124   -20846431.527 7 -16243970.91624        26.500           3.875
  16812350.007   -38954716.194 7 -30354293.58223        25.750           3.156
 91  7 27  2 37 14.9870000  0  4G 3G21G17G23
  18078532.999   -13304851.642 6 -10155908.62621        19.500           0.938
  19889767.015    -7857529.360 5  -5695072.12321        10.750           0.406
  16928921.632   -20868074.447 7 -16260835.53624        26.500           3.875
  16802346.046   -39007290.207 7 -30395260.32823        26.000           3.156
 91  7 27  2 37 29.9870000  0  4G 3G21G17G23
  18079343.171   -13300589.128 6 -10152587.24021        19.500           1.031
  19873292.194    -7944162.170 6  -5762578.10021        12.250           0.500
  16924822.226   -20889630.855 7 -16277632.74524        27.000           3.938
  16792365.319   -39059735.816 7 -30436127.02323        25.250           3.125
 91  7 27  2 37 44.9870000  0  4G 3G21G17G23
  18080179.984   -13296201.885 7 -10149168.64121        20.250           1.000
  19856807.913    -8030732.222 5  -5830035.22021        10.250           0.406
  16920735.234   -20911102.353 7 -16294363.79324        26.500           3.781
  16782412.835   -39112054.507 7 -30476894.82523        26.500           3.156
 91  7 27  2 37 59.9870000  0  4G 3G21G17G23
  18081037.327   -13291688.512 6 -10145651.76621        19.500           1.000
  19840354.929    -8117237.543 5  -5897441.83921        11.750           0.625
  16916666.030   -20932487.498 7 -16311027.54924        26.500           3.625
  16772479.890   -39164244.488 7 -30517562.33223        26.500           3.125
 91  7 27  2 38 14.9870000  0  4G 3G21G17G23
  18081921.234   -13287050.982 6 -10142038.14521        19.500           1.031
  19823900.702    -8203680.105 5  -5964799.58121        11.500           0.531
  16912612.890   -20953788.117 7 -16327625.44924        26.750           3.781
  16762571.640   -39216308.010 7 -30558131.30323        26.250           3.063
 91  7 27  2 38 29.9870000  0  4G 3G21G17G23
  18082823.984   -13282292.289 6 -10138330.12121        19.000           0.969
  19807464.546    -8290062.256 5  -6032110.25521        11.500           0.469
  16908575.124   -20975006.867 7 -16344159.55224        26.750           3.875
  16752687.905   -39268247.586 7 -30598603.68823        26.750           3.031
 91  7 27  2 38 44.9870000  0  4G 3G21G17G23
  18083755.843   -13277409.388 7 -10134525.30321        20.000           1.000
  19791039.054    -8376380.936 5  -6099371.46021        11.750           0.500
  16904548.632   -20996140.840 7 -16360627.59024        25.000           3.906
  16742827.460   -39320060.190 7 -30638977.13023        26.750           3.156
 91  7 27  2 38 59.9870000  0  4G 3G21G17G23
  18084709.280   -13272399.707 7 -10130621.69721        20.250           0.906
  19774624.343    -8462633.264 5  -6166580.96821        11.250           0.500
  16900545.819   -21017187.121 7 -16377027.30024        25.500           3.969
  16732994.226   -39371743.126 7 -30679249.53723        27.000           3.156
 91  7 27  2 39 14.9870000  0  4G 3G21G17G23
  18085686.148   -13267263.460 6 -10126619.47021        19.500           0.969
  19758223.241    -8548819.005 5  -6233738.58221        11.500           0.531
  16896559.335   -21038145.955 7 -16393358.86424        26.250           3.938
  16723183.976   -39423296.617 7 -30719421.08223        27.000           3.156
 91  7 27  2 39 29.9870000  0  4G 3G21G17G23
  18086685.491   -13261999.557 6 -10122517.76721        19.000           0.969
  19741839.890    -8634936.538 6  -6300843.07521        12.250           0.531
  16892589.319   -21059015.779 7 -16409621.07124        27.000           4.000
  16713396.983   -39474719.110 7 -30759490.54623        26.250           3.031
 91  7 27  2 39 44.9870000  0  4G 3G21G17G23
  18087713.140   -13256608.945 6 -10118317.31721        19.500           1.063
  19725460.077    -8720986.690 6  -6367895.02121        12.250           0.563
  16888633.991   -21079797.555 7 -16425814.67024        26.250           3.969
  16703636.968   -39526011.399 7 -30799458.55023        26.500           3.094
 91  7 27  2 39 59.9870000  0  4G 3G21G17G23
  18088761.796   -13251094.070 6 -10114020.06321        18.000           1.000
  19709103.710    -8806971.453 6  -6434896.01721        12.250           0.594
  16884694.976   -21100493.699 7 -16441941.54524        26.500           3.938
  16693899.702   -39577176.023 7 -30839327.08023        26.750           3.000
 91  7 27  2 40 14.9870000  0  4G 3G21G17G23
  18089834.273   -13245458.948 6 -10109629.10621        18.000           0.969
  19692746.929    -8892894.584 5  -6501849.02021        11.000           0.625
  16880770.773   -21121107.944 7 -16458004.59624        26.250           3.938
  16684189.851   -39628216.603 7 -30879098.95323        27.750           3.125
 91  7 27  2 40 29.9870000  0  4G 3G21G17G23
  18090927.921   -13239701.238 6 -10105142.62421        18.000           0.969
  19676407.062    -8978753.455 5  -6568751.94321        10.750           0.563
  16876865.726   -21141637.675 7 -16474001.79924        26.250           3.906
  16674502.366   -39679130.620 8 -30918772.20223        28.250           3.125
 91  7 27  2 40 44.9870000  0  4G 3G21G17G23
  18092049.109   -13233820.757 6 -10100560.46621        19.000           1.063
  19660082.398    -9064547.550 5  -6635604.35921        11.250           0.656
  16872975.452   -21162082.759 7 -16489933.04824        26.000           3.781
  16664834.765   -39729917.843 7 -30958346.65623        27.750           2.938
 91  7 27  2 40 59.9870000  0  4G 3G21G17G23
  18093190.984   -13227823.713 6 -10095887.47721        18.500           1.000
  19643768.015    -9150282.754 5  -6702410.89321        11.750           0.594
  16869099.007   -21182449.414 7 -16505803.17624        25.750           3.813
  16655194.280   -39780584.453 7 -30997827.11623        27.500           3.000
 91  7 27  2 41 14.9870000  0  4G 3G21G17G23
  18094354.069   -13221706.306 6 -10091120.72021        18.000           0.969
  19627465.218    -9235954.959 5  -6769168.35521        11.500           0.625
  16865240.312   -21202733.344 7 -16521608.84424        26.500           3.969
  16645575.554   -39831126.485 7 -31037210.50823        27.250           2.875
 91  7 27  2 41 29.9870000  0  4G 3G21G17G23
  18095541.038   -13215464.867 6 -10086257.30821        18.250           0.906
  19611170.976    -9321560.126 5  -6835873.60321        10.500           0.625
  16861397.093   -21222930.830 7 -16537347.15424        27.000           4.000
  16635981.874   -39881539.983 7 -31076493.75023        27.250           2.938
 91  7 27  2 41 44.9870000  0  4G 3G21G17G23
  18096753.796   -13209092.559 6 -10081291.92021        18.000           0.844
  19594898.718    -9407091.197 5  -6902521.07421        11.250           0.594
  16857571.804   -21243035.029 7 -16553012.76924        27.000           4.000
  16626414.960   -39931818.060 7 -31115671.46323        27.000           3.000
 91  7 27  2 41 59.9870000  0  4G 3G21G17G23
  18097990.765   -13202597.944 6 -10076231.21921        17.500           1.000
  19578634.288    -9492556.236 5  -6969117.10721        11.250           0.594
  16853759.671   -21263054.080 7 -16568612.03824        26.250           3.969
  16616871.124   -39981968.861 7 -31154750.00523        27.500           2.969
 91  7 27  2 42 14.9870000  0  4G 3G21G17G23
  18099245.366   -13195980.551 6 -10071074.85121        16.750           0.844
  19562383.491    -9577954.522 5  -7035661.12921        11.250           0.688
  16849967.624   -21282987.465 7 -16584144.54624        26.250           4.000
  16607354.124   -40031991.926 8 -31193729.00523        28.500           2.969
 91  7 27  2 42 29.9870000  0  4G 3G21G17G23
  18100528.976   -13189239.524 6 -10065822.15721        17.000           0.813
  19546151.468    -9663284.818 5  -7102152.15721        11.750           0.625
  16846190.726   -21302834.083 7 -16599609.44424        26.000           4.000
  16597859.632   -40081886.290 8 -31232607.71823        28.250           2.969
 91  7 27  2 42 44.9870000  0  4G 3G21G17G23
  18101837.312   -13182378.033 6 -10060475.57621        17.500           0.875
  19529921.273    -9748550.119 6  -7168592.55121        12.250           0.500
  16842430.351   -21322596.925 7 -16615009.06824        26.750           4.125
  16588386.265   -40131655.097 7 -31271388.59923        27.250           2.906
 91  7 27  2 42 59.9870000  0  4G 3G21G17G23
  18103165.468   -13175397.220 6 -10055036.01721        17.750           0.844
  19513707.421    -9833751.051 5  -7234982.78321        11.500           0.594
  16838686.085   -21342277.109 7 -16630344.28024        26.750           4.063
  16578940.249   -40181299.076 7 -31310072.20623        27.000           2.969
 91  7 27  2 43 14.9870000  0  4G 3G21G17G23
  18104520.155   -13168297.264 6 -10049503.61521        18.250           0.938
  19497505.741    -9918887.465 5  -7301322.75121        11.250           0.438
  16834955.569   -21361874.757 7 -16645615.18324        26.000           3.969
  16569518.616   -40230818.273 7 -31348658.59023        27.500           2.906
 91  7 27  2 43 29.9870000  0  4G 3G21G17G23
  18105893.132   -13161077.529 6 -10043877.90021        18.000           1.063
  19481317.085   -10003958.432 5  -7367611.72221        11.250           0.531
  16831243.109   -21381389.125 7 -16660821.18924        26.250           3.688
  16560116.585   -40280212.113 7 -31387147.28523        27.250           2.938
 91  7 27  2 43 44.9870000  0  4G 3G21G17G23
  18107290.569   -13153737.584 6 -10038158.50421        18.250           0.906
  19465144.148   -10088963.032 5  -7433848.98121        11.750           0.469
  16827547.296   -21400819.332 7 -16675961.61624        26.250           3.844
  16550740.968   -40329479.860 7 -31425537.73323        27.750           2.875
 91  7 27  2 43 59.9870000  0  4G 3G21G17G23
  18108707.304   -13146278.193 6 -10032346.04721        18.000           0.906
  19448974.202   -10173901.855 5  -7500034.97321        11.000           0.563
  16823863.007   -21420166.152 7 -16691037.07224        25.750           3.906
  16541390.702   -40378622.122 8 -31463830.39723        28.250           2.844
 91  7 27  2 44 14.9860000  0  4G 3G21G17G23
  18110150.510   -13138703.227 6 -10026443.50821        18.500           0.938
  19432832.869   -10258772.242 6  -7566167.64521        12.250           0.469
  16820196.885   -21439431.280 7 -16706048.85824        26.000           4.000
  16532064.705   -40427638.918 8 -31502025.29023        28.000           2.938
 91  7 27  2 44 29.9860000  0  4G 3G21G17G23
  18111613.526   -13131010.943 6 -10020449.57521        18.250           0.938
  19416691.424   -10343584.400 6  -7632254.95321        12.250           0.563
  16816546.119   -21458616.607 7 -16720998.47124        26.000           4.094
  16522760.643   -40476535.848 8 -31540126.77923        28.250           2.906
 91  7 27  2 44 44.9860000  0  4G 3G21G17G23
  18113102.916   -13123198.696 6 -10014362.13821        18.500           0.875
  19400565.658   -10428329.054 6  -7698289.65221        12.250           0.500
  16812912.033   -21477717.344 7 -16735882.17224        26.000           4.125
  16513478.690   -40525306.256 7 -31578129.68623        27.250           2.875
 91  7 27  2 44 59.9860000  0  4G 3G21G17G23
  18114611.604   -13115265.328 6 -10008180.33221        18.750           0.875
  19384447.096   -10513004.938 6  -7764270.77221        12.000           0.625
  16809294.072   -21496732.375 7 -16750699.08124        26.500           4.094
  16504220.971   -40573948.892 7 -31616033.03523        27.000           2.875
 91  7 27  2 45 14.9860000  0  4G 3G21G17G23
  18116142.127   -13107212.766 6 -10001905.65421        18.250           0.844
  19368347.604   -10597613.543 6  -7830199.45021        12.000           0.719
  16805690.815   -21515663.381 7 -16765450.51724        26.250           4.063
  16494987.369   -40622465.600 7 -31653838.25223        26.750           2.906
 91  7 27  2 45 29.9860000  0  4G 3G21G17G23
  18117694.932   -13099045.323 6  -9995541.45321        17.000           0.844
  19352259.033   -10682158.975 6  -7896078.91921        12.250           0.719
  16802104.369   -21534514.395 7 -16780139.61724        26.750           4.094
  16485780.174   -40670860.635 7 -31691548.66423        27.250           2.813
 91  7 27  2 45 44.9860000  0  4G 3G21G17G23
  18119274.182   -13090758.968 6  -9989084.59221        17.500           0.844
  19336185.494   -10766636.691 6  -7961905.61421        12.250           0.656
  16798532.713   -21553281.235 7 -16794763.13824        26.500           4.219
  16476593.744   -40719129.454 7 -31729160.71723        27.500           2.844
 91  7 27  2 45 59.9860000  0  4G 3G21G17G23
  18120870.627   -13082356.369 6  -9982537.14921        17.500           0.969
  19320117.166   -10851049.005 5  -8027681.36021        11.750           0.813
  16794975.330   -21571966.742 7 -16809323.28124        26.000           4.156
  16467431.752   -40767274.788 8 -31766676.55423        28.500           2.750
 91  7 27  2 46 14.9860000  0  4G 3G21G17G23
  18122491.690   -13073838.212 6  -9975899.66321        16.250           0.844
  19304069.979   -10935396.155 6  -8093406.32221        12.500           0.656
  16791436.416   -21590570.981 7 -16823820.08924        26.250           4.125
  16458296.713   -40815296.978 8 -31804096.42823        29.000           2.875
 91  7 27  2 46 29.9860000  0  4G 3G21G17G23
  18124136.416   -13065204.187 6  -9969171.91521        17.250           0.875
  19288032.963   -11019677.699 6  -8159080.15021        13.250           0.719
  16787912.213   -21609093.596 7 -16838253.30324        26.500           4.094
  16449179.143   -40863195.634 7 -31841420.04823        27.500           2.688
 91  7 27  2 46 44.9860000  0  4G 3G21G17G23
  18125801.479   -13056456.763 6  -9962355.77521        17.250           0.875
  19272009.580   -11103895.750 6  -8224704.51321        13.750           0.750
  16784401.877   -21627536.879 7 -16852624.70024        27.000           3.969
  16440086.682   -40910973.274 7 -31878649.36823        26.500           2.750
 91  7 27  2 46 59.9860000  0  4G 3G21G17G23
  18127485.901   -13047588.086 6  -9955445.15721        17.500           0.813
  19255994.471   -11188042.024 6  -8290272.94521        13.000           0.688
  16780907.697   -21645892.961 7 -16866928.14824        27.000           4.156
  16431016.268   -40958621.726 7 -31915778.02823        25.750           2.750
 91  7 27  2 47 14.9860000  0  4G 3G21G17G23
  18129197.307   -13038598.597 6  -9948440.39721        17.250           0.813
  19239996.572   -11272116.816 6  -8355785.68521        13.750           0.688
  16777432.916   -21664162.230 7 -16881163.94724        26.750           4.031
  16421977.057   -41006141.393 7 -31952806.33323        26.750           2.688
 91  7 27  2 47 29.9860000  0  4G 3G21G17G23
  18130930.424   -13029496.856 6  -9941348.17221        16.500           0.875
  19224010.463   -11356128.139 6  -8421248.97221        13.250           0.688
  16773970.440   -21682352.819 7 -16895338.43024        27.000           4.125
  16412959.307   -41053540.592 8 -31989740.76623        28.000           2.719
 91  7 27  2 47 44.9860000  0  4G 3G21G17G23
  18132684.916   -13020275.590 6  -9934162.81921        16.500           0.750
  19208036.401   -11440068.502 6  -8486656.97021        12.250           0.750
  16770528.002   -21700457.189 8 -16909445.73624        28.000           4.188
  16403963.971   -41100812.043 8 -32026575.65023        28.250           2.750
 91  7 27  2 47 59.9860000  0  4G 3G21G17G23
  18134459.088   -13010939.198 6  -9926887.74621        16.250           0.750
  19192076.877   -11523941.862 6  -8552012.74521        12.500           0.750
  16767098.424   -21718479.587 7 -16923489.17124        27.750           4.250
  16394992.072   -41147959.846 8 -32063314.18723        28.250           2.750
 91  7 27  2 48 14.9860000  0  4G 3G21G17G23
  18136261.455   -13001488.111 6  -9919523.29621        16.500           0.750
  19176125.033   -11607748.338 6  -8617316.42221        12.250           0.781
  16763682.307   -21736420.255 7 -16937468.92124        27.000           4.250
  16386043.565   -41194984.345 8 -32099956.63923        28.000           2.813
 91  7 27  2 48 29.9860000  0  4G 3G21G17G23
  18138080.611   -12991918.590 6  -9912066.57221        16.250           0.750
  19160193.072   -11691483.662 6  -8682564.62521        13.000           0.719
  16760285.651   -21754275.269 7 -16951381.92824        27.250           4.250
  16377116.822   -41241881.520 7 -32136499.87523        27.250           2.813
 91  7 27  2 48 44.9860000  0  4G 3G21G17G23
  18139922.408   -12982237.421 6  -9904522.84321        16.250           0.750
  19144270.432   -11775154.405 6  -8747762.51921        13.250           0.719
  16756900.690   -21772051.186 7 -16965233.29324        26.750           4.250
  16368214.276   -41288658.031 7 -32172949.10023        26.750           2.625
 91  7 27  2 48 59.9860000  0  4G 3G21G17G23
  18141785.979   -12972440.505 6  -9896888.92121        16.250           0.750
  19128364.635   -11858756.238 6  -8812906.73621        13.500           0.719
  16753536.057   -21789743.795 7 -16979019.74324        27.250           4.125
  16359337.158   -41335309.585 7 -32209300.95523        26.250           2.719
 91  7 27  2 49 14.9860000  0  4G 3G21G17G23
  18143674.361   -12962528.925 6  -9889165.65321        16.500           0.688
  19112464.666   -11942289.853 6  -8877997.79221        12.750           0.719
  16750183.182   -21807354.341 7 -16992742.25824        27.250           4.094
  16350482.244   -41381837.263 7 -32245556.28523        26.500           2.656
 91  7 27  2 49 29.9860000  0  4G 3G21G17G23
  18145582.908   -12952506.755 6  -9881356.21421        16.000           0.781
  19096577.736   -12025759.006 6  -8943038.60621        12.750           0.781
  16746847.846   -21824886.507 7 -17006403.69424        27.250           4.125
  16341653.291   -41428244.851 7 -32281718.02923        27.750           2.656
 91  7 27  2 49 44.9860000  0  4G 3G21G17G23
  18147509.947   -12942373.767 6  -9873460.42421        15.750           0.781
  19080714.104   -12109162.862 6  -9008028.54421        13.500           0.781
  16743529.322   -21842339.594 8 -17020003.52024        28.000           4.125
  16332846.744   -41474531.906 8 -32317785.85423        28.250           2.656
 91  7 27  2 49 59.9860000  0  4G 3G21G17G23
  18149456.354   -12932127.114 6  -9865476.06421        15.000           0.750
  19064855.127   -12192498.439 6  -9072965.27221        13.750           0.688
  16740222.619   -21859710.613 7 -17033539.38424        27.500           4.250
  16324062.572   -41520695.694 8 -32353757.62223        28.750           2.594
 91  7 27  2 50 14.9860000  0  4G 3G21G17G23
  18151433.057   -12921762.852 6  -9857400.04921        16.250           0.813
  19049009.510   -12275761.365 6  -9137845.41221        13.000           0.688
  16736933.557   -21876995.770 8 -17047008.35024        28.000           4.219
  16315301.455   -41566731.930 7 -32389629.99723        27.250           2.563
 91  7 27  2 50 29.9860000  0  4G 3G21G17G23
  18153423.385   -12911292.942 6  -9849241.73821        15.500           0.781
  19033179.010   -12358963.087 6  -9202677.85421        13.750           0.750
  16733656.861   -21894206.615 8 -17060419.41824        28.000           4.250
  16306561.713   -41612652.196 7 -32425412.01023        27.000           2.563
 91  7 27  2 50 44.9860000  0  4G 3G21G17G23
  18155435.119   -12900712.602 6  -9840997.35921        15.750           0.719
  19017354.010   -12442098.623 6  -9267458.71321        13.500           0.719
  16730397.736   -21911338.271 7 -17073768.76124        27.500           4.188
  16297845.229   -41658451.823 7 -32461100.02622        26.500           2.469
 91  7 27  2 50 59.9860000  0  4G 3G21G17G23
  18157473.291   -12890014.835 6  -9832661.48021        15.500           0.781
  19001550.885   -12525160.788 6  -9332182.40821        13.500           0.719
  16727152.924   -21928383.491 7 -17087050.75824        27.250           4.344
  16289154.744   -41704123.659 7 -32496688.46523        27.250           2.594
 91  7 27  2 51 14.9860000  0  4G 3G21G17G23
  18159529.151   -12879213.959 6  -9824245.26021        15.500           0.906
  18985758.541   -12608163.585 6  -9396859.84021        13.250           0.719
  16723922.315   -21945356.425 7 -17100276.43324        27.250           4.281
  16280485.815   -41749681.881 8 -32532188.36923        28.250           2.594
 91  7 27  2 51 29.9860000  0  4G 3G21G17G23
  18161604.432   -12868304.327 6  -9815744.30321        15.000           0.781
  18969974.119   -12691100.864 6  -9461486.21121        13.750           0.813
  16720709.604   -21962251.075 7 -17113441.10524        27.000           4.250
  16271838.807   -41795120.680 8 -32567595.21723        28.250           2.656
 91  7 27  2 51 44.9860000  0  4G 3G21G17G23
  18163700.947   -12857289.651 6  -9807161.48421        15.500           0.750
  18954203.010   -12773975.961 6  -9526064.13721        13.750           0.750
  16717507.330   -21979070.925 7 -17126547.49724        26.500           4.094
  16263214.791   -41840443.654 8 -32602911.80523        28.500           2.594
 91  7 27  2 51 59.9860000  0  4G 3G21G17G23
  18165817.557   -12846163.614 6  -9798491.89421        15.500           0.719
  18938441.299   -12856782.060 6  -9590588.30221        13.250           0.813
  16714324.736   -21995809.593 7 -17139590.62224        27.750           4.125
  16254615.807   -41885644.117 8 -32638132.92723        28.000           2.563
 91  7 27  2 52 14.9860000  0  4G 3G21G17G23
  18167956.408   -12834923.513 6  -9789733.42321        15.500           0.719
  18922695.916   -12939516.381 6  -9655056.54421        13.250           0.750
  16711153.697   -22012464.510 7 -17152568.49524        27.250           4.094
  16246036.229   -41930719.432 7 -32673256.54223        27.500           2.594
 91  7 27  2 52 29.9860000  0  4G 3G21G17G23
  18170117.947   -12823574.103 6  -9780889.76721        16.000           0.813
  18906969.057   -13022183.029 6  -9719472.02921        13.750           0.813
  16707999.986   -22029039.802 7 -17165484.32324        27.500           4.000
  16237480.908   -41975673.930 7 -32708286.01623        27.000           2.500
 91  7 27  2 52 44.9860000  0  4G 3G21G17G23
  18172295.190   -12812124.621 6  -9771968.15021        16.000           0.750
  18891247.463   -13104791.006 6  -9783841.82521        14.000           0.750
  16704857.697   -22045544.528 7 -17178345.16424        26.500           4.188
  16228946.940   -42020516.668 7 -32743228.40423        27.750           2.531
 91  7 27  2 52 59.9860000  0  4G 3G21G17G23
  18174496.033   -12800571.012 6  -9762965.39621        16.750           0.750
  18875541.674   -13187335.986 6  -9848162.51321        13.750           0.781
  16701730.080   -22061974.747 7 -17191147.94124        25.750           4.188
  16220435.979   -42065243.761 8 -32778080.67723        28.250           2.531
 91  7 27  2 53 14.9860000  0  4G 3G21G17G23
  18176716.026   -12788909.981 6  -9753878.92821        16.250           0.625
  18859839.861   -13269814.201 6  -9912431.17921        12.500           0.844
  16698620.799   -22078326.603 7 -17203889.64824        26.750           4.281
  16211947.252   -42109851.516 8 -32812839.95022        28.000           2.469
 91  7 27  2 53 29.9860000  0  4G 3G21G17G23
  18178952.760   -12777139.477 6  -9744707.15321        16.500           0.625
  18844156.479   -13352223.263 6  -9976645.96121        12.250           0.781
  16695523.166   -22094597.857 7 -17216568.55824        26.250           4.219
  16203484.901   -42154337.837 8 -32847504.59922        29.000           2.469
 91  7 27  2 53 44.9860000  0  4G 3G21G17G23
  18181213.736   -12765266.200 6  -9735455.30221        15.750           0.688
  18828494.479   -13434569.542 6 -10040811.84321        13.750           0.781
  16692440.151   -22110795.185 7 -17229189.85824        26.250           4.375
  16195039.861   -42198709.257 8 -32882079.72323        28.250           2.531
 91  7 27  2 53 59.9860000  0  4G 3G21G17G23
  18183494.940   -12753282.861 6  -9726117.68121        15.750           0.719
  18812839.994   -13516845.531 6 -10104922.94221        14.000           0.656
  16689376.158   -22126911.452 7 -17241748.00324        27.250           4.188
  16186619.463   -42242958.608 7 -32916559.72823        27.500           2.531
 91  7 27  2 54 14.9860000  0  4G 3G21G17G23
  18185791.518   -12741192.803 6  -9716696.92421        15.000           0.688
  18797191.526   -13599054.011 6 -10168981.42221        13.250           0.750
  16686320.533   -22142949.309 7 -17254245.04724        27.000           4.156
  16178220.971   -42287088.634 7 -32950946.75823        27.750           2.531
 91  7 27  2 54 29.9860000  0  4G 3G21G17G23
  18188112.955   -12728999.146 6  -9707195.43721        15.250           0.656
  18781560.940   -13681197.805 6 -10232989.52021        13.750           0.656
  16683283.674   -22158911.744 7 -17266683.32124        26.750           4.063
  16169845.127   -42331102.287 7 -32985243.10323        27.750           2.500
 91  7 27  2 54 44.9850000  0  4G 3G21G17G23
  18190457.497   -12716700.722 6  -9697612.28721        15.000           0.688
  18765939.185   -13763269.117 6 -10296941.14821        13.750           0.719
  16680260.903   -22174795.622 7 -17279060.38224        25.500           3.969
  16161492.919   -42374994.635 8 -33019444.92222        28.500           2.438
 91  7 27  2 54 59.9850000  0  4G 3G21G17G23
  18192816.521   -12704295.140 6  -9687945.65221        15.500           0.656
  18750337.708   -13845277.696 6 -10360843.87321        14.250           0.781
  16677253.310   -22190601.960 7 -17291377.01824        24.750           3.969
  16153161.638   -42418770.564 8 -33053556.02523        28.500           2.500
 91  7 27  2 55 14.9850000  0  4G 3G21G17G23
  18195197.310   -12691783.024 6  -9678195.99821        15.250           0.531
  18734746.794   -13927217.551 6 -10424693.03821        14.500           0.813
  16674260.263   -22206329.312 7 -17303632.10824        25.500           4.000
  16144856.044   -42462426.735 8 -33087573.80922        28.500           2.406
 91  7 27  2 55 29.9850000  0  4G 3G21G17G23
  18197600.747   -12679165.044 6  -9668363.87021        16.000           0.688
  18719168.896   -14009089.099 6 -10488488.98321        14.500           0.688
  16671283.302   -22221978.408 7 -17315826.21024        25.250           4.094
  16136570.552   -42505963.896 8 -33121498.86022        28.000           2.344
 91  7 27  2 55 44.9850000  0  4G 3G21G17G23
  18200020.927   -12666442.030 6  -9658449.88221        16.000           0.750
  18703596.013   -14090892.607 6 -10552231.93021        13.000           0.781
  16668321.005   -22237549.508 7 -17327959.54424        26.500           4.094
  16128308.638   -42549382.526 7 -33155331.55423        27.750           2.563
 91  7 27  2 55 59.9850000  0  4G 3G21G17G23
  18202459.966   -12653613.346 6  -9648453.55721        15.000           0.563
  18688045.325   -14172627.180 6 -10615921.16621        14.000           0.813
  16665375.021   -22253042.049 7 -17340031.66624        27.500           4.094
  16120068.521   -42592682.109 7 -33189071.48022        27.750           2.469
 91  7 27  2 56 14.9850000  0  4G 3G21G17G23
  18204923.669   -12640676.678 6  -9638373.08721        14.750           0.656
  18672503.614   -14254290.119 6 -10679554.57121        14.500           0.844
  16662441.185   -22268453.387 7 -17352040.51024        26.750           4.094
  16111850.685   -42635859.930 8 -33222716.52522        28.000           2.375
 91  7 27  2 56 29.9850000  0  4G 3G21G17G23
  18207407.950   -12627631.375 6  -9628207.98421        16.250           0.750
  18656979.333   -14335880.444 6 -10743131.38421        15.000           0.938
  16659519.974   -22283782.461 7 -17363985.25524        24.750           3.844
  16103658.997   -42678915.190 8 -33256266.07023        28.500           2.500
 91  7 27  2 56 44.9850000  0  4G 3G21G17G23
  18209909.224   -12614486.329 6  -9617965.12321        16.000           0.594
  18641465.599   -14417406.692 6 -10806658.27021        14.000           0.906
  16656621.044   -22299038.241 7 -17375872.88524        25.250           3.781
  16095488.114   -42721856.607 8 -33289726.90022        28.500           2.438
 91  7 27  2 56 59.9850000  0  4G 3G21G17G23
  18212426.388   -12601231.845 6  -9607637.01521        14.750           0.625
  18625964.888   -14498858.673 6 -10870127.28821        14.500           0.844
  16653731.185   -22314210.752 7 -17387695.62224        25.500           3.750
  16087339.146   -42764674.166 8 -33323091.21722        28.000           2.406
 91  7 27  2 57 14.9850000  0  4G 3G21G17G23
  18214972.700   -12587875.591 6  -9597229.58521        15.000           0.656
  18610482.927   -14580243.856 6 -10933544.26521        15.500           0.875
  16650860.458   -22329307.433 7 -17399459.28224        25.750           3.813
  16079212.036   -42807375.796 7 -33356365.20622        27.750           2.438
 91  7 27  2 57 29.9850000  0  4G 3G21G17G23
  18217527.786   -12574420.413 6  -9586745.08721        14.750           0.594
  18595003.278   -14661564.632 6 -10996911.04421        15.000           0.875
  16648001.419   -22344331.089 7 -17411166.03824        26.250           3.594
  16071108.224   -42849964.096 7 -33389550.88822        27.750           2.406
 91  7 27  2 57 44.9850000  0  4G 3G21G17G23
  18220109.646   -12560869.878 6  -9576186.26821        15.250           0.656
  18579538.552   -14742824.272 6 -11060230.18221        14.500           0.906
  16645155.497   -22359284.791 7 -17422818.28524        26.250           3.750
  16063027.013   -42892442.402 8 -33422650.85923        28.500           2.500
 91  7 27  2 57 59.9850000  0  4G 3G21G17G23
  18222703.474   -12547218.250 6  -9565548.68721        15.000           0.625
  18564088.857   -14824016.640 6 -11123496.90321        14.750           0.906
  16642324.482   -22374162.669 7 -17434411.44724        26.500           3.875
  16054964.560   -42934804.634 8 -33455660.38022        28.250           2.406
 91  7 27  2 58 14.9850000  0  4G 3G21G17G23
  18225322.544   -12533466.176 6  -9554832.83821        15.000           0.594
  18548653.403   -14905141.977 6 -11186711.40021        16.000           0.938
  16639508.044   -22388964.990 7 -17445945.73724        26.250           3.938
  16046925.052   -42977051.238 8 -33488579.80322        28.000           2.469
 91  7 27  2 58 29.9850000  0  4G 3G21G17G23
  18227963.989   -12519610.639 6  -9544036.35121        14.750           0.594
  18533228.903   -14986196.887 6 -11249871.01821        16.000           0.906
  16636705.271   -22403688.636 7 -17457418.71424        25.750           3.813
  16038908.716   -43019179.196 7 -33521406.77423        27.750           2.531
 91  7 27  2 58 44.9850000  0  4G 3G21G17G23
  18230619.599   -12505642.606 6  -9533152.22621        15.000           0.500
  18517814.325   -15067172.076 6 -11312968.50921        15.000           0.969
  16633917.732   -22418324.663 7 -17468823.41224        24.500           3.875
  16030915.794   -43061179.443 8 -33554134.23122        28.500           2.438
 91  7 27  2 58 59.9850000  0  4G 3G21G17G23
  18233298.560   -12491570.551 6  -9522187.03121        15.500           0.594
  18502419.482   -15148075.595 6 -11376010.16721        14.750           0.875
  16631151.200   -22432881.077 7 -17480166.07824        25.750           3.844
  16022945.255   -43103059.901 8 -33586768.34922        28.000           2.469
 91  7 27  2 59 14.9850000  0  4G 3G21G17G23
  18235993.357   -12477392.991 6  -9511139.63621        15.250           0.625
  18487042.505   -15228905.608 6 -11438994.54421        15.500           1.000
  16628398.817   -22447356.109 7 -17491445.33624        26.750           3.656
  16015000.138   -43144819.228 7 -33619308.08322        27.750           2.406
 91  7 27  2 59 29.9850000  0  4G 3G21G17G23
  18238715.075   -12463107.223 6  -9500007.92221        15.000           0.688
  18471675.341   -15309659.099 6 -11501919.28921        15.750           1.000
  16625658.357   -22461747.020 7 -17502659.04124        26.250           3.625
  16007077.888   -43186454.805 8 -33651751.37823        28.500           2.500
 91  7 27  2 59 44.9850000  0  4G 3G21G17G23
  18241453.349   -12448717.904 6  -9488795.50921        15.250           0.625
  18456323.208   -15390340.037 6 -11564787.49421        16.250           1.063
  16622934.427   -22476058.185 7 -17513810.61124        25.750           3.563
  15999177.513   -43227970.803 8 -33684101.50022        28.500           2.281
 91  7 27  2 59 59.9850000  0  4G 3G21G17G23
  18244213.294   -12434222.528 6  -9477500.46421        15.500           0.563
  18440985.263   -15470945.855 6 -11627597.17321        15.750           0.875
  16620225.614   -22490286.959 7 -17524897.97224        25.000           3.594
  15991300.552   -43269364.538 8 -33716356.34822        28.500           2.469
 91  7 27  3  0 14.9850000  0  4G 3G21G17G23
  18246985.255   -12419635.503 6  -9466134.00021        14.500           0.500
  18425655.638   -15551490.659 6 -11690359.30821        15.250           0.938
  16617532.450   -22504447.300 7 -17535932.01524        26.250           3.563
  15983443.224   -43310650.235 8 -33748527.01722        28.250           2.438
 91  7 27  3  0 29.9850000  0  4G 3G21G17G23
  18249780.247   -12404948.478 6  -9454689.59321        13.500           0.469
  18410343.294   -15631965.572 6 -11753066.97721        15.750           1.031
  16614850.919   -22518530.913 7 -17546906.26624        25.750           3.594
  15975609.161   -43351819.413 8 -33780606.89122        28.250           2.344
 91  7 27  3  0 44.9850000  0  4G 3G21G17G23
  18252593.794   -12390158.007 6  -9443164.60521        13.750           0.594
  18395044.560   -15712366.846 6 -11815717.26621        15.750           0.906
  16612187.802   -22532534.117 7 -17557817.86124        26.250           3.594
  15967797.427   -43392868.546 8 -33812593.22622        28.250           2.375
 91  7 27  3  0 59.9850000  0  4G 3G21G17G23
  18255428.036   -12375266.918 6  -9431561.21421        13.500           0.563
  18379755.372   -15792696.748 6 -11878311.93321        14.750           0.781
  16609539.388   -22546459.090 7 -17568668.50124        27.000           3.531
  15960008.489   -43433800.213 8 -33844488.02022        28.500           2.281
 91  7 27  3  1 14.9850000  0  4G 3G21G17G23
  18258284.591   -12360274.884 6  -9419879.15621        14.250           0.531
  18364484.786   -15872954.786 6 -11940850.61321        15.500           1.000
  16606902.622   -22560305.681 7 -17579458.06424        26.000           3.688
  15952241.583   -43474614.131 8 -33876291.06522        28.750           2.469
 91  7 27  3  1 29.9850000  0  4G 3G21G17G23
  18261154.989   -12345181.794 6  -9408118.35821        14.500           0.563
  18349222.888   -15953140.310 6 -12003332.78421        15.500           0.906
  16604283.825   -22574073.544 7 -17590186.28023        26.000           3.469
  15944496.653   -43515309.690 8 -33908001.88422        28.250           2.281
 91  7 27  3  1 44.9850000  0  4G 3G21G17G23
  18264046.927   -12329986.931 6  -9396278.25321        14.500           0.469
  18333980.052   -16033252.539 6 -12065757.84021        16.000           0.875
  16601678.614   -22587761.724 7 -17600852.39323        26.250           3.438
  15936775.278   -43555886.471 7 -33939620.15222        27.750           2.438
 91  7 27  3  1 59.9850000  0  4G 3G21G17G23
  18266953.208   -12314689.332 6  -9384358.09421        13.750           0.375
  18318746.544   -16113289.922 6 -12128124.58421        15.500           0.906
  16599089.091   -22601368.884 7 -17611455.38923        26.500           3.313
  15929078.911   -43596342.834 8 -33971144.58922        28.250           2.406
 91  7 27  3  2 14.9850000  0  4G 3G21G17G23
  18269885.232   -12299290.991 6  -9372359.41821        13.250           0.469
  18303532.935   -16193254.093 6 -12190434.27021        15.250           0.938
  16596515.333   -22614896.764 7 -17621996.61323        27.000           3.281
  15921400.505   -43636680.905 8 -34002576.84822        28.250           2.438
 91  7 27  3  2 29.9850000  0  4G 3G21G17G23
  18272838.849   -12283791.900 6  -9360282.26321        14.750           0.563
  18288328.005   -16273144.571 6 -12252686.53221        15.250           0.969
  16593955.325   -22628345.250 7 -17632475.95823        26.000           3.406
  15913748.778   -43676900.345 8 -34033916.66922        28.750           2.375
 91  7 27  3  2 44.9850000  0  4G 3G21G17G23
  18275803.380   -12268196.421 6  -9348129.97321        14.000           0.531
  18273143.216   -16352965.556 6 -12314884.64721        16.500           0.906
  16591409.607   -22641718.489 7 -17642896.68023        25.250           3.438
  15906116.224   -43717005.578 8 -34065167.49122        29.000           2.313
 91  7 27  3  2 59.9850000  0  4G 3G21G17G23
  18278793.224   -12252498.656 6  -9335898.00221        14.000           0.563
  18257960.560   -16432710.694 6 -12377023.65221        15.500           1.000
  16588880.044   -22655010.297 7 -17653253.93423        25.250           3.469
  15898507.028   -43756990.435 8 -34096324.51722        28.750           2.344
 91  7 27  3  3 14.9850000  0  4G 3G21G17G23
  18281797.622   -12236700.337 6  -9323587.68721        14.250           0.500
  18242805.724   -16512381.412 6 -12439104.67321        15.500           0.938
  16586367.786   -22668222.299 7 -17663549.00324        26.250           3.531
  15890920.763   -43796856.642 8 -34127389.09222        28.250           2.344
 91  7 27  3  3 29.9850000  0  4G 3G21G17G23
  18284824.591   -12220807.561 6  -9311203.74921        14.750           0.594
  18227654.318   -16591983.096 6 -12501131.89121        15.000           1.000
  16583867.224   -22681360.026 7 -17673786.20324        26.250           3.500
  15883355.497   -43836609.706 8 -34158365.49922        28.000           2.438
 91  7 27  3  3 44.9850000  0  4G 3G21G17G23
  18287864.771   -12204816.794 6  -9298743.45321        14.250           0.594
  18212523.911   -16671512.194 6 -12563102.56321        15.250           0.969
  16581382.255   -22694420.064 7 -17683962.86323        27.000           3.344
  15875815.138   -43876246.294 8 -34189251.14822        28.250           2.344
 91  7 27  3  3 59.9850000  0  4G 3G21G17G23
  18290928.857   -12188729.878 6  -9286208.24421        14.250           0.531
  18197403.521   -16750970.162 6 -12625017.81021        15.500           0.906
  16578911.388   -22707404.109 7 -17694080.31123        27.000           3.281
  15868293.357   -43915768.029 8 -34220047.29722        28.250           2.344
 91  7 27  3  4 14.9850000  0  4G 3G21G17G23
  18294001.646   -12172547.867 6  -9273598.93621        13.500           0.500
  18182293.560   -16830357.581 6 -12686878.07621        16.000           1.000
  16576454.310   -22720312.777 7 -17704139.02823        26.000           3.375
  15860793.849   -43955175.733 8 -34250754.59722        28.500           2.281
 91  7 27  3  4 29.9850000  0  4G 3G21G17G23
  18297105.919   -12156269.951 6  -9260914.90121        13.250           0.500
  18167206.302   -16909673.109 6 -12748682.32321        16.750           1.125
  16574010.153   -22733145.018 7 -17714138.18023        25.000           3.250
  15853315.927   -43994468.532 8 -34281372.36222        28.250           2.344
 91  7 27  3  4 44.9850000  0  4G 3G21G17G23
  18300215.661   -12139892.355 6  -9248153.18721        12.750           0.563
  18152123.216   -16988912.715 6 -12810427.41621        16.000           0.969
  16571585.794   -22745896.844 7 -17724074.67623        25.750           3.250
  15845863.403   -44033642.413 8 -34311897.45822        28.500           2.344
 91  7 27  3  4 59.9850000  0  4G 3G21G17G23
  18303356.443   -12123417.999 6  -9235316.07921        13.500           0.531
  18137056.958   -17068079.015 6 -12872115.38821        16.000           0.969
  16569172.817   -22758570.801 7 -17733950.49223        26.000           3.375
  15838430.685   -44072700.176 8 -34342332.07622        28.000           2.469
 91  7 27  3  5 14.9850000  0  4G 3G21G17G23
  18306509.028   -12106844.166 6  -9222401.45521        13.250           0.563
  18122008.122   -17147168.984 6 -12933743.87921        15.750           0.938
  16566778.263   -22771164.289 7 -17743763.59623        26.750           3.313
  15831019.513   -44111639.008 8 -34372674.02022        28.000           2.375
 91  7 27  3  5 29.9840000  0  4G 3G21G17G23
  18309684.188   -12090171.422 6  -9209409.77021        13.000           0.406
  18106974.031   -17226176.362 6 -12995308.00821        16.000           0.969
  16564399.547   -22783675.587 7 -17753512.67223        26.750           3.313
  15823633.844   -44150455.544 8 -34402920.66522        28.250           2.406
 91  7 27  3  5 44.9840000  0  4G 3G21G17G23
  18312874.516   -12073404.307 6  -9196344.53621        13.000           0.594
  18091953.164   -17305117.984 6 -13056820.90521        17.000           1.000
  16562027.891   -22796112.639 7 -17763203.89223        25.750           3.438
  15816267.391   -44189161.364 8 -34433081.03722        28.500           2.375
 91  7 27  3  5 59.9840000  0  4G 3G21G17G23
  18316080.953   -12056542.569 6  -9183205.57421        13.500           0.531
  18076942.844   -17383987.008 6 -13118277.22321        16.250           1.125
  16559677.508   -22808473.306 7 -17772835.57823        26.250           3.313
  15808924.766   -44227752.547 8 -34463152.08922        28.500           2.469
 91  7 27  3  6 14.9840000  0  4G 3G21G17G23
  18319313.406   -12039586.120 6  -9169992.82421        14.250           0.469
  18061947.609   -17462782.856 6 -13179676.52421        15.000           1.094
  16557341.524   -22820757.157 7 -17782407.42423        27.000           3.281
  15801602.117   -44266229.024 7 -34493133.75822        27.750           2.375
 91  7 27  3  6 29.9840000  0  4G 3G21G17G23
  18322556.195   -12022532.889 6  -9156704.64621        13.250           0.469
  18046968.125   -17541503.101 6 -13241016.92421        15.250           1.031
  16555018.555   -22832961.687 7 -17791917.44723        26.250           3.375
  15794303.961   -44304588.254 8 -34523024.06822        28.750           2.406
 91  7 27  3  6 44.9840000  0  4G 3G21G17G23
  18325816.734   -12005382.315 6  -9143340.63021        12.250           0.438
  18032003.461   -17620146.823 6 -13302297.68721        15.750           1.000
  16552711.734   -22845086.335 7 -17801365.23823        26.250           3.344
  15787026.070   -44342829.713 8 -34552822.60322        28.750           2.438
 91  7 27  3  6 59.9840000  0  4G 3G21G17G23
  18329099.109   -11988136.530 6  -9129902.41021        12.500           0.500
  18017050.406   -17698715.792 6 -13363520.19821        16.000           1.063
  16550418.227   -22857132.983 7 -17810752.24123        25.750           3.375
  15779770.953   -44380955.298 8 -34582530.84622        28.750           2.375
 91  7 27  3  7 14.9840000  0  4G 3G21G17G23
  18332399.469   -11970796.488 6  -9116390.75221        12.500           0.531
  18002111.695   -17777210.447 6 -13424684.79821        15.500           0.938
  16548140.789   -22869102.261 7 -17820078.95124        26.000           3.531
  15772537.094   -44418965.775 8 -34612149.38922        28.750           2.313
 91  7 27  3  7 29.9840000  0  4G 3G21G17G23
  18335715.484   -11953360.539 6  -9102804.37021        12.500           0.500
  17987188.000   -17855628.724 6 -13485789.90121        15.250           1.000
  16545878.609   -22880992.191 7 -17829343.83724        26.250           3.531
  15765327.258   -44456859.139 8 -34641676.68422        28.500           2.469
 91  7 27  3  7 44.9840000  0  4G 3G21G17G23
  18339053.445   -11935828.116 6  -9089142.79621        12.750           0.469
  17972281.305   -17933969.870 6 -13546834.89221        15.000           1.125
  16543631.219   -22892802.136 7 -17838546.40123        26.500           3.438
  15758139.719   -44494634.869 8 -34671112.31722        29.000           2.438
 91  7 27  3  7 59.9840000  0  4G 3G21G17G23
  18342402.070   -11918202.691 5  -9075408.76421        11.750           0.469
  17957391.492   -18012236.888 6 -13607822.11521        16.000           1.156
  16541397.883   -22904535.402 7 -17847689.21623        26.250           3.469
  15750971.711   -44532296.292 8 -34700458.87722        28.500           2.313
 91  7 27  3  8 14.9840000  0  4G 3G21G17G23
  18345775.649   -11900484.559 5  -9061602.47221        11.500           0.469
  17942510.524   -18090429.715 6 -13668751.51821        16.000           1.188
  16539178.672   -22916191.922 7 -17856772.22223        25.750           3.406
  15743826.195   -44569843.593 8 -34729716.51622        28.750           2.344
 91  7 27  3  8 29.9840000  0  4G 3G21G17G23
  18349164.266   -11882674.942 6  -9047724.91521        12.000           0.438
  17927649.649   -18168549.108 6 -13729623.71921        16.500           1.094
  16536976.203   -22927772.461 7 -17865796.02723        26.500           3.281
  15736702.586   -44607277.672 8 -34758885.92022        28.250           2.344
 91  7 27  3  8 44.9840000  0  4G 3G21G17G23
  18352573.234   -11864771.770 6  -9033774.44021        12.250           0.500
  17912791.070   -18246592.785 6 -13790436.91621        15.500           1.250
  16534789.953   -22939275.017 7 -17874759.06923        27.000           3.375
  15729602.531   -44644596.630 8 -34787965.62322        28.500           2.406
 91  7 27  3  8 59.9840000  0  4G 3G21G17G23
  18355995.805   -11846772.129 6  -9019748.79221        12.000           0.469
  17897958.820   -18324557.297 6 -13851188.43821        16.000           1.219
  16532613.797   -22950696.418 7 -17883658.86523        26.250           3.406
  15722522.609   -44681797.092 8 -34816952.99222        28.500           2.469
 91  7 27  3  9 14.9840000  0  4G 3G21G17G23
  18359438.656   -11828679.988 5  -9005651.07221        11.250           0.375
  17883131.938   -18402446.363 6 -13911881.16021        15.250           1.219
  16530454.047   -22962040.237 7 -17892498.21223        25.750           3.469
  15715466.016   -44718882.904 8 -34845851.01922        29.000           2.281
 91  7 27  3  9 29.9840000  0  4G 3G21G17G23
  18362899.930   -11810495.983 5  -8991481.79321        11.500           0.469
  17868328.586   -18480260.257 6 -13972515.31121        16.000           1.219
  16528311.984   -22973307.179 7 -17901277.65524        25.750           3.563
  15708430.289   -44755854.612 8 -34874660.14222        29.000           2.375
 91  7 27  3  9 44.9840000  0  4G 3G21G17G23
  18366377.820   -11792219.096 6  -8977240.12921        12.000           0.375
  17853535.391   -18557997.415 6 -14033089.65521        16.500           1.219
  16526182.477   -22984495.488 7 -17909995.82724        25.500           3.531
  15701417.000   -44792710.761 8 -34903379.21222        28.750           2.375
 91  7 27  3  9 59.9840000  0  4G 3G21G17G23
  18369874.297   -11773853.498 6  -8962929.33121        12.250           0.375
  17838756.305   -18635661.653 6 -14093607.19021        16.500           1.250
  16524067.274   -22995609.259 7 -17918655.90524        25.750           3.625
  15694425.680   -44829455.679 8 -34932011.61322        28.500           2.375
 91  7 27  3 10 14.9840000  0  4G 3G21G17G23
  18373389.359   -11755393.042 6  -8948544.61421        13.000           0.313
  17823993.672   -18713246.584 6 -14154062.93421        16.000           1.281
  16521967.094   -23006642.138 7 -17927252.95924        25.500           3.531
  15687454.633   -44866082.961 8 -34960552.34422        28.750           2.469
 91  7 27  3 10 29.9840000  0  4G 3G21G17G23
  18376921.086   -11736839.068 6  -8934087.00921        13.250           0.406
  17809240.586   -18790753.124 6 -14214457.58221        15.500           1.188
  16519881.524   -23017595.417 7 -17935787.99524        25.500           3.500
  15680508.219   -44902593.786 8 -34989002.33522        28.750           2.375
 91  7 27  3 10 44.9840000  0  4G 3G21G17G23
  18380466.219   -11718192.012 6  -8919556.91021        12.000           0.375
  17794509.555   -18868181.289 6 -14274791.19021        16.750           1.313
  16517814.422   -23028469.304 7 -17944261.15724        26.250           3.500
  15673579.797   -44938988.451 8 -35017361.80522        28.000           2.375
 91  7 27  3 10 59.9840000  0  4G 3G21G17G23
  18384031.758   -11699457.206 5  -8904958.43521        11.750           0.500
  17779788.133   -18945536.008 6 -14335067.53721        16.000           1.281
  16515760.070   -23039268.638 7 -17952676.23523        26.000           3.344
  15666675.484   -44975271.926 8 -35045634.63622        28.250           2.375
 91  7 27  3 11 14.9840000  0  4G 3G21G17G23
  18387618.547   -11680630.681 6  -8890288.47021        12.250           0.406
  17765079.891   -19022813.098 6 -14395283.39821        15.750           1.313
  16513721.117   -23049989.403 7 -17961030.08523        26.000           3.438
  15659793.695   -45011440.433 8 -35073817.88222        29.000           2.438
 91  7 27  3 11 29.9840000  0  4G 3G21G17G23
  18391216.555   -11661710.607 6  -8875545.63521        12.750           0.531
  17750390.766   -19100010.060 6 -14455436.82221        15.750           1.344
  16511694.664   -23060629.315 7 -17969320.93123        25.750           3.469
  15652933.992   -45047491.717 8 -35101909.78722        29.000           2.438
 91  7 27  3 11 44.9840000  0  4G 3G21G17G23
  18394837.586   -11642696.055 6  -8860729.16121        12.500           0.344
  17735717.399   -19177125.803 6 -14515526.96021        16.000           1.375
  16509686.227   -23071187.335 7 -17977547.96523        25.500           3.344
  15646096.477   -45083424.666 8 -35129909.48422        29.500           2.344
 91  7 27  3 11 59.9840000  0  4G 3G21G17G23
  18398470.102   -11623588.477 5  -8845840.18521        11.750           0.344
  17721056.727   -19254161.285 6 -14575554.55921        16.250           1.375
  16507693.852   -23081664.353 7 -17985711.88424        26.000           3.500
  15639280.172   -45119240.711 8 -35157818.08622        29.000           2.281
 91  7 27  3 12 14.9840000  0  4G 3G21G17G23
  18402125.016   -11604388.959 5  -8830879.58821        11.250           0.344
  17706412.899   -19331117.317 6 -14635520.24421        16.750           1.313
  16505711.977   -23092061.686 7 -17993813.71223        25.500           3.406
  15632486.680   -45154940.830 8 -35185636.35122        29.250           2.250
 91  7 27  3 12 29.9840000  0  4G 3G21G17G23
  18405794.867   -11585100.607 5  -8815849.74621        10.500           0.406
  17691783.344   -19407996.540 6 -14695426.09121        17.000           1.344
  16503747.289   -23102382.048 7 -18001855.56424        25.250           3.500
  15625714.234   -45190527.752 8 -35213366.41522        29.250           2.313
 91  7 27  3 12 44.9840000  0  4G 3G21G17G23
  18409475.945   -11565725.157 5  -8800752.07121         9.500           0.344
  17677166.438   -19484800.493 6 -14755273.27121        16.250           1.250
  16501801.242   -23112626.870 7 -18009838.53824        26.250           3.594
  15618963.453   -45226003.371 8 -35241009.74722        29.250           2.438
 91  7 27  3 12 59.9840000  0  4G 3G21G17G23
  18413182.969   -11546264.259 5  -8785587.80521        10.250           0.438
  17662567.524   -19561530.300 6 -14815062.69521        17.000           1.438
  16499860.758   -23122797.515 7 -18017763.73124        25.500           3.563
  15612233.633   -45261368.821 8 -35268567.23322        29.000           2.344
 91  7 27  3 13 14.9840000  0  4G 3G21G17G23
  18416902.242   -11526712.462 5  -8770352.71721        10.500           0.500
  17647979.258   -19638179.964 6 -14874789.65421        16.500           1.469
  16497944.836   -23132888.150 7 -18025626.56623        26.750           3.344
  15605525.375   -45296618.622 8 -35296034.60322        28.500           2.375
 91  7 27  3 13 29.9840000  0  4G 3G21G17G23
  18420642.086   -11507073.540 5  -8755049.70221        11.250           0.469
  17633410.234   -19714752.912 6 -14934456.84421        16.500           1.438
  16496038.109   -23142902.659 7 -18033430.08723        25.500           3.219
  15598838.297   -45331756.335 8 -35323414.62822        28.750           2.375
 91  7 27  3 13 44.9840000  0  4G 3G21G17G23
  18424398.477   -11487349.936 5  -8739680.71521        11.750           0.375
  17618852.813   -19791251.285 6 -14994065.90822        16.500           1.594
  16494143.102   -23152843.077 7 -18041175.87423        24.750           3.094
  15592174.305   -45366784.357 8 -35350709.18722        29.250           2.375
 91  7 27  3 13 59.9840000  0  4G 3G21G17G23
  18428167.500   -11467536.489 5  -8724241.73921        11.750           0.375
  17604311.906   -19867669.580 6 -15053612.58322        16.500           1.531
  16492270.234   -23162703.953 7 -18048859.67723        25.750           3.313
  15585529.484   -45401697.227 8 -35377914.01622        28.750           2.250
 91  7 27  3 14 14.9840000  0  4G 3G21G17G23
  18431951.984   -11447636.859 5  -8708735.59121        11.500           0.438
  17589781.734   -19944011.175 6 -15113099.49222        16.250           1.531
  16490409.438   -23172488.761 7 -18056484.21123        26.000           3.313
  15578906.852   -45436498.573 8 -35405031.93922        28.500           2.281
 91  7 27  3 14 29.9840000  0  4G 3G21G17G23
  18435752.883   -11427648.704 5  -8693160.47021        11.000           0.375
  17575273.625   -20020273.198 6 -15172524.39821        16.250           1.406
  16488559.375   -23182195.037 7 -18064047.54923        25.750           3.281
  15572306.484   -45471185.898 8 -35432061.01622        29.000           2.281
 91  7 27  3 14 44.9840000  0  4G 3G21G17G23
  18439578.531   -11407573.099 5  -8677517.19921        11.750           0.531
  17560775.758   -20096456.337 6 -15231887.82421        16.750           1.313
  16486727.375   -23191823.400 7 -18071550.17623        25.500           3.438
  15565729.242   -45505760.102 8 -35459001.95522        29.000           2.250
 91  7 27  3 14 59.9840000  0  4G 3G21G17G23
  18443411.883   -11387410.994 5  -8661806.54121        11.250           0.563
  17546291.180   -20172561.147 6 -15291190.22421        17.000           1.406
  16484911.922   -23201374.187 7 -18078992.35823        25.750           3.188
  15559170.102   -45540221.798 8 -35485855.21822        28.750           2.281
 91  7 27  3 15 14.9840000  0  4G 3G21G17G23
  18447270.305   -11367162.083 6  -8646028.23221        12.500           0.438
  17531824.281   -20248586.934 6 -15350431.04721        17.500           1.281
  16483106.422   -23210846.986 7 -18086373.75823        24.500           3.313
  15552633.328   -45574570.660 8 -35512620.55922        28.250           2.281
 91  7 27  3 15 29.9840000  0  4G 3G21G17G23
  18451134.375   -11346830.417 5  -8630185.42421        11.500           0.344
  17517373.563   -20324537.465 6 -15409613.23921        17.250           1.250
  16481319.352   -23220246.070 7 -18093697.72923        25.750           3.219
  15546115.102   -45608810.629 7 -35539301.04522        27.500           2.375
 91  7 27  3 15 44.9840000  0  4G 3G21G17G23
  18455024.977   -11326412.691 6  -8614275.55921        12.000           0.313
  17502935.149   -20400408.969 6 -15468733.83621        17.000           1.250
  16479547.195   -23229567.593 7 -18100961.25523        26.250           3.156
  15539622.734   -45642938.103 8 -35565893.87522        28.000           2.344
 91  7 27  3 15 59.9840000  0  4G 3G21G17G23
  18458924.383   -11305909.810 5  -8598299.34321        11.250           0.281
  17488509.586   -20476201.870 6 -15527793.19421        17.000           1.188
  16477787.875   -23238812.267 7 -18108164.90423        26.500           3.125
  15533149.899   -45676953.861 8 -35592399.65722        28.000           2.344
 91  7 27  3 16 14.9840000  0  4G 3G21G17G23
  18462840.242   -11285323.464 5  -8582258.09721        11.000           0.313
  17474103.281   -20551917.679 6 -15586792.47821        17.250           1.406
  16476043.422   -23247981.521 7 -18115309.78823        26.250           3.031
  15526698.508   -45710859.405 8 -35618819.55822        28.250           2.344
 91  7 27  3 16 29.9830000  0  4G 3G21G17G23
  18466774.644   -11264655.933 5  -8566153.57221        11.250           0.375
  17459709.058   -20627551.684 6 -15645728.02221        17.250           1.375
  16474310.823   -23257075.110 7 -18122395.70523        25.500           2.938
  15520267.316   -45744653.177 8 -35645152.36322        28.000           2.375
 91  7 27  3 16 44.9830000  0  4G 3G21G17G23
  18470717.644   -11243902.177 5  -8549981.89121        10.500           0.500
  17445332.003   -20703111.518 6 -15704605.76221        17.250           1.313
  16472596.808   -23266091.922 7 -18129421.79523        26.500           2.875
  15513858.480   -45778337.406 8 -35671399.80922        28.500           2.375
 91  7 27  3 16 59.9830000  0  4G 3G21G17G23
  18474687.026   -11223064.875 5  -8533745.08321        10.750           0.281
  17430969.495   -20778593.007 6 -15763422.46721        17.250           1.375
  16470896.112   -23275032.638 7 -18136388.59623        26.000           3.031
  15507468.800   -45811911.003 8 -35697561.05322        28.250           2.344
 91  7 27  3 17 14.9830000  0  4G 3G21G17G23
  18478672.823   -11202145.125 5  -8517444.02921        11.250           0.406
  17416618.401   -20853996.770 6 -15822178.59121        17.250           1.313
  16469209.097   -23283897.839 7 -18143296.55323        25.750           3.000
  15501101.292   -45845374.757 8 -35723636.69922        28.250           2.406
 91  7 27  3 17 29.9830000  0  4G 3G21G17G23
  18482668.066   -11181146.861 5  -8501081.82621        11.000           0.375
  17402284.612   -20929326.287 6 -15880876.86121        17.750           1.438
  16467533.730   -23292691.192 7 -18150148.51623        25.000           3.156
  15494754.151   -45878732.391 8 -35749629.65822        28.250           2.344
 91  7 27  3 17 44.9830000  0  4G 3G21G17G23
  18486672.542   -11160066.510 5  -8484655.63221         9.750           0.281
  17387961.409   -21004577.828 6 -15939514.38421        18.000           1.344
  16465874.683   -23301409.051 7 -18156941.65923        25.250           3.063
  15488426.831   -45911980.357 8 -35775537.16022        28.250           2.313
 91  7 27  3 17 59.9830000  0  4G 3G21G17G23
  18490701.855   -11138898.887 5  -8468161.42321         9.750           0.250
  17373657.589   -21079745.660 6 -15998086.67121        17.250           1.313
  16464232.573   -23310045.622 7 -18163671.46523        26.500           3.156
  15482122.894   -45945113.070 8 -35801354.85522        28.000           2.313
 91  7 27  3 18 14.9830000  0  4G 3G21G17G23
  18494745.378   -11117651.480 5  -8451605.07521         9.250           0.250
  17359371.370   -21154836.938 6 -16056599.29821        18.250           1.313
  16462601.776   -23318608.449 7 -18170343.80623        26.250           3.125
  15475838.206   -45978137.996 8 -35827088.55922        28.000           2.344
 91  7 27  3 18 29.9830000  0  4G 3G21G17G23
  18498810.003   -11096324.834 5  -8434986.95221        10.250           0.313
  17345097.214   -21229851.948 6 -16115052.50321        18.000           1.406
  16460984.894   -23327097.778 7 -18176958.87023        25.250           3.094
  15469574.941   -46011055.571 8 -35852738.61522        28.500           2.375
 91  7 27  3 18 44.9830000  0  4G 3G21G17G23
  18502884.558   -11074914.878 5  -8418303.94821        11.000           0.250
  17330836.472   -21304786.124 6 -16173442.72421        18.250           1.469
  16459385.901   -23335509.237 7 -18183513.26023        25.000           2.969
  15463329.589   -46043861.532 7 -35878301.70122        27.750           2.313
 91  7 27  3 18 59.9830000  0  4G 3G21G17G23
  18506969.651   -11053423.369 5  -8401557.36921        10.750           0.281
  17316591.456   -21379640.760 6 -16231770.96322        18.250           1.563
  16457800.144   -23343844.272 7 -18190008.10223        25.250           2.906
  15457108.073   -46076557.510 7 -35903779.08422        27.500           2.469
 91  7 27  3 19 14.9830000  0  4G 3G21G17G23
  18511079.597   -11031851.276 5  -8384747.99821        11.000           0.406
  17302361.909   -21454416.439 6 -16290037.66821        18.250           1.469
  16456229.737   -23352103.408 7 -18196443.80023        25.750           2.844
  15450905.870   -46109144.087 7 -35929171.22222        26.750           2.438
 91  7 27  3 19 29.9830000  0  4G 3G21G17G23
  18515193.011   -11010200.558 5  -8367877.37421        10.500           0.344
  17288146.972   -21529114.968 6 -16348244.26621        17.750           1.438
  16454670.870   -23360288.671 7 -18202821.93923        25.500           3.031
  15444725.620   -46141623.220 7 -35954479.62822        27.000           2.344
 91  7 27  3 19 44.9830000  0  4G 3G21G17G23
  18519330.378   -10988468.797 5  -8350943.59821        10.750           0.438
  17273947.112   -21603733.300 6 -16406388.36621        17.500           1.469
  16453129.472   -23368397.151 7 -18209140.24323        26.000           3.188
  15438567.019   -46173992.395 7 -35979702.36122        27.250           2.406
 91  7 27  3 19 59.9830000  0  4G 3G21G17G23
  18523478.425   -10966658.844 5  -8333948.91221        10.750           0.438
  17259764.003   -21678273.947 6 -16464471.94722        17.750           1.500
  16451597.534   -23376431.549 7 -18215400.81923        25.250           3.125
  15432427.269   -46206254.264 7 -36004841.47722        27.500           2.406
 91  7 27  3 20 14.9830000  0  4G 3G21G17G23
  18527646.987   -10944772.646 5  -8316894.78621        10.500           0.375
  17245592.941   -21752738.255 6 -16522496.03221        17.750           1.469
  16450084.581   -23384393.569 7 -18221604.99723        25.750           3.125
  15426308.370   -46238410.377 7 -36029898.18522        27.250           2.375
 91  7 27  3 20 29.9830000  0  4G 3G21G17G23
  18531822.847   -10922807.892 5  -8299779.46021        10.250           0.250
  17231441.472   -21827123.839 6 -16580458.78221        18.250           1.406
  16448583.542   -23392280.724 7 -18227750.83823        25.250           3.188
  15420211.159   -46270458.603 7 -36054870.82522        27.750           2.438
 91  7 27  3 20 44.9830000  0  4G 3G21G17G23
  18536021.417   -10900763.490 5  -8282602.06321        10.500           0.219
  17217297.886   -21901429.018 6 -16638358.86621        17.500           1.438
  16447099.417   -23400091.443 7 -18233837.12623        26.000           3.094
  15414131.691   -46302397.374 7 -36079758.18022        27.250           2.438
 91  7 27  3 20 59.9830000  0  4G 3G21G17G23
  18540230.901   -10878642.002 5  -8265364.58921        11.250           0.344
  17203173.769   -21975656.115 6 -16696198.11321        18.750           1.469
  16445622.230   -23407828.278 7 -18239865.84823        24.000           3.156
  15408075.980   -46334229.304 7 -36104562.28022        27.750           2.375
 91  7 27  3 21 14.9830000  0  4G 3G21G17G23
  18544452.292   -10856442.110 5  -8248066.02121        10.750           0.313
  17189059.823   -22049803.451 6 -16753975.22122        18.250           1.563
  16444165.659   -23415489.548 7 -18245835.68623        24.750           3.094
  15402037.714   -46365952.900 7 -36129281.96222        27.500           2.438
 91  7 27  3 21 29.9830000  0  4G 3G21G17G23
  18548695.378   -10834163.053 5  -8230705.78221        10.750           0.375
  17174966.589   -22123869.790 6 -16811689.19822        18.750           1.500
  16442721.714   -23423074.092 7 -18251745.72623        24.000           3.281
  15396021.753   -46397567.101 8 -36153916.40522        28.000           2.344
 91  7 27  3 21 44.9830000  0  4G 3G21G17G23
  18552948.362   -10811805.671 5  -8213284.51421        10.250           0.375
  17160893.245   -22197855.563 6 -16869340.41121        19.750           1.344
  16441295.050   -23430582.593 7 -18257596.51423        24.500           3.250
  15390027.378   -46429072.696 7 -36178466.21922        27.750           2.438
 91  7 27  3 21 59.9830000  0  4G 3G21G17G23
  18557218.714   -10789373.553 5  -8195805.00921         9.750           0.344
  17146827.941   -22271764.112 6 -16926931.43321        19.250           1.406
  16439879.073   -23438018.315 7 -18263390.59123        24.750           3.156
  15384049.980   -46460473.030 7 -36202934.01422        27.250           2.344
 91  7 27  3 22 14.9830000  0  4G 3G21G17G23
  18561500.550   -10766866.465 5  -8178267.10121         9.500           0.313
  17132778.441   -22345594.845 6 -16984461.82721        19.250           1.313
  16438476.730   -23445380.804 7 -18269127.60423        25.000           3.219
  15378095.362   -46491767.936 7 -36227319.65222        27.000           2.344
 91  7 27  3 22 29.9830000  0  4G 3G21G17G23
  18565797.831   -10744282.532 5  -8160669.29121        10.000           0.219
  17118740.761   -22419345.295 6 -17041929.65621        19.250           1.469
  16437090.308   -23452668.107 7 -18274806.03723        25.250           3.219
  15372161.503   -46522954.976 7 -36251621.24222        27.250           2.406
 91  7 27  3 22 44.9830000  0  4G 3G21G17G23
  18570112.112   -10721619.716 5  -8143010.02021        10.250           0.281
  17104726.636   -22493013.202 6 -17099333.18621        19.500           1.438
  16435719.878   -23459877.717 7 -18280423.93423        26.000           3.188
  15366247.597   -46554032.313 7 -36275837.35122        26.750           2.406
 91  7 27  3 22 59.9830000  0  4G 3G21G17G23
  18574437.097   -10698884.065 5  -8125293.98921         9.750           0.188
  17090719.191   -22566604.010 6 -17156676.62421        18.750           1.406
  16434362.120   -23467015.035 7 -18285985.49123        25.750           3.219
  15360353.605   -46585005.502 7 -36299972.30123        27.750           2.625
 91  7 27  3 23 14.9830000  0  4G 3G21G17G23
  18578776.339   -10676079.129 5  -8107523.98321        10.000           0.313
  17076731.206   -22640121.120 6 -17213962.64621        19.250           1.406
  16433017.816   -23474083.909 7 -18291493.71523        24.750           3.156
  15354478.206   -46615878.292 7 -36324029.02023        27.750           2.500
 91  7 27  3 23 29.9830000  0  4G 3G21G17G23
  18583130.987   -10653200.563 5  -8089696.60821         9.500           0.313
  17062755.573   -22713559.743 6 -17271187.50321        19.000           1.313
  16431685.003   -23481079.578 7 -18296944.89223        24.750           3.219
  15348624.222   -46646646.014 8 -36348003.86723        28.000           2.500
 91  7 27  3 23 44.9830000  0  4G 3G21G17G23
  18587498.597   -10630245.740 5  -8071809.80821         9.500           0.313
  17048797.589   -22786916.728 6 -17328348.74421        19.000           1.375
  16430367.901   -23487999.110 7 -18302336.74923        25.000           3.250
  15342791.081   -46677305.737 7 -36371894.55722        27.750           2.375
 91  7 27  3 23 59.9830000  0  5G 3G21G17G11G23
  18591881.581   -10607219.093 5  -8053867.05021         9.500           0.219
  17034852.011   -22860196.462 6 -17385449.79621        19.000           1.375
  16429068.175   -23494846.742 7 -18307672.57923        25.750           3.375
  19646767.073          -0.01612                         4.750
  15336975.042   -46707861.905 7 -36395704.55723        27.250           2.563
 91  7 27  3 24 14.9830000  0  5G 3G21G17G11G23
  18596276.417   -10584112.762 5  -8035862.17021         9.500           0.313
  17020918.956   -22933390.437 6 -17442484.02421        19.000           1.375
  16427777.362   -23501614.158 7 -18312945.89823        25.250           3.313
  19629492.394      -90796.929 3                         5.500
  15331180.831   -46738306.278 7 -36419427.44722        27.250           2.438
 91  7 27  3 24 29.9830000  0  5G 3G21G17G11G23
  18600689.784   -10560932.747 5  -8017799.89621         9.000           0.219
  17007009.651   -23006504.389 7 -17499455.89721        20.000           1.469
  16426504.878   -23508307.383 7 -18318161.41123        26.000           3.375
  19612227.784     -181572.652 3                         6.000
  15325409.144   -46768644.982 7 -36443067.99523        27.000           2.531
 91  7 27  3 24 44.9830000  0  5G 3G21G17G11G23
  18605119.683   -10537680.902 5  -7999681.66921         9.500           0.156
  16993109.933   -23079539.578 6 -17556366.39521        19.500           1.344
  16425244.136   -23514927.615 7 -18323320.04423        25.500           3.469
  19594957.628     -272328.248 4                         6.750
  15319654.112   -46798879.485 7 -36466627.34523        26.500           2.563
 91  7 27  3 24 59.9830000  0  5G 3G21G17G11G23
  18609551.128   -10514358.245 5  -7981508.23321         9.500           0.188
  16979229.191   -23152496.793 6 -17613216.13921        18.750           1.406
  16423999.292   -23521475.850 7 -18328422.57223        26.250           3.250
  19577691.706     -363064.243 4                         7.250
  15313923.112   -46829010.877 7 -36490106.35823        27.250           2.594
 91  7 27  3 25 14.9830000  0  5G 3G21G17G11G23
  18614005.503   -10490968.140 5  -7963282.23821         9.750           0.250
  16965358.995   -23225378.798 6 -17670007.27921        17.750           1.281
  16422765.667   -23527955.188 7 -18333471.42323        26.250           3.344
  19560430.995     -453783.129 5                         7.750
  15308205.597   -46859042.119 7 -36513507.32123        26.750           2.563
 91  7 27  3 25 29.9830000  0  5G 3G21G17G11G23
  18618469.566   -10467506.774 5  -7945000.73221         9.250           0.219
  16951506.097   -23298181.415 6 -17726736.55521        18.500           1.406
  16421546.933   -23534361.462 7 -18338463.33723        25.250           3.188
  19543171.003     -544480.627 5                         8.750
  15302511.261   -46888969.262 7 -36536827.17223        27.250           2.500
 91  7 27  3 25 44.9830000  0  5G 3G21G17G11G23
  18622951.816   -10443972.368 5  -7926662.31021        10.250           0.156
  16937664.964   -23370902.588 6 -17783402.36221        18.750           1.375
  16420339.948   -23540692.736 7 -18343396.80623        24.750           3.094
  19525914.198     -635154.405 5                         9.000
  15296835.737   -46918790.496 7 -36560064.49723        27.000           2.500
 91  7 27  3 25 59.9830000  0  5G 3G21G17G11G23
  18627437.300   -10420370.751 5  -7908271.47321         9.500           0.219
  16923843.964   -23443547.799 6 -17840008.98321        19.000           1.469
  16419149.261   -23546954.659 7 -18348276.23223        24.750           3.156
  19508660.964     -725809.774 5        -0.31731         8.750           0.156
  15291181.222   -46948511.475 7 -36583223.69923        27.250           2.531
 91  7 27  3 26 14.9830000  0  5G 3G21G17G11G23
  18631943.417   -10396697.828 5  -7889825.11321        10.250           0.125
  16910034.995   -23516112.500 6 -17896552.87421        18.500           1.406
  16417971.581   -23553142.473 7 -18353097.92423        24.750           3.219
  19491418.839     -816441.848 5    -70622.69621         9.250           0.156
  15285544.808   -46978127.633 7 -36606301.22223        27.000           2.594
 91  7 27  3 26 29.9830000  0  5G 3G21G17G11G23
  18636454.526   -10372955.168 5  -7871324.42121         9.500           0.125
  16896237.464   -23588598.131 6 -17953035.14121        18.500           1.406
  16416807.191   -23559257.941 7 -18357863.23023        25.000           3.156
  19474174.089     -907051.920 5   -141227.91121         9.500           0.063
  15279927.550   -47007640.873 7 -36629298.54923        26.750           2.563
 91  7 27  3 26 44.9830000  0  5G 3G21G17G11G23
  18640991.597   -10349144.419 5  -7852770.64921        10.000           0.188
  16882461.339   -23661005.689 6 -18009456.58222        19.250           1.500
  16415660.386   -23565302.165 7 -18362573.02223        25.250           3.063
  19456938.526     -997640.705 5   -211816.58221         9.750           0.219
  15274330.511   -47037052.261 7 -36652216.51723        26.500           2.563
 91  7 27  3 26 59.9830000  0  5G 3G21G17G11G23
  18645534.769   -10325265.273 5  -7834163.58321         9.000           0.219
  16868700.378   -23733334.455 6 -18065816.63122        19.000           1.531
  16414522.355   -23571274.559 7 -18367226.84223        25.500           3.031
  19439707.120    -1088207.230 5   -282387.84821        10.000           0.219
  15268754.394   -47066361.504 7 -36675054.88323        26.500           2.500
 91  7 27  3 27 14.9830000  0  5G 3G21G17G11G23
  18650087.261   -10301313.308 5  -7815499.82321         9.000           0.219
  16854949.894   -23805579.740 6 -18122111.62122        18.750           1.563
  16413400.995   -23577170.570 7 -18371821.14323        26.000           3.000
  19422476.706    -1178746.552 5   -352937.96421         9.500           0.250
  15263195.487   -47095564.047 7 -36697810.11123        26.500           2.531
 91  7 27  3 27 29.9820000  0  5G 3G21G17G11G23
  18654661.654   -10277298.025 5  -7796786.64921         9.250           0.188
  16841218.147   -23877744.206 6 -18178343.63522        18.750           1.625
  16412292.608   -23582997.373 7 -18376361.52723        25.750           2.813
  19405253.092    -1269259.913 5   -423467.81721         9.250           0.156
  15257658.475   -47124665.737 7 -36720486.75023        26.750           2.594
 91  7 27  3 27 44.9820000  0  5G 3G21G17G11G23
  18659246.076   -10253211.300 5  -7778017.86421         9.000           0.188
  16827496.350   -23949832.215 6 -18234516.07622        18.500           1.594
  16411194.045   -23588750.402 7 -18380844.41423        24.500           2.938
  19388034.100    -1359753.812 5   -493982.50821         9.000           0.250
  15252140.397   -47153665.254 7 -36743083.77623        27.500           2.500
 91  7 27  3 27 59.9820000  0  5G 3G21G17G11G23
  18663840.201   -10229053.792 5  -7759193.91521         8.500           0.281
  16813796.428   -24021837.628 6 -18290624.16222        19.000           1.625
  16410117.975   -23594428.146 7 -18385268.63723        25.250           2.938
  19370815.068    -1450220.795 5   -564476.22521         8.500           0.156
  15246642.873   -47182559.602 7 -36765598.85423        27.500           2.500
 91  7 27  3 28 14.9820000  0  5G 3G21G17G11G23
  18668453.490   -10204824.068 5  -7740313.65721         8.000           0.188
  16800111.154   -24093758.709 6 -18346666.52622        18.750           1.563
  16409048.709   -23600029.109 7 -18389633.03723        25.250           2.875
  19353605.428    -1540658.850 5   -634947.39721         8.500           0.281
  15241163.100   -47211347.270 7 -36788030.80423        27.250           2.563
 91  7 27  3 28 29.9820000  0  5G 3G21G17G11G23
  18673074.975   -10180525.912 4  -7721380.14321         7.000           0.250
  16786439.233   -24165598.621 6 -18402645.63722        18.750           1.656
  16407999.990   -23605556.574 7 -18393940.15323        26.250           2.781
  19336392.920    -1631070.821 4   -705398.25021         7.000           0.313
  15235706.522   -47240031.598 7 -36810382.22123        27.500           2.500
 91  7 27  3 28 44.9820000  0  5G 3G21G17G11G23
  18677712.108   -10156157.594 4  -7702391.92821         7.000           0.188
  16772785.951   -24237355.383 6 -18458559.96922        19.000           1.719
  16406960.631   -23611008.586 7 -18398188.48323        25.250           2.813
  19319189.975    -1721454.515 4   -775827.05721         6.750           0.406
  15230268.897   -47268610.709 8 -36832651.65622        28.000           2.406
 91  7 27  3 28 59.9820000  0  5G 3G21G17G11G23
  18682366.850   -10131717.534 4  -7683347.80221         7.000           0.344
  16759148.545   -24309026.983 6 -18514407.93522        19.250           1.750
  16405937.522   -23616383.444 7 -18402376.69523        25.000           2.781
  19301997.529    -1811807.682 4   -846232.06121         6.250           0.281
  15224850.436   -47297083.070 7 -36854837.91223        27.750           2.531
 91  7 27  3 29 14.9820000  0  5G 3G21G17G11G23
  18687037.608   -10107195.906 4  -7664240.11321         7.000           0.250
  16745526.162   -24380603.209 6 -18570181.58722        19.250           1.656
  16404930.529   -23621670.926 7 -18406496.83023        24.750           2.625
  19284820.381    -1902119.905 4   -916605.17321         7.250           0.344
  15219454.678   -47325438.733 7 -36876933.22922        27.750           2.469
 91  7 27  3 29 29.9820000  0  5G 3G21G17G11G23
  18691703.912   -10082599.556 3  -7645074.22421         6.000           0.188
  16731922.139   -24452090.500 6 -18625885.94022        19.250           1.594
  16403939.272   -23626877.475 7 -18410553.89323        24.500           2.563
  19267645.029    -1992397.422 5   -986951.25221         7.500           0.313
  15214077.428   -47353684.313 7 -36898942.77923        27.250           2.500
 91  7 27  3 29 44.9820000  0  5G 3G21G17G11G23
  18696400.365   -10057962.235 4  -7625876.41821         6.750           0.219
  16718329.873   -24523522.244 6 -18681547.00522        19.750           1.563
  16402955.201   -23632036.762 7 -18414574.12323        24.000           2.563
  19250457.943    -2082673.422 5  -1057296.12221         8.000           0.313
  15208719.240   -47381853.377 7 -36920892.69323        27.250           2.594
 91  7 27  3 29 59.9820000  0  5G 3G21G17G11G23
  18701107.373   -10033261.029 5  -7606628.81121         7.750           0.188
  16704749.873   -24594875.300 6 -18737146.76122        19.250           1.594
  16401988.756   -23637125.737 7 -18418539.55423        24.000           2.500
  19233284.951    -2172924.395 5  -1127621.52521         8.750           0.188
  15203377.772   -47409922.786 7 -36942764.96123        27.500           2.688
 91  7 27  3 30 14.9820000  0  5G 3G21G17G11G23
  18705823.498   -10008468.109 5  -7587309.72121         8.250           0.344
  16691194.826   -24666121.180 6 -18792663.00022        19.750           1.719
  16401041.647   -23642115.931 7 -18422428.02323        24.250           2.656
  19216120.092    -2263121.615 5  -1197905.04621         9.000           0.250
  15198060.553   -47437864.368 7 -36964537.61923        27.250           2.500
 91  7 27  3 30 29.9820000  0  5G 3G21G17G11G23
  18710552.217    -9983596.339 5  -7567929.71221         8.000           0.188
  16677656.451   -24737272.549 6 -18848106.08422        19.500           1.688
  16400109.279   -23647020.048 7 -18426249.91923        25.000           2.531
  19198968.943    -2353277.582 5  -1268156.89321         9.750           0.313
  15192765.053   -47465691.144 7 -36986221.31723        26.750           2.563
 91  7 27  3 30 44.9820000  0  5G 3G21G17G11G23
  18715313.326    -9958614.713 5  -7548463.85721         9.000           0.125
  16664135.889   -24808297.897 6 -18903450.75822        19.000           1.688
  16399198.076   -23651806.868 7 -18429980.19323        24.500           2.531
  19181822.381    -2443361.480 5  -1338351.59621         9.250           0.188
  15187495.170   -47493372.764 7 -37007790.90623        26.500           2.594
 91  7 27  3 30 59.9820000  0  5G 3G21G17G11G23
  18720076.193    -9933562.002 5  -7528942.34721         8.750           0.125
  16650640.928   -24879235.503 6 -18958726.78222        19.250           1.563
  16398299.889   -23656514.867 7 -18433648.77522        24.250           2.438
  19164684.834    -2533409.365 5  -1408518.79321         9.750           0.219
  15182249.717   -47520945.890 7 -37029276.46022        26.500           2.469
 91  7 27  3 31 14.9820000  0  5G 3G21G17G11G23
  18724871.639    -9908370.358 5  -7509312.54921        10.000           0.125
  16637172.170   -24950017.406 7 -19013881.47922        20.750           1.688
  16397434.483   -23661076.045 7 -18437202.95222        23.750           2.469
  19147571.998    -2623354.034 5  -1478605.50621         9.500           0.281
  15177034.318   -47548343.763 7 -37050625.44723        26.250           2.656
 91  7 27  3 31 29.9820000  0  5G 3G21G17G11G23
  18729666.248    -9883135.392 5                         9.000
  16623711.068   -25020738.814 7 -19068989.04622        20.000           1.688
  16396573.350   -23665585.600 7 -18440716.89422        23.500           2.406
  19130464.084    -2713290.441 5  -1548685.75621        10.750           0.313
  15171837.904   -47575661.621 7 -37071912.08923        26.750           2.563
 91  7 27  3 31 44.9820000  0  5G 3G21G17G11G23
  18734494.451    -9857792.063 5                         9.250
  16610278.100   -25091334.128 6 -19123998.34422        19.750           1.781
  16395739.170   -23669978.091 7 -18444139.62422        24.000           2.344
  19113362.990    -2803152.613 5  -1618708.22221        10.750           0.219
  15166667.514   -47602834.070 7 -37093085.42423        26.750           2.563
 91  7 27  3 31 59.9820000  0  5G 3G21G17G11G23
  18739322.897    -9832392.747 5                         8.750
  16596857.779   -25161855.452 6 -19178949.99322        19.500           1.750
  16394914.608   -23674305.863 7 -18447511.93323        24.250           2.531
  19096266.514    -2892992.602 5  -1688713.32721        10.250           0.250
  15161513.506   -47629913.603 7 -37114186.35523        26.500           2.500
 91  7 27  3 32 14.9820000  0  5G 3G21G17G11G23
  18744175.326    -9806921.338 5        -0.14131         8.500           0.219
  16583455.108   -25232286.329 6 -19233831.16222        19.250           1.813
  16394109.248   -23678552.469 7 -18450820.98223        25.250           2.563
  19079175.092    -2982793.660 5  -1758688.17121        10.250           0.219
  15156380.428   -47656883.620 7 -37135201.95123        26.000           2.563
 91  7 27  3 32 29.9820000  0  5G 3G21G17G11G23
  18749034.600    -9781387.638 5     19896.67521         8.500           0.156
  16570065.772   -25302636.104 6 -19288648.63822        19.250           1.719
  16393311.498   -23682727.275 7 -18454073.58123        24.000           2.500
  19062091.334    -3072564.765 5  -1828639.10821         9.500           0.281
  15151269.326   -47683753.833 7 -37156139.28023        27.250           2.625
 91  7 27  3 32 44.9820000  0  5G 3G21G17G11G23
  18753894.631    -9755828.242 5     39812.50721         8.250           0.156
  16556689.475   -25372941.053 7 -19343432.18722        20.000           1.719
  16392525.029   -23686866.795 7 -18457299.68623        24.250           2.563
  19045001.647    -3162342.033 5  -1898595.86221         9.000           0.281
  15146168.545   -47710560.898 7 -37177028.39923        27.250           2.563
 91  7 27  3 32 59.9820000  0  5G 3G21G17G11G23
  18758772.967    -9730179.086 5     59798.82121         7.500           0.125
  16543329.115   -25443136.622 6 -19398129.99322        19.250           1.750
  16391758.295   -23690906.637 7 -18460447.61723        24.500           2.625
  19027927.225    -3252060.598 5  -1968506.39521         9.000           0.281
  15141089.608   -47737240.557 7 -37197817.74223        27.000           2.625
 91  7 27  3 33 14.9820000  0  5G 3G21G17G11G23
  18763668.295    -9704480.516 5     79823.61521         8.250           0.219
  16529984.670   -25513262.844 6 -19452773.76922        19.000           1.750
  16390997.889   -23694887.078 7 -18463549.27022        24.000           2.469
  19010862.397    -3341760.222 5  -2038402.16821         9.750           0.375
  15136030.998   -47763832.894 7 -37218539.03723        26.750           2.625
 91  7 27  3 33 29.9820000  0  5G 3G21G17G11G23
  18768548.943    -9678810.697 4     99826.00521         7.250           0.125
  16516640.639   -25583397.470 6 -19507424.09622        19.250           1.719
  16390238.451   -23698885.799 7 -18466665.16023        24.750           2.500
  18993785.443    -3431518.500 5  -2108343.63121        10.250           0.313
  15130969.998   -47790416.018 7 -37239253.16023        26.250           2.719
 91  7 27  3 33 44.9820000  0  5G 3G21G17G11G23
  18773461.639    -9653024.584 4    119919.00221         7.000           0.188
  16503322.818   -25653395.010 7 -19561967.60122        20.000           1.750
  16389501.561   -23702757.243 7 -18469681.87623        24.250           2.500
  18976723.608    -3521189.561 5  -2178217.14021        11.000           0.344
  15125942.100   -47816844.548 7 -37259846.81723        26.500           2.750
 91  7 27  3 33 59.9820000  0  5G 3G21G17G11G23
  18778383.240    -9627165.531 4    140068.29721         7.250           0.094
  16490020.295   -25723298.656 7 -19616438.44122        20.250           1.688
  16388779.068   -23706544.667 7 -18472633.62923        24.000           2.563
  18959665.881    -3610816.248 5  -2248056.58821        10.750           0.406
  15120935.701   -47843161.741 7 -37280354.21823        26.500           2.750
 91  7 27  3 34 14.9820000  0  5G 3G21G17G11G23
  18783296.225    -9601312.127 4    160214.26621         6.250           0.188
  16476717.678   -25793186.412 6 -19670895.89522        19.500           1.844
  16388061.295   -23710326.183 7 -18475579.77523        25.000           2.688
  18942605.022    -3700476.468 5  -2317921.14621        10.750           0.375
  15115933.115   -47869446.020 7 -37300834.97323        26.250           2.781
 91  7 27  3 34 29.9820000  0  5G 3G21G17G11G23
  18788244.920    -9575331.164 3    180459.04221         5.750           0.156
  16463450.717   -25862924.783 7 -19725237.44422        20.250           1.813
  16387369.920   -23713968.703 7 -18478418.10923        24.750           2.625
  18925565.506    -3790036.439 5  -2387708.09621        10.750           0.313
  15110961.600   -47895564.137 7 -37321186.75023        25.750           2.688
 91  7 27  3 34 44.9820000  0  5G 3G21G17G11G23
  18793203.943    -9549263.783 4    200771.20821         6.250           0.250
  16450198.373   -25932554.492 7 -19779494.31722        20.000           1.875
  16386694.608   -23717513.040 7 -18481179.94223        24.750           2.531
  18908536.029    -3879536.632 5  -2457448.45021        11.000           0.375
  15106015.209   -47921557.065 7 -37341440.97923        25.750           2.719
 91  7 27  3 34 59.9820000  0  5G 3G21G17G11G23
  18798177.889    -9523140.207 4    221127.15821         6.750           0.219
  16436963.693   -26002105.383 6 -19833689.79422        19.250           1.688
  16386031.670   -23720989.042 7 -18483888.52523        24.500           2.625
  18891503.850    -3969006.517 5  -2527165.20621        10.250           0.313
  15101087.787   -47947454.808 7 -37361621.03823        26.500           2.688
 91  7 27  3 35 14.9820000  0  4G21G17G11G23
  16423744.568   -26071578.945 7 -19887825.00022        20.000           1.688
  16385383.537   -23724398.668 7 -18486545.37323        24.250           2.500
  18874483.108    -4058447.442 5  -2596859.37921         9.750           0.406
  15096178.318   -47973259.017 7 -37381728.21223        26.500           2.625
 91  7 27  3 35 29.9820000  0  4G21G17G11G23
  16410538.600   -26140972.144 7 -19941897.58322        20.250           1.719
  16384751.670   -23727738.489 7 -18489147.84323        25.250           2.625
  18857469.975    -4147856.059 5  -2666528.38121        10.000           0.313
  15091284.881   -47998966.724 7 -37401760.18823        25.750           2.719
 91  7 27  3 35 44.9820000  0  4G21G17G11G23
  16397350.678   -26210281.790 7 -19995905.07022        20.750           1.875
  16384125.725   -23731005.516 7 -18491693.60123        24.500           2.594
  18840461.420    -4237228.974 5  -2736169.56221         9.500           0.313
  15086413.920   -48024575.288 7 -37421714.91323        26.000           2.688
 91  7 27  3 35 59.9820000  0  4G21G17G11G23
  16384175.553   -26279516.595 7 -20049854.23822        20.500           1.875
  16383516.709   -23734208.492 7 -18494189.43822        23.750           2.469
  18823458.842    -4326574.590 5  -2805789.46821         9.250           0.344
  15081556.959   -48050093.414 7 -37441599.16523        26.250           2.781
 91  7 27  3 36 14.9820000  0  4G21G17G11G23
  16371016.154   -26348670.974 7 -20103740.72622        20.500           1.781
  16382919.318   -23737341.978 7 -18496631.11823        24.000           2.625
  18806462.779    -4415887.043 5  -2875383.53421         9.750           0.313
  15076718.537   -48075515.870 7 -37461408.87023        26.000           2.625
 91  7 27  3 36 29.9820000  0  4G21G17G11G23
  16357871.850   -26417739.306 7 -20157560.17122        20.500           1.938
  16382336.709   -23740400.561 7 -18499014.44423        24.000           2.594
  18789476.295    -4505160.410 5  -2944947.16421         9.750           0.281
  15071898.014   -48100837.070 7 -37481139.67023        25.500           2.750
 91  7 27  3 36 44.9820000  0  4G21G17G11G23
  16344743.014   -26486727.045 7 -20211316.81022        20.750           1.969
  16381769.115   -23743389.810 7 -18501343.74223        23.750           2.656
  18772494.686    -4594399.931 5  -3014484.40821         9.250           0.281
  15067100.240   -48126062.797 7 -37500796.08223        26.000           2.844
 91  7 27  3 36 59.9820000  0  4G21G17G11G23
  16331629.490   -26555638.003 7 -20265013.62922        20.500           1.875
  16381212.279   -23746313.720 7 -18503622.12023        23.500           2.531
  18755514.545    -4683609.068 5  -3083997.98621         9.500           0.344
  15062317.264   -48151197.094 7 -37520381.24723        26.250           2.813
 91  7 27  3 37 14.9820000  0  4G21G17G11G23
  16318533.467   -26624468.800 7 -20318647.97622        21.250           1.813
  16380670.451   -23749168.981 7 -18505847.01123        23.750           2.656
  18738544.818    -4772784.257 5  -3153485.08621         9.250           0.406
  15057550.740   -48176236.739 7 -37539892.65923        26.000           2.750
 91  7 27  3 37 29.9820000  0  4G21G17G11G23
  16305452.240   -26693218.451 7 -20372219.10422        21.250           1.906
  16380139.811   -23751954.716 7 -18508017.72123        23.500           2.625
  18721587.623    -4861924.119 5  -3222944.66221         9.250           0.469
  15052806.787   -48201181.115 7 -37559329.83523        26.000           2.688
 91  7 27  3 37 44.9820000  0  4G21G17G11G23
  16292380.568   -26761887.231 7 -20425727.20422        21.000           1.969
  16379623.240   -23754671.283 7 -18510134.53823        23.500           2.719
  18704631.311    -4951028.553 5  -3292376.63121        10.000           0.469
  15048076.037   -48226030.614 7 -37578693.08123        25.750           2.719
 91  7 27  3 37 59.9820000  0  4G21G17G11G23
  16279328.928   -26830477.950 7 -20479174.48022        21.250           1.906
  16379116.772   -23757321.667 7 -18512199.78623        23.250           2.656
  18687676.873    -5040100.329 5  -3361783.15121         9.500           0.500
  15043364.428   -48250788.250 7 -37597984.74323        25.750           2.844
 91  7 27  3 38 14.9820000  0  4G21G17G11G23
  16266292.779   -26898985.686 7 -20532557.10222        21.250           1.906
  16378627.522   -23759900.824 7 -18514209.51623        23.250           2.500
  18670729.983    -5129134.071 5  -3431160.03021         9.000           0.438
  15038673.608   -48275449.149 7 -37617201.03323        26.250           2.875
 91  7 27  3 38 29.9820000  0  4G21G17G11G23
  16253271.584   -26967415.246 7 -20585878.80922        21.750           1.906
  16378148.459   -23762413.776 7 -18516167.68123        23.000           2.531
  18653799.529    -5218134.416 5  -3500510.88321        10.000           0.469
  15033999.389   -48300018.438 7 -37636345.93223        26.250           2.781
 91  7 27  3 38 44.9810000  0  4G21G17G11G23
  16240267.040   -27035755.657 7 -20639131.03922        22.000           2.031
  16377685.915   -23764854.002 7 -18518069.17422        23.500           2.344
  18636876.564    -5307088.734 5  -3569825.90521        11.000           0.375
  15029341.384   -48324488.411 7 -37655413.44723        25.750           2.813
 91  7 27  3 38 59.9810000  0  4G21G17G11G23
  16227275.946   -27104018.264 7 -20692322.64922        21.750           2.031
  16377232.118   -23767224.370 7 -18519916.22722        22.500           2.375
  18619956.728    -5396011.030 6  -3639115.94821        12.000           0.406
  15024700.462   -48348864.897 7 -37674408.11523        25.500           2.844
 91  7 27  3 39 14.9810000  0  4G21G17G11G23
  16214301.759   -27172198.628 7 -20745450.17422        21.250           2.094
  16376797.431   -23769524.553 7 -18521708.58622        23.500           2.438
  18603040.196    -5484895.069 6  -3708376.20021        12.000           0.375
  15020079.032   -48373146.499 7 -37693328.84023        25.500           2.844
 91  7 27  3 39 29.9810000  0  4G21G17G11G23
  16201345.884   -27240302.058 7 -20798517.74722        22.000           2.094
  16376369.017   -23771760.188 7 -18523450.65222        22.750           2.344
  18586131.696    -5573745.753 5  -3777610.45721        11.250           0.406
  15015478.650   -48397338.589 7 -37712179.82523        26.500           2.875
 91  7 27  3 39 44.9810000  0  4G21G17G11G23
  16188397.462   -27308321.155 7 -20851519.60622        21.250           2.125
  16375959.806   -23773924.222 7 -18525136.93023        23.500           2.531
  18569233.446    -5662555.566 5  -3846812.85921        11.250           0.375
  15010893.782   -48421434.220 7 -37730955.64323        26.500           2.844
 91  7 27  3 39 59.9810000  0  4G21G17G11G23
  16175471.540   -27376262.996 7 -20904461.26822        21.750           2.094
  16375557.462   -23776023.527 7 -18526772.75822        23.000           2.344
  18552338.384    -5751331.173 5  -3915988.61021        10.750           0.281
  15006323.485   -48445440.612 7 -37749661.92223        26.000           2.813
 91  7 27  3 40 14.9810000  0  4G21G17G11G23
  16162557.423   -27444123.369 7 -20957339.45522        21.750           2.125
  16375174.079   -23778054.137 7 -18528355.04922        23.500           2.313
  18535445.860    -5840068.044 5  -3985134.17821        10.250           0.406
  15001773.642   -48469353.602 7 -37768295.42323        25.750           2.969
 91  7 27  3 40 29.9810000  0  4G21G17G11G23
  16149658.900   -27511899.964 7 -21010152.35722        21.250           2.188
  16374801.853   -23780013.699 7 -18529881.99722        23.750           2.406
  18518570.892    -5928763.511 5  -4054247.48621        11.000           0.281
  14997238.689   -48493171.155 7 -37786854.55623        25.000           2.844
 91  7 27  3 40 44.9810000  0  4G21G17G11G23
  16136776.118   -27579592.069 7 -21062899.41622        21.000           2.156
  16374441.743   -23781901.620 7 -18531353.12322        23.500           2.313
  18501703.978    -6017416.760 5  -4123327.93021        11.500           0.344
  14992726.204   -48516892.805 7 -37805338.95823        25.250           2.969
 91  7 27  3 40 59.9810000  0  4G21G17G11G23
  16123910.728   -27647199.431 7 -21115580.44422        21.000           2.188
  16374093.017   -23783717.919 7 -18532768.43022        22.500           2.156
  18484837.306    -6106027.264 5  -4192375.03321        10.500           0.406
  14988232.423   -48540518.620 7 -37823748.68623        25.500           2.969
 91  7 27  3 41 14.9810000  0  4G21G17G11G23
  16111063.165   -27714728.729 7 -21168200.64922        21.750           2.125
  16373761.634   -23785469.323 7 -18534133.17022        22.500           2.156
  18467980.400    -6194601.296 5  -4261393.73121         9.250           0.250
  14983751.431   -48564055.306 7 -37842088.96123        25.500           2.875
 91  7 27  3 41 29.9810000  0  4G21G17G11G23
  16098226.626   -27782181.051 7 -21220760.87322        21.500           2.188
  16373441.368   -23787156.932 7 -18535448.20122        23.250           2.250
  18451132.454    -6283139.668 5  -4330384.62521         9.500           0.438
  14979290.548   -48587504.087 7 -37860360.74423        25.000           2.906
 91  7 27  3 41 44.9810000  0  4G21G17G11G23
  16085403.485   -27849555.401 7 -21273260.34122        21.000           2.313
  16373132.564   -23788779.945 7 -18536712.90122        23.750           2.188
  18434291.931    -6371641.111 5  -4399346.74121         9.750           0.438
  14974845.009   -48610864.522 7 -37878563.67923        25.000           2.875
 91  7 27  3 41 59.9810000  0  4G21G17G11G23
  16072601.782   -27916845.710 7 -21325694.32122        21.500           2.219
  16372835.689   -23790332.240 7 -18537922.48322        22.500           2.156
  18417465.532    -6460099.306 5  -4468275.14521        11.500           0.500
  14970416.782   -48634130.650 7 -37896693.13223        25.000           2.875
 91  7 27  3 42 14.9810000  0  4G21G17G11G23
  16059812.657   -27984054.592 7 -21378064.84522        21.500           2.219
  16372555.579   -23791816.813 7 -18539079.30522        22.750           2.063
  18400639.743    -6548516.594 5  -4537171.69121        11.750           0.438
  14966006.056   -48657305.275 7 -37914751.27823        24.750           2.875
 91  7 27  3 42 29.9810000  0  4G21G17G11G23
  16047038.509   -28051180.776 7 -21430370.93722        22.000           2.219
  16372286.704   -23793232.297 7 -18540182.29722        23.500           2.094
  18383820.540    -6636891.328 5  -4606035.08321        10.500           0.563
  14961614.470   -48680387.205 7 -37932737.19423        24.750           2.938
 91  7 27  3 42 44.9810000  0  4G21G17G11G23
  16034279.384   -28118223.444 7 -21482611.94922        22.250           2.250
  16372027.595   -23794578.126 7 -18541230.99622        22.500           2.031
  18367009.892    -6725222.495 5  -4674864.50121        11.000           0.469
  14957242.150   -48703375.882 7 -37950650.45423        25.250           2.969
 91  7 27  3 42 59.9810000  0  4G21G17G11G23
  16021538.103   -28185187.654 7 -21534791.82422        21.750           2.125
  16371783.329   -23795859.323 7 -18542229.33622        22.000           2.094
  18350208.150    -6813514.594 5  -4743663.50521        11.000           0.594
  14952881.454   -48726276.525 7 -37968495.11523        25.500           2.906
 91  7 27  3 43 14.9810000  0  4G21G17G11G23
  16008809.071   -28252069.085 7 -21586907.19222        21.750           2.219
  16371556.126   -23797071.556 7 -18543173.94422        23.000           1.969
  18333410.939    -6901763.102 5  -4812428.53821        10.500           0.406
  14948543.157   -48749085.138 7 -37986268.05823        25.500           3.000
 91  7 27  3 43 29.9810000  0  4G21G17G11G23
  15996094.712   -28318872.351 7 -21638961.65922        21.250           2.250
  16371334.673   -23798219.468 7 -18544068.43122        22.500           2.094
  18316633.048    -6989972.453 6  -4881163.08321        12.000           0.313
  14944219.282   -48771806.438 7 -38003972.96723        25.250           2.875
 91  7 27  3 43 44.9810000  0  4G21G17G11G23
  15983402.493   -28385590.290 7 -21690949.63722        21.500           2.313
  16371131.970   -23799296.217 7 -18544907.46122        22.750           2.063
  18299857.829    -7078135.203 5  -4949861.30021        11.750           0.438
  14939913.689   -48794433.569 7 -38021604.49223        25.000           2.969
 91  7 27  3 43 59.9810000  0  4G21G17G11G23
  15970716.962   -28452235.138 7 -21742880.65722        20.750           2.281
  16370935.337   -23800314.040 7 -18545700.58022        22.250           2.156
  18283087.204    -7166263.206 6  -5018532.42221        12.250           0.469
  14935621.314   -48816979.074 7 -38039172.42223        24.750           2.906
 91  7 27  3 44 14.9810000  0  4G21G17G11G23
  15958053.446   -28518792.891 7 -21794743.81322        20.750           2.313
  16370758.525   -23801259.099 7 -18546436.99822        23.250           2.188
  18266326.493    -7254342.181 5  -5087165.36621        11.250           0.500
  14931350.907   -48839429.029 7 -38056665.89123        25.250           3.000
 91  7 27  3 44 29.9810000  0  4G21G17G11G23
  15945399.790   -28585272.041 7 -21846545.71722        20.500           2.281
  16370589.400   -23802139.987 7 -18547123.41222        23.250           2.188
  18249573.173    -7342380.359 5  -5155766.50721        11.000           0.563
  14927094.642   -48861792.187 7 -38074091.73323        25.250           2.875
 91  7 27  3 44 44.9810000  0  4G21G17G11G23
  15932766.814   -28651670.849 7 -21898285.01522        22.000           2.156
  16370435.806   -23802955.152 7 -18547758.61022        23.000           2.125
  18232825.298    -7430375.606 5  -5224334.18221        10.750           0.563
  14922855.212   -48884067.076 7 -38091448.78723        25.000           2.875
 91  7 27  3 44 59.9810000  0  4G21G17G11G23
  15920146.939   -28717988.467 7 -21949961.05722        21.500           2.094
  16370293.439   -23803703.577 7 -18548341.79422        23.500           2.188
  18216086.189    -7518326.622 5  -5292867.40121        11.500           0.594
  14918634.118   -48906252.892 7 -38108736.43523        25.250           2.875
 91  7 27  3 45 14.9810000  0  4G21G17G11G23
  15907540.915   -28784226.070 7 -22001574.74422        21.750           2.063
  16370162.735   -23804386.752 7 -18548874.15222        22.750           2.188
  18199359.712    -7606234.560 6  -5361367.07221        12.250           0.563
  14914429.329   -48928351.108 7 -38125955.82923        24.750           3.031
 91  7 27  3 45 29.9810000  0  4G21G17G11G23
  15894954.087   -28850382.163 7 -22053124.92922        21.500           2.031
  16370042.157   -23805003.378 7 -18549354.64822        22.250           2.156
  18182644.142    -7694097.556 6  -5429831.69921        12.000           0.531
  14910242.751   -48950360.446 7 -38143105.96323        25.250           3.031
 91  7 27  3 45 44.9810000  0  4G21G17G11G23
  15882381.157   -28916455.815 7 -22104610.86422        21.750           2.000
  16369940.189   -23805552.604 7 -18549782.62722        22.750           2.156
  18165932.548    -7781914.263 6  -5498260.26021        12.250           0.563
  14906070.790   -48972280.142 7 -38160186.24623        25.000           3.031
 91  7 27  3 45 59.9810000  0  4G21G17G11G23
  15869822.150   -28982448.787 7 -22156033.94122        21.750           2.125
  16369850.603   -23806036.057 7 -18550159.35322        23.000           2.063
  18149225.400    -7869686.287 6  -5566654.01521        12.250           0.625
  14901914.782   -48994112.158 7 -38177198.20623        25.000           3.156
 91  7 27  3 46 14.9810000  0  4G21G17G11G23
  15857280.282   -29048359.759 7 -22207393.11322        22.000           2.031
  16369770.650   -23806452.522 7 -18550483.88622        22.750           2.031
  18132533.587    -7957411.916 6  -5635011.61921        12.750           0.594
  14897778.384   -49015855.596 7 -38194141.14423        25.000           2.969
 91  7 27  3 46 29.9810000  0  4G21G17G11G23
  15844751.173   -29114190.098 7 -22258689.46722        21.250           2.094
  16369704.657   -23806803.600 7 -18550757.45922        23.500           2.125
  18115849.985    -8045092.176 6  -5703333.87821        13.250           0.563
  14893655.228   -49037511.859 7 -38211016.16023        24.250           3.031
 91  7 27  3 46 44.9810000  0  4G21G17G11G23
  15832239.712   -29179940.103 7 -22309923.20822        21.750           2.125
  16369646.595   -23807089.544 7 -18550980.28322        21.750           2.125
  18099173.040    -8132727.038 6  -5771620.75821        12.250           0.656
  14889553.478   -49059081.336 7 -38227823.54423        25.000           3.031
 91  7 27  3 46 59.9810000  0  4G21G17G11G23
  15819742.462   -29245609.203 7 -22361093.90922        21.500           2.031
  16369604.228   -23807310.159 7 -18551152.19722        21.250           2.094
  18082502.204    -8220315.643 5  -5839871.56121        11.750           0.531
  14885465.423   -49080563.648 7 -38244563.00923        25.750           3.000
 91  7 27  3 47 14.9810000  0  4G21G17G11G23
  15807262.032   -29311200.123 7 -22412203.69322        21.750           2.031
  16369573.259   -23807468.181 7                        21.750
  18065841.212    -8307860.514 6  -5908088.31521        12.000           0.469
  14881391.400   -49101962.018 7 -38261237.06823        25.000           3.125
 91  7 27  3 47 29.9810000  0  4G21G17G11G23
  15794797.103   -29376709.493 7 -22463249.93222        22.000           2.063
  16369561.970   -23807560.213 7                        23.000
  18049192.454    -8395357.853 5  -5976268.04121        11.750           0.469
  14877336.071   -49123273.254 7 -38277843.22423        24.750           3.000
 91  7 27  3 47 44.9810000  0  4G21G17G11G23
  15782348.056   -29442133.384 7 -22514229.56622        22.250           2.031
  16369555.431   -23807582.304 7                        22.250
  18032549.860    -8482803.458 6  -6044407.46021        12.000           0.438
  14873298.884   -49144493.480 7 -38294378.46723        25.000           2.969
 91  7 27  3 47 59.9810000  0  4G21G17G11G23
  15769914.603   -29507474.822 7 -22565144.95422        21.750           2.063
  16369563.853   -23807537.701 7                        23.000
  18015922.235    -8570200.017 6  -6112508.65421        12.000           0.500
  14869278.860   -49165625.898 7 -38310845.28623        24.750           3.156
 91  7 27  3 48 14.9810000  0  4G21G17G11G23
  15757495.157   -29572733.966 7 -22615996.20722        21.500           1.969
  16369584.618   -23807426.996 7                        23.000
  17999305.110    -8657547.439 6  -6180571.54521        12.750           0.531
  14865270.978   -49186670.904 7 -38327243.98623        24.500           3.063
 91  7 27  3 48 29.9810000  0  4G21G17G11G23
  15745089.579   -29637913.206 7 -22666785.20922        21.500           1.969
  16369618.720   -23807252.467 7                        22.250
  17982685.603    -8744847.741 6  -6248597.73921        12.000           0.469
  14861284.720   -49207631.212 7 -38343576.69723        25.000           3.125
 91  7 27  3 48 44.9810000  0  4G21G17G11G23
  15732701.290   -29703014.864 7 -22717513.75322        22.000           1.938
  16369664.001   -23807016.442 7                        22.250
  17966082.556    -8832103.022 6  -6316588.82221        12.500           0.563
  14857311.220   -49228509.300 7 -38359845.34223        24.750           3.188
 91  7 27  3 48 59.9810000  0  4G21G17G11G23
  15720329.720   -29768034.735 7 -22768178.56822        22.250           2.063
  16369718.189   -23806714.680 7 -18550688.26022        22.250           2.281
  17949488.650    -8919308.565 6  -6384541.16821        12.750           0.656
  14853354.915   -49249301.097 7 -38376046.73923        24.500           3.125
 91  7 27  3 49 14.9810000  0  4G21G17G11G23
  15707973.470   -29832978.595 7 -22818784.15222        22.000           2.031
  16369786.267   -23806353.141 7 -18550406.54022        21.750           2.094
  17932901.110    -9006469.891 6  -6452459.08021        13.000           0.531
  14849414.001   -49270012.628 7 -38392185.59523        25.250           3.125
 91  7 27  3 49 29.9810000  0  4G21G17G11G23
  15695629.431   -29897842.023 7 -22869327.06022        22.500           2.125
  16369867.579   -23805927.588 7 -18550074.95622        21.750           2.000
  17916327.243    -9093582.380 6  -6520338.90321        12.500           0.594
  14845488.853   -49290639.637 7 -38408258.59523        26.000           3.188
 91  7 27  3 49 44.9810000  0  4G21G17G11G23
  15683301.446   -29962624.466 7 -22919806.87122        22.000           2.219
  16369963.712   -23805437.496 7 -18549693.07622        23.250           2.000
  17899758.150    -9180645.107 6  -6588179.96021        12.500           0.594
  14841581.134   -49311181.904 7 -38424265.55123        25.250           3.250
 91  7 27  3 49 59.9810000  0  4G21G17G11G23
  15670982.720   -30027324.991 7 -22970222.84322        20.750           2.094
  16370068.454   -23804882.044 7 -18549260.27722        22.000           2.063
  17883199.868    -9267656.715 6  -6655981.19121        13.750           0.500
  14837685.353   -49331638.660 7 -38440205.88323        24.750           3.188
 91  7 27  3 50 14.9800000  0  4G21G17G11G23
  15658692.981   -30091939.789 7 -23020572.01522        22.000           2.031
  16370185.942   -23804261.722 7 -18548776.92522        22.000           2.094
  17866654.754    -9354611.583 6  -6723738.21421        12.750           0.594
  14833807.840   -49352009.108 7 -38456078.96323        24.750           3.125
 91  7 27  3 50 29.9800000  0  4G21G17G11G23
  15646407.449   -30156481.411 7 -23070864.16622        21.000           2.063
  16370315.356   -23803580.878 7 -18548246.40322        21.500           1.969
  17850116.317    -9441525.051 6  -6791462.95021        13.750           0.594
  14829949.637   -49372300.325 7 -38471890.30023        25.250           3.094
 91  7 27  3 50 44.9800000  0  4G21G17G11G23
  15634142.020   -30220940.334 7 -23121091.87722        21.250           2.219
  16370457.934   -23802834.422 7 -18547664.75722        21.500           2.031
  17833589.481    -9528385.776 6  -6859146.60321        14.500           0.594
  14826103.652   -49392505.775 7 -38487634.81223        25.250           3.188
 91  7 27  3 50 59.9800000  0  4G21G17G11G23
  15621894.606   -30285319.684 7 -23171257.58822        22.000           2.094
  16370611.402   -23802025.267 7 -18547034.26922        21.750           2.031
  17817066.981    -9615196.404 6  -6926791.22321        14.000           0.500
  14822275.582   -49412628.850 7 -38503315.12423        25.250           3.219
 91  7 27  3 51 14.9800000  0  4G21G17G11G23
  15609657.621   -30349621.207 7 -23221362.65522        22.250           2.188
  16370773.848   -23801155.361 7 -18546356.42122        21.250           1.938
  17800554.934    -9701958.444 6  -6994397.97321        13.500           0.563
  14818459.574   -49432671.560 7 -38518932.82123        25.000           3.281
 91  7 27  3 51 29.9800000  0  4G21G17G11G23
  15597432.817   -30413842.983 7 -23271405.57622        21.250           2.188
  16370956.621   -23800222.946 7 -18545629.88422        22.250           1.875
  17784060.535    -9788669.577 6  -7061965.06421        15.000           0.594
  14814661.379   -49452632.222 7 -38534486.58023        24.750           3.281
 91  7 27  3 51 44.9800000  0  4G21G17G11G23
  15585228.184   -30477980.699 7 -23321382.99822        21.000           2.313
  16371142.918   -23799223.661 7 -18544851.22522        21.000           1.906
  17767570.848    -9875325.156 6  -7129488.86621        15.000           0.688
  14810879.910   -49472506.667 7 -38549973.16623        25.500           3.063
 91  7 27  3 51 59.9800000  0  4G21G17G11G23
  15573042.567   -30542035.122 7 -23371295.51222        21.500           2.125
  16371348.387   -23798158.406 7 -18544021.17522        20.500           1.875
  17751092.567    -9961925.678 6  -7196969.76021        14.750           0.656
  14807114.410   -49492295.655 7 -38565393.15223        25.000           3.188
 91  7 27  3 52 14.9800000  0  4G21G17G11G23
  15560868.465   -30606009.836 7 -23421145.92022        22.000           2.094
  16371562.449   -23797030.955 7 -18543142.64422        21.500           1.906
  17734614.957   -10048474.474 6  -7264410.34821        13.000           0.719
  14803363.965   -49512003.052 7 -38580749.56723        24.750           3.156
 91  7 27  3 52 29.9800000  0  4G21G17G11G23
  15548711.770   -30669905.051 7 -23470934.38722        22.500           2.000
  16371791.981   -23795841.600 7 -18542215.88122        22.250           1.938
  17718158.457   -10134971.394 6  -7331810.50721        13.000           0.688
  14799629.332   -49531629.591 7 -38596042.97723        25.000           3.250
 91  7 27  3 52 44.9800000  0  4G21G17G11G23
  15536564.418   -30733721.213 7 -23520661.25322        21.500           2.188
  16372024.348   -23794590.741 7 -18541241.20822        21.500           1.969
  17701705.137   -10221416.520 6  -7399170.30521        13.500           0.656
  14795909.067   -49551175.828 7 -38611273.80923        24.750           3.281
 91  7 27  3 52 59.9800000  0  4G21G17G11G23
  15524436.379   -30797453.570 7 -23570322.80722        21.500           2.156
  16372279.176   -23793273.773 7 -18540215.01222        22.250           1.969
  17685269.426   -10307804.715 6  -7466485.74421        13.750           0.781
  14792205.231   -49570637.189 7 -38626438.50823        24.750           3.281
 91  7 27  3 53 14.9800000  0  4G21G17G11G23
  15512322.160   -30861109.943 7 -23619925.15922        21.250           2.125
  16372541.160   -23791898.647 7 -18539143.49822        22.250           1.844
  17668834.809   -10394143.362 6  -7533762.57121        14.000           0.688
  14788516.293   -49590021.465 7 -38641543.13423        24.750           3.188
 91  7 27  3 53 29.9800000  0  4G21G17G11G23
  15500226.277   -30924684.442 7 -23669463.71422        21.750           2.188
  16372812.973   -23790459.790 7 -18538022.32622        21.500           1.750
  17652419.902   -10480426.477 6  -7600996.12721        14.500           0.719
  14784844.387   -49609323.128 7 -38656583.39523        25.000           3.250
 91  7 27  3 53 44.9800000  0  4G21G17G11G23
  15488143.488   -30988177.900 7 -23718939.11622        21.500           2.219
  16373099.863   -23788957.977 7 -18536852.10522        22.500           1.750
  17636009.652   -10566654.465 6  -7668186.73521        14.000           0.781
  14781186.949   -49628543.082 7 -38671559.98423        25.000           3.313
 91  7 27  3 53 59.9800000  0  4G21G17G11G23
  15476073.684   -31051590.073 7 -23768351.17922        21.250           2.250
  16373397.520   -23787392.853 7 -18535632.54122        22.000           1.563
  17619613.168   -10652826.721 6  -7735333.90321        14.250           0.781
  14777543.504   -49647681.288 7 -38686472.86823        25.000           3.281
 91  7 27  3 54 14.9800000  0  4G21G17G11G23
  15464025.285   -31114919.841 7 -23817699.03522        21.250           2.344
  16373705.395   -23785763.515 7 -18534362.93522        21.500           1.563
  17603226.113   -10738941.905 6  -7802436.59421        14.250           0.906
  14773918.692   -49666737.028 7 -38701321.49523        25.250           3.281
 91  7 27  3 54 29.9800000  0  4G21G17G11G23
  15451987.059   -31178169.040 7 -23866984.10022        20.750           2.344
  16374028.934   -23784071.895 7 -18533044.80522        21.500           1.688
  17586848.043   -10825001.307 6  -7869495.80021        15.000           0.813
  14770307.902   -49685712.252 7 -38716107.38423        25.250           3.219
 91  7 27  3 54 44.9800000  0  4G21G17G11G23
  15439968.996   -31241335.071 7 -23916204.36922        21.000           2.406
  16374363.184   -23782315.327 7 -18531676.06622        21.500           1.688
  17570485.121   -10911002.017 6  -7936509.31621        14.750           0.750
  14766712.145   -49704604.487 7 -38730828.60723        25.500           3.219
 91  7 27  3 54 59.9800000  0  4G21G17G11G23
  15427964.926   -31304417.894 7 -23965359.78822        21.000           2.406
  16374706.637   -23780493.942 7 -18530256.82622        21.250           1.750
  17554131.113   -10996943.824 6  -8003476.90021        14.500           0.781
  14763134.606   -49723414.055 7 -38745485.40923        26.000           3.188
 91  7 27  3 55 14.9800000  0  4G21G17G11G23
  15415975.871   -31367421.204 7 -24014453.25622        22.000           2.344
  16375066.793   -23778611.766 7 -18528790.20322        20.500           1.781
  17537783.723   -11082829.973 6  -8070401.11021        14.500           0.781
  14759570.332   -49742144.552 7 -38760080.60123        26.000           3.281
 91  7 27  3 55 29.9800000  0  4G21G17G11G23
  15404003.020   -31430344.864 7 -24063484.66522        22.250           2.281
  16375435.824   -23776668.658 7 -18527276.09922        20.250           1.844
  17521451.457   -11168660.028 6  -8137281.64121        14.750           0.688
  14756020.598   -49760796.326 7 -38774614.44923        25.750           3.094
 91  7 27  3 55 44.9800000  0  4G21G17G11G23
  15392047.652   -31493185.965 7 -24112451.73622        22.000           2.375
  16375820.160   -23774661.802 7 -18525712.31622        20.750           1.875
  17505129.051   -11254430.839 6  -8204115.98821        14.000           0.750
  14752486.231   -49779366.498 7 -38789084.71723        25.250           3.156
 91  7 27  3 55 59.9800000  0  4G21G17G11G23
  15380100.418   -31555947.300 7 -24161356.64322        21.500           2.406
  16376211.332   -23772594.058 7 -18524101.10622        20.250           1.938
  17488820.020   -11340144.649 6  -8270905.92221        14.750           0.625
  14748966.535   -49797858.120 7 -38803493.77223        25.750           3.156
 91  7 27  3 56 14.9800000  0  4G21G17G11G23
  15368171.660   -31618622.602 7 -24210194.51422        21.000           2.313
  16376616.793   -23770459.005 7 -18522437.43322        21.250           1.750
  17472520.410   -11425794.777 6  -8337646.23821        14.750           0.781
  14745465.723   -49816265.063 7 -38817836.84023        26.000           3.156
 91  7 27  3 56 29.9800000  0  4G21G17G11G23
  15356262.527   -31681220.336 7 -24258971.95322        21.750           2.375
  16377036.223   -23768265.389 7 -18520728.14122        21.500           1.719
  17456235.918   -11511389.555 6  -8404343.42321        15.000           0.750
  14741977.129   -49834596.263 7 -38832120.88823        25.750           3.281
 91  7 27  3 56 44.9800000  0  4G21G17G11G23
  15344366.067   -31743735.827 7 -24307685.29822        22.250           2.344
  16377467.613   -23766008.803 7 -18518969.78222        21.750           1.688
  17439958.871   -11596923.909 6  -8470993.51621        15.250           0.750
  14738503.004   -49852847.008 7 -38846342.24423        25.250           3.188
 91  7 27  3 56 59.9800000  0  4G21G17G11G23
  15332486.738   -31806166.249 7 -24356332.35722        22.250           2.344
  16377907.840   -23763686.514 7 -18517160.22022        20.500           1.656
  17423695.981   -11682394.656 6  -8537594.04121        15.250           0.781
  14735046.598   -49871014.715 7 -38860498.89823        25.500           3.094
 91  7 27  3 57 14.9800000  0  4G21G17G11G23
  15320616.793   -31868520.060 7 -24404919.71222        21.500           2.313
  16378358.481   -23761306.864 6 -18515305.96322        19.750           1.813
  17407441.535   -11767809.738 6  -8604151.20421        16.250           0.813
  14731603.598   -49889108.034 7 -38874597.59123        26.000           3.219
 91  7 27  3 57 29.9800000  0  4G21G17G11G23
  15308768.535   -31930796.947 7 -24453447.12822        21.500           2.406
  16378823.692   -23758869.787 7 -18513406.95022        20.500           1.844
  17391191.996   -11853168.719 6  -8670664.65121        14.250           0.781
  14728173.863   -49907126.832 7 -38888638.21523        25.500           3.188
